154 KiB
154 KiB
| 1 | date | day_night | year | month | season | count | is_workday | is_weekend | is_holiday | temp | temp_feel | humidity | wind_speed | weather_type |
|---|---|---|---|---|---|---|---|---|---|---|---|---|---|---|
| 2 | 2015-01-04 | day | 2015 | 1 | winter | 6830 | 0 | 1 | 0 | 2.1666666666666665 | -0.75 | 95.16666666666667 | 10.416666666666666 | broken clouds |
| 3 | 2015-01-04 | night | 2015 | 1 | winter | 2404 | 0 | 1 | 0 | 2.7916666666666665 | 2.0416666666666665 | 93.375 | 4.583333333333333 | clear |
| 4 | 2015-01-05 | day | 2015 | 1 | winter | 14763 | 1 | 0 | 0 | 8.958333333333334 | 7.708333333333333 | 81.08333333333333 | 8.666666666666666 | broken clouds |
| 5 | 2015-01-05 | night | 2015 | 1 | winter | 5609 | 1 | 0 | 0 | 7.125 | 5.708333333333333 | 79.54166666666667 | 9.041666666666666 | cloudy |
| 6 | 2015-01-06 | day | 2015 | 1 | winter | 14501 | 1 | 0 | 0 | 9 | 6.458333333333333 | 80.20833333333333 | 19.208333333333332 | broken clouds |
| 7 | 2015-01-06 | night | 2015 | 1 | winter | 6112 | 1 | 0 | 0 | 6.708333333333333 | 4.208333333333333 | 77.58333333333333 | 12.791666666666666 | clear |
| 8 | 2015-01-07 | day | 2015 | 1 | winter | 16358 | 1 | 0 | 0 | 8.166666666666666 | 5.083333333333333 | 75.20833333333333 | 21.25 | scattered clouds |
| 9 | 2015-01-07 | night | 2015 | 1 | winter | 4706 | 1 | 0 | 0 | 6.681818181818182 | 3.8636363636363638 | 81.27272727272727 | 18.136363636363637 | clear |
| 10 | 2015-01-08 | day | 2015 | 1 | winter | 9971 | 1 | 0 | 0 | 9.458333333333334 | 7.125 | 79.41666666666667 | 18.75 | scattered clouds |
| 11 | 2015-01-08 | night | 2015 | 1 | winter | 5630 | 1 | 0 | 0 | 10.041666666666666 | 8.458333333333334 | 79.20833333333333 | 22.208333333333332 | clear |
| 12 | 2015-01-09 | day | 2015 | 1 | winter | 16568 | 1 | 0 | 0 | 12.708333333333334 | 12.708333333333334 | 73.29166666666667 | 30.333333333333332 | clear |
| 13 | 2015-01-09 | night | 2015 | 1 | winter | 5536 | 1 | 0 | 0 | 12.75 | 11.958333333333334 | 76.41666666666667 | 35.5 | broken clouds |
| 14 | 2015-01-10 | day | 2015 | 1 | winter | 10413 | 0 | 1 | 0 | 11.291666666666666 | 9.75 | 64.33333333333333 | 37.875 | broken clouds |
| 15 | 2015-01-10 | night | 2015 | 1 | winter | 4296 | 0 | 1 | 0 | 9.666666666666666 | 7.666666666666667 | 67.91666666666667 | 30.75 | clear |
| 16 | 2015-01-11 | day | 2015 | 1 | winter | 11504 | 0 | 1 | 0 | 7.083333333333333 | 3 | 63 | 26.333333333333332 | clear |
| 17 | 2015-01-11 | night | 2015 | 1 | winter | 3071 | 0 | 1 | 0 | 6.208333333333333 | 1.9166666666666667 | 72.16666666666667 | 26.791666666666668 | clear |
| 18 | 2015-01-12 | day | 2015 | 1 | winter | 13005 | 1 | 0 | 0 | 11.458333333333334 | 10.541666666666666 | 76.83333333333333 | 29.833333333333332 | rain |
| 19 | 2015-01-12 | night | 2015 | 1 | winter | 4194 | 1 | 0 | 0 | 10.791666666666666 | 8.958333333333334 | 76.33333333333333 | 26.541666666666668 | rain |
| 20 | 2015-01-13 | day | 2015 | 1 | winter | 17769 | 1 | 0 | 0 | 8.75 | 5.583333333333333 | 72 | 21.208333333333332 | scattered clouds |
| 21 | 2015-01-13 | night | 2015 | 1 | winter | 6928 | 1 | 0 | 0 | 8.458333333333334 | 6.583333333333333 | 79.625 | 21.208333333333332 | rain |
| 22 | 2015-01-14 | day | 2015 | 1 | winter | 17885 | 1 | 0 | 0 | 5.875 | 1.7916666666666667 | 63.375 | 24.083333333333332 | scattered clouds |
| 23 | 2015-01-14 | night | 2015 | 1 | winter | 5680 | 1 | 0 | 0 | 7.125 | 3.1666666666666665 | 70.875 | 27.416666666666668 | clear |
| 24 | 2015-01-15 | day | 2015 | 1 | winter | 16713 | 1 | 0 | 0 | 8.791666666666666 | 5.25 | 65.29166666666667 | 26.875 | scattered clouds |
| 25 | 2015-01-15 | night | 2015 | 1 | winter | 6255 | 1 | 0 | 0 | 8.875 | 6 | 67.625 | 35.458333333333336 | scattered clouds |
| 26 | 2015-01-16 | day | 2015 | 1 | winter | 16976 | 1 | 0 | 0 | 6.5 | 3.5 | 67.41666666666667 | 16.458333333333332 | scattered clouds |
| 27 | 2015-01-16 | night | 2015 | 1 | winter | 5687 | 1 | 0 | 0 | 5.083333333333333 | 1.5833333333333333 | 65.04166666666667 | 18.458333333333332 | clear |
| 28 | 2015-01-17 | day | 2015 | 1 | winter | 11131 | 0 | 1 | 0 | 4.458333333333333 | 1.0416666666666667 | 71.375 | 16.166666666666668 | clear |
| 29 | 2015-01-17 | night | 2015 | 1 | winter | 4137 | 0 | 1 | 0 | 3.125 | 0.08333333333333333 | 78.83333333333333 | 11 | clear |
| 30 | 2015-01-18 | day | 2015 | 1 | winter | 9729 | 0 | 1 | 0 | 3.8333333333333335 | 2.125 | 83.75 | 8.375 | scattered clouds |
| 31 | 2015-01-18 | night | 2015 | 1 | winter | 3470 | 0 | 1 | 0 | 2.9583333333333335 | 1.7083333333333333 | 84.91666666666667 | 5.583333333333333 | clear |
| 32 | 2015-01-19 | day | 2015 | 1 | winter | 16621 | 1 | 0 | 0 | 3.1666666666666665 | 1.4166666666666667 | 75.66666666666667 | 6.875 | scattered clouds |
| 33 | 2015-01-19 | night | 2015 | 1 | winter | 6413 | 1 | 0 | 0 | 1.6666666666666667 | 0.16666666666666666 | 84.33333333333333 | 5.5 | broken clouds |
| 34 | 2015-01-20 | day | 2015 | 1 | winter | 16804 | 1 | 0 | 0 | 2.1666666666666665 | -0.25 | 82.79166666666667 | 8.791666666666666 | clear |
| 35 | 2015-01-20 | night | 2015 | 1 | winter | 6443 | 1 | 0 | 0 | 1.9583333333333333 | -0.08333333333333333 | 81.125 | 9.541666666666666 | clear |
| 36 | 2015-01-21 | day | 2015 | 1 | winter | 16102 | 1 | 0 | 0 | 3.0416666666666665 | -0.875 | 86.5 | 16.916666666666668 | broken clouds |
| 37 | 2015-01-21 | night | 2015 | 1 | winter | 6680 | 1 | 0 | 0 | 3.0416666666666665 | 0.125 | 82.04166666666667 | 12.541666666666666 | cloudy |
| 38 | 2015-01-22 | day | 2015 | 1 | winter | 16816 | 1 | 0 | 0 | 3.5416666666666665 | 1.5416666666666667 | 68.625 | 8.916666666666666 | broken clouds |
| 39 | 2015-01-22 | night | 2015 | 1 | winter | 6462 | 1 | 0 | 0 | 1.625 | 0.5416666666666666 | 80.33333333333333 | 4.541666666666667 | clear |
| 40 | 2015-01-23 | day | 2015 | 1 | winter | 16728 | 1 | 0 | 0 | 2.5416666666666665 | -0.3333333333333333 | 74.875 | 11.75 | clear |
| 41 | 2015-01-23 | night | 2015 | 1 | winter | 5164 | 1 | 0 | 0 | 2.875 | 0.2916666666666667 | 83.95833333333333 | 13.083333333333334 | scattered clouds |
| 42 | 2015-01-24 | day | 2015 | 1 | winter | 13578 | 0 | 1 | 0 | 5.791666666666667 | 2.25 | 67.5 | 19.583333333333332 | clear |
| 43 | 2015-01-24 | night | 2015 | 1 | winter | 3961 | 0 | 1 | 0 | 5.625 | 2.4166666666666665 | 77.95833333333333 | 16.541666666666668 | clear |
| 44 | 2015-01-25 | day | 2015 | 1 | winter | 11290 | 0 | 1 | 0 | 5.958333333333333 | 2.7916666666666665 | 73.20833333333333 | 16.833333333333332 | broken clouds |
| 45 | 2015-01-25 | night | 2015 | 1 | winter | 3804 | 0 | 1 | 0 | 5.083333333333333 | 1.8333333333333333 | 81.54166666666667 | 15.5 | clear |
| 46 | 2015-01-26 | day | 2015 | 1 | winter | 16215 | 1 | 0 | 0 | 9.375 | 6.625 | 72.41666666666667 | 20.25 | scattered clouds |
| 47 | 2015-01-26 | night | 2015 | 1 | winter | 6495 | 1 | 0 | 0 | 7.75 | 4.833333333333333 | 78 | 17.666666666666668 | clear |
| 48 | 2015-01-27 | day | 2015 | 1 | winter | 17744 | 1 | 0 | 0 | 7.5 | 4.833333333333333 | 71.83333333333333 | 15.291666666666666 | broken clouds |
| 49 | 2015-01-27 | night | 2015 | 1 | winter | 7256 | 1 | 0 | 0 | 6.416666666666667 | 3.4583333333333335 | 72.91666666666667 | 15.291666666666666 | clear |
| 50 | 2015-01-28 | day | 2015 | 1 | winter | 14991 | 1 | 0 | 0 | 8.166666666666666 | 4.333333333333333 | 72.04166666666667 | 32.875 | rain |
| 51 | 2015-01-28 | night | 2015 | 1 | winter | 6545 | 1 | 0 | 0 | 5.791666666666667 | 1.5 | 70 | 25.416666666666668 | clear |
| 52 | 2015-01-29 | day | 2015 | 1 | winter | 15514 | 1 | 0 | 0 | 4.625 | -0.25 | 71.25 | 26.875 | scattered clouds |
| 53 | 2015-01-29 | night | 2015 | 1 | winter | 5761 | 1 | 0 | 0 | 2.9166666666666665 | -2.25 | 75.79166666666667 | 26.25 | scattered clouds |
| 54 | 2015-01-30 | day | 2015 | 1 | winter | 15551 | 1 | 0 | 0 | 4.25 | 0.5833333333333334 | 78.5 | 17 | broken clouds |
| 55 | 2015-01-30 | night | 2015 | 1 | winter | 5620 | 1 | 0 | 0 | 3.7083333333333335 | -0.20833333333333334 | 75.66666666666667 | 17.958333333333332 | clear |
| 56 | 2015-01-31 | day | 2015 | 1 | winter | 6485 | 0 | 1 | 0 | 3.625 | -0.4583333333333333 | 83.20833333333333 | 19 | rain |
| 57 | 2015-01-31 | night | 2015 | 1 | winter | 3765 | 0 | 1 | 0 | 3.2083333333333335 | -1.375 | 72.625 | 21.25 | clear |
| 58 | 2015-02-01 | day | 2015 | 2 | winter | 8281 | 0 | 1 | 0 | 4.75 | -0.125 | 64.20833333333333 | 28.458333333333332 | broken clouds |
| 59 | 2015-02-01 | night | 2015 | 2 | winter | 3024 | 0 | 1 | 0 | 2.8333333333333335 | -1.6666666666666667 | 69.79166666666667 | 21.083333333333332 | clear |
| 60 | 2015-02-02 | day | 2015 | 2 | winter | 15461 | 1 | 0 | 0 | 1.8333333333333333 | -2.0833333333333335 | 62.166666666666664 | 14.5 | clear |
| 61 | 2015-02-02 | night | 2015 | 2 | winter | 6179 | 1 | 0 | 0 | 0.6666666666666666 | -2.7083333333333335 | 67.54166666666667 | 10.75 | clear |
| 62 | 2015-02-03 | day | 2015 | 2 | winter | 14052 | 1 | 0 | 0 | 2.625 | -0.875 | 84.75 | 13.958333333333334 | broken clouds |
| 63 | 2015-02-03 | night | 2015 | 2 | winter | 5817 | 1 | 0 | 0 | 1.7083333333333333 | -1.2083333333333333 | 86.25 | 9.708333333333334 | snowfall |
| 64 | 2015-02-04 | day | 2015 | 2 | winter | 15655 | 1 | 0 | 0 | 3.375 | -0.2916666666666667 | 78.125 | 15.916666666666666 | broken clouds |
| 65 | 2015-02-04 | night | 2015 | 2 | winter | 6195 | 1 | 0 | 0 | 2.375 | -0.75 | 83.25 | 12.333333333333334 | broken clouds |
| 66 | 2015-02-05 | day | 2015 | 2 | winter | 14660 | 1 | 0 | 0 | 3.375 | -0.4583333333333333 | 77.54166666666667 | 16.708333333333332 | scattered clouds |
| 67 | 2015-02-05 | night | 2015 | 2 | winter | 6540 | 1 | 0 | 0 | 2.4166666666666665 | -1.375 | 78.66666666666667 | 15.333333333333334 | scattered clouds |
| 68 | 2015-02-06 | day | 2015 | 2 | winter | 15766 | 1 | 0 | 0 | 3.625 | -0.9583333333333334 | 64.875 | 22.25 | scattered clouds |
| 69 | 2015-02-06 | night | 2015 | 2 | winter | 5189 | 1 | 0 | 0 | 1.75 | -2.375 | 74.83333333333333 | 16.291666666666668 | clear |
| 70 | 2015-02-07 | day | 2015 | 2 | winter | 9393 | 0 | 1 | 0 | 4.333333333333333 | 1.75 | 81.95833333333333 | 11.75 | broken clouds |
| 71 | 2015-02-07 | night | 2015 | 2 | winter | 3756 | 0 | 1 | 0 | 3.1666666666666665 | 0.2916666666666667 | 84.08333333333333 | 10.875 | clear |
| 72 | 2015-02-08 | day | 2015 | 2 | winter | 12248 | 0 | 1 | 0 | 6.125 | 4.083333333333333 | 73 | 9.666666666666666 | scattered clouds |
| 73 | 2015-02-08 | night | 2015 | 2 | winter | 3530 | 0 | 1 | 0 | 4.75 | 2.2083333333333335 | 79.41666666666667 | 10.833333333333334 | clear |
| 74 | 2015-02-09 | day | 2015 | 2 | winter | 17346 | 1 | 0 | 0 | 7.166666666666667 | 5.291666666666667 | 75.58333333333333 | 9.75 | scattered clouds |
| 75 | 2015-02-09 | night | 2015 | 2 | winter | 6512 | 1 | 0 | 0 | 4.25 | 2.4166666666666665 | 87.29166666666667 | 8.666666666666666 | scattered clouds |
| 76 | 2015-02-10 | day | 2015 | 2 | winter | 17518 | 1 | 0 | 0 | 6.125 | 5.083333333333333 | 74.875 | 6 | cloudy |
| 77 | 2015-02-10 | night | 2015 | 2 | winter | 6041 | 1 | 0 | 0 | 4.818181818181818 | 3.590909090909091 | 84.77272727272727 | 7 | cloudy |
| 78 | 2015-02-11 | day | 2015 | 2 | winter | 16813 | 1 | 0 | 0 | 5.083333333333333 | 3.5416666666666665 | 77.25 | 6.5 | broken clouds |
| 79 | 2015-02-11 | night | 2015 | 2 | winter | 6867 | 1 | 0 | 0 | 5 | 2.7916666666666665 | 77.625 | 8.791666666666666 | cloudy |
| 80 | 2015-02-12 | day | 2015 | 2 | winter | 16476 | 1 | 0 | 0 | 4.166666666666667 | 2.75 | 71.95833333333333 | 7 | NA |
| 81 | 2015-02-12 | night | 2015 | 2 | winter | 6751 | 1 | 0 | 0 | 3.7916666666666665 | 2 | 74.29166666666667 | 7.416666666666667 | cloudy |
| 82 | 2015-02-13 | day | 2015 | 2 | winter | 13810 | 1 | 0 | 0 | 8.041666666666666 | 4.875 | 82.41666666666667 | 20.75 | broken clouds |
| 83 | 2015-02-13 | night | 2015 | 2 | winter | 3889 | 1 | 0 | 0 | 5.916666666666667 | 3.1666666666666665 | 86.66666666666667 | 14.875 | rain |
| 84 | 2015-02-14 | day | 2015 | 2 | winter | 10740 | 0 | 1 | 0 | 7.5 | 5.166666666666667 | 88.83333333333333 | 13.208333333333334 | broken clouds |
| 85 | 2015-02-14 | night | 2015 | 2 | winter | 3683 | 0 | 1 | 0 | 7.125 | 5.041666666666667 | 88.54166666666667 | 11.541666666666666 | rain |
| 86 | 2015-02-15 | day | 2015 | 2 | winter | 12962 | 0 | 1 | 0 | 7.708333333333333 | 6.666666666666667 | 81 | 6.958333333333333 | broken clouds |
| 87 | 2015-02-15 | night | 2015 | 2 | winter | 3990 | 0 | 1 | 0 | 5.666666666666667 | 4 | 91.33333333333333 | 7.708333333333333 | scattered clouds |
| 88 | 2015-02-16 | day | 2015 | 2 | winter | 12724 | 1 | 0 | 0 | 7.416666666666667 | 5.708333333333333 | 85.20833333333333 | 9.666666666666666 | scattered clouds |
| 89 | 2015-02-16 | night | 2015 | 2 | winter | 3657 | 1 | 0 | 0 | 4.666666666666667 | 2.4166666666666665 | 94.20833333333333 | 9.833333333333334 | rain |
| 90 | 2015-02-17 | day | 2015 | 2 | winter | 18205 | 1 | 0 | 0 | 6.625 | 4.083333333333333 | 64.25 | 13.708333333333334 | clear |
| 91 | 2015-02-17 | night | 2015 | 2 | winter | 6859 | 1 | 0 | 0 | 5.083333333333333 | 2.875 | 73.16666666666667 | 10.666666666666666 | scattered clouds |
| 92 | 2015-02-18 | day | 2015 | 2 | winter | 18367 | 1 | 0 | 0 | 7.666666666666667 | 5.083333333333333 | 65.33333333333333 | 16.833333333333332 | clear |
| 93 | 2015-02-18 | night | 2015 | 2 | winter | 6765 | 1 | 0 | 0 | 5.125 | 2.375 | 77.20833333333333 | 13.5 | clear |
| 94 | 2015-02-19 | day | 2015 | 2 | winter | 13141 | 1 | 0 | 0 | 7.75 | 4.166666666666667 | 79.54166666666667 | 24.041666666666668 | rain |
| 95 | 2015-02-19 | night | 2015 | 2 | winter | 3757 | 1 | 0 | 0 | 6.791666666666667 | 3.625 | 83.45833333333333 | 18.208333333333332 | rain |
| 96 | 2015-02-20 | day | 2015 | 2 | winter | 15457 | 1 | 0 | 0 | 6.875 | 5.5 | 77.79166666666667 | 7.625 | scattered clouds |
| 97 | 2015-02-20 | night | 2015 | 2 | winter | 5258 | 1 | 0 | 0 | 6.416666666666667 | 4.125 | 84.875 | 11.208333333333334 | rain |
| 98 | 2015-02-21 | day | 2015 | 2 | winter | 12068 | 0 | 1 | 0 | 5.333333333333333 | 2 | 73.54166666666667 | 17.583333333333332 | broken clouds |
| 99 | 2015-02-21 | night | 2015 | 2 | winter | 4130 | 0 | 1 | 0 | 4.291666666666667 | 1.25 | 79.125 | 14.833333333333334 | clear |
| 100 | 2015-02-22 | day | 2015 | 2 | winter | 6870 | 0 | 1 | 0 | 5.25 | 1.4166666666666667 | 75.66666666666667 | 21.208333333333332 | clear |
| 101 | 2015-02-22 | night | 2015 | 2 | winter | 2216 | 0 | 1 | 0 | 5 | 1.4166666666666667 | 86.16666666666667 | 21.291666666666668 | clear |
| 102 | 2015-02-23 | day | 2015 | 2 | winter | 15859 | 1 | 0 | 0 | 7.25 | 3.1666666666666665 | 62.458333333333336 | 27.75 | NA |
| 103 | 2015-02-23 | night | 2015 | 2 | winter | 5905 | 1 | 0 | 0 | 6.625 | 2.7083333333333335 | 71.25 | 24 | clear |
| 104 | 2015-02-24 | day | 2015 | 2 | winter | 17289 | 1 | 0 | 0 | 8 | 4.041666666666667 | 61.833333333333336 | 28.416666666666668 | NA |
| 105 | 2015-02-24 | night | 2015 | 2 | winter | 6399 | 1 | 0 | 0 | 6.375 | 2.25 | 70.45833333333333 | 25.583333333333332 | scattered clouds |
| 106 | 2015-02-25 | day | 2015 | 2 | winter | 14934 | 1 | 0 | 0 | 9.583333333333334 | 8.166666666666666 | 77.5 | 12.208333333333334 | broken clouds |
| 107 | 2015-02-25 | night | 2015 | 2 | winter | 6658 | 1 | 0 | 0 | 8.583333333333334 | 7.166666666666667 | 77.125 | 10 | scattered clouds |
| 108 | 2015-02-26 | day | 2015 | 2 | winter | 13815 | 1 | 0 | 0 | 10.208333333333334 | 8.875 | 86.04166666666667 | 18.958333333333332 | broken clouds |
| 109 | 2015-02-26 | night | 2015 | 2 | winter | 6221 | 1 | 0 | 0 | 8.291666666666666 | 6 | 77.41666666666667 | 14.875 | clear |
| 110 | 2015-02-27 | day | 2015 | 2 | winter | 18460 | 1 | 0 | 0 | 6.708333333333333 | 4 | 60.833333333333336 | 14.875 | scattered clouds |
| 111 | 2015-02-27 | night | 2015 | 2 | winter | 5907 | 1 | 0 | 0 | 5.166666666666667 | 2.2083333333333335 | 71.70833333333333 | 13.75 | clear |
| 112 | 2015-02-28 | day | 2015 | 2 | winter | 10059 | 0 | 1 | 0 | 8.75 | 5.583333333333333 | 86.16666666666667 | 24.166666666666668 | broken clouds |
| 113 | 2015-02-28 | night | 2015 | 2 | winter | 3470 | 0 | 1 | 0 | 8.625 | 5.916666666666667 | 81 | 22 | cloudy |
| 114 | 2015-03-01 | day | 2015 | 3 | spring | 12701 | 0 | 1 | 0 | 9.833333333333334 | 7.291666666666667 | 59.958333333333336 | 31.291666666666668 | scattered clouds |
| 115 | 2015-03-01 | night | 2015 | 3 | spring | 2940 | 0 | 1 | 0 | 8.541666666666666 | 5.541666666666667 | 73.41666666666667 | 27.875 | scattered clouds |
| 116 | 2015-03-02 | day | 2015 | 3 | spring | 16148 | 1 | 0 | 0 | 7.166666666666667 | 2.6666666666666665 | 54.041666666666664 | 34.25 | scattered clouds |
| 117 | 2015-03-02 | night | 2015 | 3 | spring | 6110 | 1 | 0 | 0 | 4.958333333333333 | 0.7916666666666666 | 71.58333333333333 | 22.375 | clear |
| 118 | 2015-03-03 | day | 2015 | 3 | spring | 17411 | 1 | 0 | 0 | 7.708333333333333 | 4.041666666666667 | 61.25 | 25.166666666666668 | scattered clouds |
| 119 | 2015-03-03 | night | 2015 | 3 | spring | 6434 | 1 | 0 | 0 | 5.458333333333333 | 1.6666666666666667 | 67.125 | 20.916666666666668 | clear |
| 120 | 2015-03-04 | day | 2015 | 3 | spring | 17757 | 1 | 0 | 0 | 7.666666666666667 | 4.083333333333333 | 59.75 | 23.875 | scattered clouds |
| 121 | 2015-03-04 | night | 2015 | 3 | spring | 6728 | 1 | 0 | 0 | 5.708333333333333 | 2.4583333333333335 | 69.58333333333333 | 16.541666666666668 | clear |
| 122 | 2015-03-05 | day | 2015 | 3 | spring | 18221 | 1 | 0 | 0 | 8.5 | 6.791666666666667 | 62.041666666666664 | 17.083333333333332 | scattered clouds |
| 123 | 2015-03-05 | night | 2015 | 3 | spring | 6675 | 1 | 0 | 0 | 6.5 | 3.625 | 68.5 | 16.291666666666668 | clear |
| 124 | 2015-03-06 | day | 2015 | 3 | spring | 19262 | 1 | 0 | 0 | 10.166666666666666 | 9.041666666666666 | 60.625 | 19.541666666666668 | clear |
| 125 | 2015-03-06 | night | 2015 | 3 | spring | 6075 | 1 | 0 | 0 | 8.041666666666666 | 5.333333333333333 | 65.95833333333333 | 15.5 | clear |
| 126 | 2015-03-07 | day | 2015 | 3 | spring | 21984 | 0 | 1 | 0 | 12.875 | 12.125 | 56.708333333333336 | 22.291666666666668 | clear |
| 127 | 2015-03-07 | night | 2015 | 3 | spring | 5381 | 0 | 1 | 0 | 9.208333333333334 | 7.166666666666667 | 71.91666666666667 | 14.5 | clear |
| 128 | 2015-03-08 | day | 2015 | 3 | spring | 15443 | 0 | 1 | 0 | 11.416666666666666 | 10.708333333333334 | 74.83333333333333 | 18.791666666666668 | scattered clouds |
| 129 | 2015-03-08 | night | 2015 | 3 | spring | 4574 | 0 | 1 | 0 | 8.666666666666666 | 7.375 | 82.875 | 9.666666666666666 | scattered clouds |
| 130 | 2015-03-09 | day | 2015 | 3 | spring | 17555 | 1 | 0 | 0 | 8.75 | 6.25 | 80.66666666666667 | 16.583333333333332 | broken clouds |
| 131 | 2015-03-09 | night | 2015 | 3 | spring | 6482 | 1 | 0 | 0 | 7.958333333333333 | 6.583333333333333 | 85 | 12.041666666666666 | clear |
| 132 | 2015-03-10 | day | 2015 | 3 | spring | 20304 | 1 | 0 | 0 | 9.916666666666666 | 8.916666666666666 | 56.541666666666664 | 9.041666666666666 | clear |
| 133 | 2015-03-10 | night | 2015 | 3 | spring | 7370 | 1 | 0 | 0 | 7.916666666666667 | 5.875 | 74.375 | 12.208333333333334 | clear |
| 134 | 2015-03-11 | day | 2015 | 3 | spring | 19851 | 1 | 0 | 0 | 10.166666666666666 | 9.125 | 65.70833333333333 | 14.833333333333334 | clear |
| 135 | 2015-03-11 | night | 2015 | 3 | spring | 7568 | 1 | 0 | 0 | 7.333333333333333 | 6.083333333333333 | 81.75 | 7.625 | clear |
| 136 | 2015-03-12 | day | 2015 | 3 | spring | 20604 | 1 | 0 | 0 | 11.208333333333334 | 10.791666666666666 | 46.291666666666664 | 17.125 | clear |
| 137 | 2015-03-12 | night | 2015 | 3 | spring | 7527 | 1 | 0 | 0 | 8.791666666666666 | 7.125 | 66.125 | 10.041666666666666 | clear |
| 138 | 2015-03-13 | day | 2015 | 3 | spring | 19205 | 1 | 0 | 0 | 9.833333333333334 | 8.708333333333334 | 54.125 | 21 | clear |
| 139 | 2015-03-13 | night | 2015 | 3 | spring | 6495 | 1 | 0 | 0 | 7.166666666666667 | 4.541666666666667 | 68.41666666666667 | 14.541666666666666 | clear |
| 140 | 2015-03-14 | day | 2015 | 3 | spring | 13610 | 0 | 1 | 0 | 7.166666666666667 | 3.9166666666666665 | 62.791666666666664 | 19.875 | scattered clouds |
| 141 | 2015-03-14 | night | 2015 | 3 | spring | 4491 | 0 | 1 | 0 | 5.125 | 2 | 71.16666666666667 | 16.041666666666668 | cloudy |
| 142 | 2015-03-15 | day | 2015 | 3 | spring | 7390 | 0 | 1 | 0 | 6.666666666666667 | 3.5833333333333335 | 79.83333333333333 | 17.625 | rain |
| 143 | 2015-03-15 | night | 2015 | 3 | spring | 3272 | 0 | 1 | 0 | 5.958333333333333 | 3.0416666666666665 | 84.58333333333333 | 15 | rain |
| 144 | 2015-03-16 | day | 2015 | 3 | spring | 13623 | 1 | 0 | 0 | 7.75 | 4.916666666666667 | 76.75 | 16.708333333333332 | broken clouds |
| 145 | 2015-03-16 | night | 2015 | 3 | spring | 6201 | 1 | 0 | 0 | 6.25 | 4.125 | 86.79166666666667 | 10.666666666666666 | rain |
| 146 | 2015-03-17 | day | 2015 | 3 | spring | 18537 | 1 | 0 | 0 | 9.333333333333334 | 8.583333333333334 | 82.83333333333333 | 9.708333333333334 | scattered clouds |
| 147 | 2015-03-17 | night | 2015 | 3 | spring | 7243 | 1 | 0 | 0 | 7.625 | 5.75 | 88.91666666666667 | 10.708333333333334 | rain |
| 148 | 2015-03-18 | day | 2015 | 3 | spring | 19280 | 1 | 0 | 0 | 7.25 | 4.541666666666667 | 76.83333333333333 | 14.25 | scattered clouds |
| 149 | 2015-03-18 | night | 2015 | 3 | spring | 7159 | 1 | 0 | 0 | 6.541666666666667 | 4.625 | 83.29166666666667 | 10.166666666666666 | NA |
| 150 | 2015-03-19 | day | 2015 | 3 | spring | 17401 | 1 | 0 | 0 | 7.458333333333333 | 4.666666666666667 | 78.95833333333333 | 16 | broken clouds |
| 151 | 2015-03-19 | night | 2015 | 3 | spring | 6676 | 1 | 0 | 0 | 7.041666666666667 | 4.416666666666667 | 79.33333333333333 | 14.166666666666666 | cloudy |
| 152 | 2015-03-20 | day | 2015 | 3 | spring | 18962 | 1 | 0 | 0 | 7.458333333333333 | 6.291666666666667 | 76.16666666666667 | 7.333333333333333 | broken clouds |
| 153 | 2015-03-20 | night | 2015 | 3 | spring | 6264 | 1 | 0 | 0 | 7.625 | 5.375 | 74.79166666666667 | 12.375 | cloudy |
| 154 | 2015-03-21 | day | 2015 | 3 | spring | 11615 | 0 | 1 | 0 | 7.875 | 4.916666666666667 | 67.41666666666667 | 19.083333333333332 | broken clouds |
| 155 | 2015-03-21 | night | 2015 | 3 | spring | 4501 | 0 | 1 | 0 | 7.375 | 4.875 | 76.66666666666667 | 13.875 | broken clouds |
| 156 | 2015-03-22 | day | 2015 | 3 | spring | 14319 | 0 | 1 | 0 | 6.583333333333333 | 4.041666666666667 | 64.16666666666667 | 13.75 | NA |
| 157 | 2015-03-22 | night | 2015 | 3 | spring | 4299 | 0 | 1 | 0 | 5.125 | 2.625 | 71.29166666666667 | 11.041666666666666 | broken clouds |
| 158 | 2015-03-23 | day | 2015 | 3 | spring | 18723 | 1 | 0 | 0 | 9.5 | 8.083333333333334 | 57.041666666666664 | 14.833333333333334 | scattered clouds |
| 159 | 2015-03-23 | night | 2015 | 3 | spring | 6869 | 1 | 0 | 0 | 6.5 | 4.875 | 75.29166666666667 | 9 | cloudy |
| 160 | 2015-03-24 | day | 2015 | 3 | spring | 18036 | 1 | 0 | 0 | 8 | 6.541666666666667 | 64.83333333333333 | 8.791666666666666 | scattered clouds |
| 161 | 2015-03-24 | night | 2015 | 3 | spring | 6047 | 1 | 0 | 0 | 7.083333333333333 | 5.291666666666667 | 74.79166666666667 | 9.916666666666666 | rain |
| 162 | 2015-03-25 | day | 2015 | 3 | spring | 18528 | 1 | 0 | 0 | 7.125 | 5.583333333333333 | 63.625 | 8.791666666666666 | scattered clouds |
| 163 | 2015-03-25 | night | 2015 | 3 | spring | 7144 | 1 | 0 | 0 | 5.291666666666667 | 3.7083333333333335 | 70.54166666666667 | 7.083333333333333 | clear |
| 164 | 2015-03-26 | day | 2015 | 3 | spring | 13672 | 1 | 0 | 0 | 9.333333333333334 | 7.625 | 73.25 | 23.708333333333332 | broken clouds |
| 165 | 2015-03-26 | night | 2015 | 3 | spring | 6633 | 1 | 0 | 0 | 7.5 | 4.75 | 67.5 | 17.958333333333332 | NA |
| 166 | 2015-03-27 | day | 2015 | 3 | spring | 19664 | 1 | 0 | 0 | 9.958333333333334 | 8.625 | 52.083333333333336 | 15.208333333333334 | clear |
| 167 | 2015-03-27 | night | 2015 | 3 | spring | 6684 | 1 | 0 | 0 | 7.708333333333333 | 5.208333333333333 | 68.91666666666667 | 16.25 | NA |
| 168 | 2015-03-28 | day | 2015 | 3 | spring | 13544 | 0 | 1 | 0 | 12.666666666666666 | 12.541666666666666 | 80.66666666666667 | 26.458333333333332 | broken clouds |
| 169 | 2015-03-28 | night | 2015 | 3 | spring | 5442 | 0 | 1 | 0 | 10.458333333333334 | 9.75 | 79.58333333333333 | 19.333333333333332 | broken clouds |
| 170 | 2015-03-29 | day | 2015 | 3 | spring | 5349 | 0 | 1 | 0 | 12.166666666666666 | 11.791666666666666 | 79.29166666666667 | 32.958333333333336 | rain |
| 171 | 2015-03-29 | night | 2015 | 3 | spring | 3243 | 0 | 1 | 0 | 10.363636363636363 | 8.227272727272727 | 75.43181818181819 | 28.386363636363637 | rain |
| 172 | 2015-03-30 | day | 2015 | 3 | spring | 16875 | 1 | 0 | 0 | 9.541666666666666 | 7.416666666666667 | 52.291666666666664 | 24.958333333333332 | scattered clouds |
| 173 | 2015-03-30 | night | 2015 | 3 | spring | 5231 | 1 | 0 | 0 | 9.708333333333334 | 7.375 | 76.83333333333333 | 27.708333333333332 | scattered clouds |
| 174 | 2015-03-31 | day | 2015 | 3 | spring | 16286 | 1 | 0 | 0 | 11.625 | 11.416666666666666 | 50 | 45.916666666666664 | scattered clouds |
| 175 | 2015-03-31 | night | 2015 | 3 | spring | 6316 | 1 | 0 | 0 | 9.6875 | 7.125 | 62.875 | 35.875 | broken clouds |
| 176 | 2015-04-01 | day | 2015 | 4 | spring | 17196 | 1 | 0 | 0 | 9.208333333333334 | 6.166666666666667 | 53.041666666666664 | 33.75 | scattered clouds |
| 177 | 2015-04-01 | night | 2015 | 4 | spring | 6343 | 1 | 0 | 0 | 7.791666666666667 | 3.7083333333333335 | 66.66666666666667 | 29.666666666666668 | clear |
| 178 | 2015-04-02 | day | 2015 | 4 | spring | 16554 | 1 | 0 | 0 | 8.791666666666666 | 7.333333333333333 | 59.208333333333336 | 10.625 | scattered clouds |
| 179 | 2015-04-02 | night | 2015 | 4 | spring | 6128 | 1 | 0 | 0 | 9.333333333333334 | 6.916666666666667 | 73.5 | 19 | rain |
| 180 | 2015-04-03 | day | 2015 | 4 | spring | 8458 | 0 | 0 | 1 | 10.041666666666666 | 9.666666666666666 | 85.95833333333333 | 6.458333333333333 | broken clouds |
| 181 | 2015-04-03 | night | 2015 | 4 | spring | 2840 | 0 | 0 | 1 | 8.75 | 7.5 | 90.20833333333333 | 9.375 | rain |
| 182 | 2015-04-04 | day | 2015 | 4 | spring | 8575 | 0 | 1 | 0 | 8.818181818181818 | 6.136363636363637 | 74.54545454545455 | 17.40909090909091 | broken clouds |
| 183 | 2015-04-04 | night | 2015 | 4 | spring | 4289 | 0 | 1 | 0 | 8.916666666666666 | 7.833333333333333 | 80.58333333333333 | 7.541666666666667 | rain |
| 184 | 2015-04-05 | day | 2015 | 4 | spring | 13847 | 0 | 1 | 0 | 9.708333333333334 | 9.25 | 68.125 | 8.125 | broken clouds |
| 185 | 2015-04-05 | night | 2015 | 4 | spring | 5522 | 0 | 1 | 0 | 7.875 | 7.291666666666667 | 74.125 | 5.916666666666667 | clear |
| 186 | 2015-04-06 | day | 2015 | 4 | spring | 20284 | 0 | 0 | 1 | 11.125 | 10.166666666666666 | 72.08333333333333 | 15.333333333333334 | scattered clouds |
| 187 | 2015-04-06 | night | 2015 | 4 | spring | 5155 | 0 | 0 | 1 | 7.375 | 5.375 | 75.08333333333333 | 11.375 | clear |
| 188 | 2015-04-07 | day | 2015 | 4 | spring | 20498 | 1 | 0 | 0 | 12.541666666666666 | 12.458333333333334 | 61 | 6.291666666666667 | clear |
| 189 | 2015-04-07 | night | 2015 | 4 | spring | 8943 | 1 | 0 | 0 | 9.625 | 9.375 | 75.125 | 6.916666666666667 | clear |
| 190 | 2015-04-08 | day | 2015 | 4 | spring | 21528 | 1 | 0 | 0 | 13.125 | 13.083333333333334 | 69.875 | 11.458333333333334 | clear |
| 191 | 2015-04-08 | night | 2015 | 4 | spring | 9115 | 1 | 0 | 0 | 10.375 | 9.666666666666666 | 78.04166666666667 | 10.583333333333334 | clear |
| 192 | 2015-04-09 | day | 2015 | 4 | spring | 21971 | 1 | 0 | 0 | 11.625 | 10.833333333333334 | 74.33333333333333 | 9.625 | NA |
| 193 | 2015-04-09 | night | 2015 | 4 | spring | 9549 | 1 | 0 | 0 | 9.375 | 8.291666666666666 | 84.29166666666667 | 11.5 | NA |
| 194 | 2015-04-10 | day | 2015 | 4 | spring | 22722 | 1 | 0 | 0 | 14.333333333333334 | 13.791666666666666 | 65.20833333333333 | 14.166666666666666 | clear |
| 195 | 2015-04-10 | night | 2015 | 4 | spring | 9330 | 1 | 0 | 0 | 11.75 | 11.291666666666666 | 70.79166666666667 | 9.666666666666666 | clear |
| 196 | 2015-04-11 | day | 2015 | 4 | spring | 16914 | 0 | 1 | 0 | 12.166666666666666 | 11.916666666666666 | 57.958333333333336 | 25.208333333333332 | scattered clouds |
| 197 | 2015-04-11 | night | 2015 | 4 | spring | 8199 | 0 | 1 | 0 | 11.083333333333334 | 10.333333333333334 | 59.875 | 18.166666666666668 | clear |
| 198 | 2015-04-12 | day | 2015 | 4 | spring | 22360 | 0 | 1 | 0 | 13.333333333333334 | 12.666666666666666 | 54.541666666666664 | 25.583333333333332 | clear |
| 199 | 2015-04-12 | night | 2015 | 4 | spring | 6844 | 0 | 1 | 0 | 10.25 | 9.166666666666666 | 62.75 | 14.833333333333334 | clear |
| 200 | 2015-04-13 | day | 2015 | 4 | spring | 19218 | 1 | 0 | 0 | 12.333333333333334 | 11.958333333333334 | 66.29166666666667 | 9.708333333333334 | broken clouds |
| 201 | 2015-04-13 | night | 2015 | 4 | spring | 8830 | 1 | 0 | 0 | 10.875 | 10.375 | 71.25 | 9.75 | cloudy |
| 202 | 2015-04-14 | day | 2015 | 4 | spring | 24019 | 1 | 0 | 0 | 17.416666666666668 | 16.708333333333332 | 53.958333333333336 | 21.875 | clear |
| 203 | 2015-04-14 | night | 2015 | 4 | spring | 10500 | 1 | 0 | 0 | 13.875 | 13.083333333333334 | 67.58333333333333 | 12.458333333333334 | clear |
| 204 | 2015-04-15 | day | 2015 | 4 | spring | 25640 | 1 | 0 | 0 | 20.291666666666668 | 19.75 | 43 | 14 | clear |
| 205 | 2015-04-15 | night | 2015 | 4 | spring | 11830 | 1 | 0 | 0 | 14.791666666666666 | 14.666666666666666 | 60.791666666666664 | 14.125 | clear |
| 206 | 2015-04-16 | day | 2015 | 4 | spring | 22216 | 1 | 0 | 0 | 13.041666666666666 | 12.75 | 61.958333333333336 | 21.916666666666668 | clear |
| 207 | 2015-04-16 | night | 2015 | 4 | spring | 8273 | 1 | 0 | 0 | 10.333333333333334 | 9.041666666666666 | 71.95833333333333 | 17.333333333333332 | clear |
| 208 | 2015-04-17 | day | 2015 | 4 | spring | 21928 | 1 | 0 | 0 | 11.666666666666666 | 10.916666666666666 | 56.125 | 26.916666666666668 | clear |
| 209 | 2015-04-17 | night | 2015 | 4 | spring | 7868 | 1 | 0 | 0 | 9.5 | 6.916666666666667 | 71.125 | 20.375 | clear |
| 210 | 2015-04-18 | day | 2015 | 4 | spring | 22034 | 0 | 1 | 0 | 10.916666666666666 | 10.041666666666666 | 59.875 | 25.916666666666668 | scattered clouds |
| 211 | 2015-04-18 | night | 2015 | 4 | spring | 7561 | 0 | 1 | 0 | 8.375 | 6.25 | 67.875 | 19.25 | broken clouds |
| 212 | 2015-04-19 | day | 2015 | 4 | spring | 14074 | 0 | 1 | 0 | 8.916666666666666 | 7.083333333333333 | 62.25 | 12.208333333333334 | broken clouds |
| 213 | 2015-04-19 | night | 2015 | 4 | spring | 5662 | 0 | 1 | 0 | 7.916666666666667 | 6.25 | 73.375 | 11 | cloudy |
| 214 | 2015-04-20 | day | 2015 | 4 | spring | 22658 | 1 | 0 | 0 | 13.416666666666666 | 13.125 | 55.208333333333336 | 16.583333333333332 | clear |
| 215 | 2015-04-20 | night | 2015 | 4 | spring | 9399 | 1 | 0 | 0 | 8.708333333333334 | 7.75 | 73.66666666666667 | 11.125 | clear |
| 216 | 2015-04-21 | day | 2015 | 4 | spring | 24636 | 1 | 0 | 0 | 13.583333333333334 | 13.333333333333334 | 52.083333333333336 | 14.041666666666666 | clear |
| 217 | 2015-04-21 | night | 2015 | 4 | spring | 10272 | 1 | 0 | 0 | 9.166666666666666 | 8.375 | 71.125 | 11.458333333333334 | clear |
| 218 | 2015-04-22 | day | 2015 | 4 | spring | 22978 | 1 | 0 | 0 | 11.708333333333334 | 11.208333333333334 | 68.20833333333333 | 21.375 | broken clouds |
| 219 | 2015-04-22 | night | 2015 | 4 | spring | 9403 | 1 | 0 | 0 | 9.083333333333334 | 7.75 | 76.75 | 12.333333333333334 | clear |
| 220 | 2015-04-23 | day | 2015 | 4 | spring | 22735 | 1 | 0 | 0 | 11.375 | 10.5 | 64.5 | 11.25 | broken clouds |
| 221 | 2015-04-23 | night | 2015 | 4 | spring | 10038 | 1 | 0 | 0 | 9.416666666666666 | 7.541666666666667 | 78.83333333333333 | 15.166666666666666 | clear |
| 222 | 2015-04-24 | day | 2015 | 4 | spring | 23351 | 1 | 0 | 0 | 14.791666666666666 | 14.5 | 59.833333333333336 | 16.083333333333332 | clear |
| 223 | 2015-04-24 | night | 2015 | 4 | spring | 8751 | 1 | 0 | 0 | 11.25 | 10.875 | 77.45833333333333 | 12.25 | clear |
| 224 | 2015-04-25 | day | 2015 | 4 | spring | 18074 | 0 | 1 | 0 | 15.041666666666666 | 15.041666666666666 | 69.70833333333333 | 20.25 | broken clouds |
| 225 | 2015-04-25 | night | 2015 | 4 | spring | 7120 | 0 | 1 | 0 | 13.25 | 13.25 | 80.58333333333333 | 16.541666666666668 | rain |
| 226 | 2015-04-26 | day | 2015 | 4 | spring | 13642 | 0 | 1 | 0 | 9.166666666666666 | 7.333333333333333 | 83.16666666666667 | 12.833333333333334 | broken clouds |
| 227 | 2015-04-26 | night | 2015 | 4 | spring | 5785 | 0 | 1 | 0 | 10.125 | 9.25 | 83.5 | 9.541666666666666 | clear |
| 228 | 2015-04-27 | day | 2015 | 4 | spring | 21788 | 1 | 0 | 0 | 9.875 | 9.375 | 51.791666666666664 | 6.916666666666667 | clear |
| 229 | 2015-04-27 | night | 2015 | 4 | spring | 8701 | 1 | 0 | 0 | 8.666666666666666 | 7.375 | 59.375 | 14.041666666666666 | clear |
| 230 | 2015-04-28 | day | 2015 | 4 | spring | 22659 | 1 | 0 | 0 | 10.791666666666666 | 9.416666666666666 | 43.125 | 26.083333333333332 | clear |
| 231 | 2015-04-28 | night | 2015 | 4 | spring | 9124 | 1 | 0 | 0 | 8.625 | 6.333333333333333 | 63.833333333333336 | 20 | clear |
| 232 | 2015-04-29 | day | 2015 | 4 | spring | 17014 | 1 | 0 | 0 | 10.458333333333334 | 8.708333333333334 | 74.41666666666667 | 20.958333333333332 | rain |
| 233 | 2015-04-29 | night | 2015 | 4 | spring | 9016 | 1 | 0 | 0 | 9.25 | 7.291666666666667 | 68.20833333333333 | 16.333333333333332 | clear |
| 234 | 2015-04-30 | day | 2015 | 4 | spring | 22222 | 1 | 0 | 0 | 12.333333333333334 | 11.583333333333334 | 51.166666666666664 | 21.833333333333332 | clear |
| 235 | 2015-04-30 | night | 2015 | 4 | spring | 9399 | 1 | 0 | 0 | 9.166666666666666 | 7.291666666666667 | 64.33333333333333 | 14.75 | clear |
| 236 | 2015-05-01 | day | 2015 | 5 | spring | 22257 | 1 | 0 | 0 | 10.083333333333334 | 8.75 | 59.041666666666664 | 22.5 | scattered clouds |
| 237 | 2015-05-01 | night | 2015 | 5 | spring | 7322 | 1 | 0 | 0 | 8.083333333333334 | 5.708333333333333 | 69.45833333333333 | 15.25 | clear |
| 238 | 2015-05-02 | day | 2015 | 5 | spring | 16258 | 0 | 1 | 0 | 10.666666666666666 | 9.583333333333334 | 70.875 | 24.291666666666668 | scattered clouds |
| 239 | 2015-05-02 | night | 2015 | 5 | spring | 5973 | 0 | 1 | 0 | 8.833333333333334 | 7.291666666666667 | 78.16666666666667 | 17.833333333333332 | clear |
| 240 | 2015-05-03 | day | 2015 | 5 | spring | 13734 | 0 | 1 | 0 | 15.875 | 15.875 | 78.79166666666667 | 21.958333333333332 | broken clouds |
| 241 | 2015-05-03 | night | 2015 | 5 | spring | 7431 | 0 | 1 | 0 | 13.25 | 13.125 | 81.95833333333333 | 21.541666666666668 | broken clouds |
| 242 | 2015-05-04 | day | 2015 | 5 | spring | 21849 | 0 | 0 | 1 | 15.666666666666666 | 15.666666666666666 | 55.625 | 16.916666666666668 | scattered clouds |
| 243 | 2015-05-04 | night | 2015 | 5 | spring | 4946 | 0 | 0 | 1 | 13.541666666666666 | 13.541666666666666 | 78.79166666666667 | 20.708333333333332 | rain |
| 244 | 2015-05-05 | day | 2015 | 5 | spring | 18752 | 1 | 0 | 0 | 15.458333333333334 | 15.458333333333334 | 61.25 | 37.041666666666664 | scattered clouds |
| 245 | 2015-05-05 | night | 2015 | 5 | spring | 7736 | 1 | 0 | 0 | 13.833333333333334 | 13.833333333333334 | 77.45833333333333 | 25.041666666666668 | scattered clouds |
| 246 | 2015-05-06 | day | 2015 | 5 | spring | 16929 | 1 | 0 | 0 | 12.916666666666666 | 12.791666666666666 | 69.125 | 34.75 | rain |
| 247 | 2015-05-06 | night | 2015 | 5 | spring | 7509 | 1 | 0 | 0 | 12.083333333333334 | 11.708333333333334 | 71.95833333333333 | 29.583333333333332 | rain |
| 248 | 2015-05-07 | day | 2015 | 5 | spring | 21728 | 1 | 0 | 0 | 14.291666666666666 | 14.166666666666666 | 58.791666666666664 | 19.5 | scattered clouds |
| 249 | 2015-05-07 | night | 2015 | 5 | spring | 9416 | 1 | 0 | 0 | 12.041666666666666 | 12.041666666666666 | 65.83333333333333 | 19.75 | clear |
| 250 | 2015-05-08 | day | 2015 | 5 | spring | 19541 | 1 | 0 | 0 | 13.958333333333334 | 13.958333333333334 | 65.66666666666667 | 12.041666666666666 | clear |
| 251 | 2015-05-08 | night | 2015 | 5 | spring | 7337 | 1 | 0 | 0 | 12.208333333333334 | 12 | 76.66666666666667 | 12.166666666666666 | scattered clouds |
| 252 | 2015-05-09 | day | 2015 | 5 | spring | 18566 | 0 | 1 | 0 | 15.583333333333334 | 15.583333333333334 | 54.916666666666664 | 31.625 | broken clouds |
| 253 | 2015-05-09 | night | 2015 | 5 | spring | 9244 | 0 | 1 | 0 | 14.041666666666666 | 14.041666666666666 | 63.875 | 20.916666666666668 | scattered clouds |
| 254 | 2015-05-10 | day | 2015 | 5 | spring | 22684 | 0 | 1 | 0 | 16.041666666666668 | 16.041666666666668 | 62.541666666666664 | 17.208333333333332 | scattered clouds |
| 255 | 2015-05-10 | night | 2015 | 5 | spring | 9542 | 0 | 1 | 0 | 13.5 | 13.25 | 70.625 | 10.166666666666666 | clear |
| 256 | 2015-05-11 | day | 2015 | 5 | spring | 23188 | 1 | 0 | 0 | 19.166666666666668 | 19.166666666666668 | 60.875 | 20.916666666666668 | scattered clouds |
| 257 | 2015-05-11 | night | 2015 | 5 | spring | 10531 | 1 | 0 | 0 | 15.5 | 15.5 | 68.16666666666667 | 13.583333333333334 | clear |
| 258 | 2015-05-12 | day | 2015 | 5 | spring | 22921 | 1 | 0 | 0 | 15.291666666666666 | 15.291666666666666 | 52.333333333333336 | 27 | scattered clouds |
| 259 | 2015-05-12 | night | 2015 | 5 | spring | 10899 | 1 | 0 | 0 | 13.833333333333334 | 13.833333333333334 | 54.5 | 19.458333333333332 | clear |
| 260 | 2015-05-13 | day | 2015 | 5 | spring | 25552 | 1 | 0 | 0 | 15.916666666666666 | 15.791666666666666 | 45.583333333333336 | 7.625 | clear |
| 261 | 2015-05-13 | night | 2015 | 5 | spring | 11147 | 1 | 0 | 0 | 11.583333333333334 | 10.916666666666666 | 67.375 | 15.708333333333334 | clear |
| 262 | 2015-05-14 | day | 2015 | 5 | spring | 11999 | 1 | 0 | 0 | 10.416666666666666 | 8.833333333333334 | 81.625 | 26.458333333333332 | rain |
| 263 | 2015-05-14 | night | 2015 | 5 | spring | 3610 | 1 | 0 | 0 | 9.375 | 6.958333333333333 | 88.29166666666667 | 16.291666666666668 | rain |
| 264 | 2015-05-15 | day | 2015 | 5 | spring | 23705 | 1 | 0 | 0 | 12.291666666666666 | 11.75 | 61.083333333333336 | 12.25 | broken clouds |
| 265 | 2015-05-15 | night | 2015 | 5 | spring | 8638 | 1 | 0 | 0 | 11.291666666666666 | 10.291666666666666 | 78 | 15.875 | rain |
| 266 | 2015-05-16 | day | 2015 | 5 | spring | 22591 | 0 | 1 | 0 | 16.25 | 16.25 | 56.583333333333336 | 20.958333333333332 | scattered clouds |
| 267 | 2015-05-16 | night | 2015 | 5 | spring | 9935 | 0 | 1 | 0 | 14.041666666666666 | 14.041666666666666 | 63.166666666666664 | 18.875 | clear |
| 268 | 2015-05-17 | day | 2015 | 5 | spring | 22949 | 0 | 1 | 0 | 14.666666666666666 | 14.416666666666666 | 51.916666666666664 | 20 | clear |
| 269 | 2015-05-17 | night | 2015 | 5 | spring | 8374 | 0 | 1 | 0 | 12.5 | 12.083333333333334 | 60.875 | 14.333333333333334 | clear |
| 270 | 2015-05-18 | day | 2015 | 5 | spring | 15552 | 1 | 0 | 0 | 13.291666666666666 | 13.208333333333334 | 71.875 | 28.25 | rain |
| 271 | 2015-05-18 | night | 2015 | 5 | spring | 8736 | 1 | 0 | 0 | 11.541666666666666 | 10.75 | 64.70833333333333 | 21.958333333333332 | scattered clouds |
| 272 | 2015-05-19 | day | 2015 | 5 | spring | 20039 | 1 | 0 | 0 | 11.958333333333334 | 11.291666666666666 | 58.5 | 25.041666666666668 | rain |
| 273 | 2015-05-19 | night | 2015 | 5 | spring | 8292 | 1 | 0 | 0 | 9.875 | 7.708333333333333 | 67.75 | 23.5 | scattered clouds |
| 274 | 2015-05-20 | day | 2015 | 5 | spring | 20862 | 1 | 0 | 0 | 12.291666666666666 | 11.666666666666666 | 59.541666666666664 | 20.916666666666668 | scattered clouds |
| 275 | 2015-05-20 | night | 2015 | 5 | spring | 9672 | 1 | 0 | 0 | 10.75 | 9.25 | 62.833333333333336 | 16.458333333333332 | clear |
| 276 | 2015-05-21 | day | 2015 | 5 | spring | 23933 | 1 | 0 | 0 | 16.208333333333332 | 15.958333333333334 | 49 | 16.541666666666668 | clear |
| 277 | 2015-05-21 | night | 2015 | 5 | spring | 10900 | 1 | 0 | 0 | 13.041666666666666 | 12.083333333333334 | 57.041666666666664 | 14.958333333333334 | clear |
| 278 | 2015-05-22 | day | 2015 | 5 | spring | 23609 | 1 | 0 | 0 | 16.375 | 16.208333333333332 | 62.25 | 14.583333333333334 | clear |
| 279 | 2015-05-22 | night | 2015 | 5 | spring | 9826 | 1 | 0 | 0 | 15 | 14.583333333333334 | 69.16666666666667 | 12.75 | clear |
| 280 | 2015-05-23 | day | 2015 | 5 | spring | 15268 | 0 | 1 | 0 | 14.916666666666666 | 14.916666666666666 | 67.08333333333333 | 16.708333333333332 | broken clouds |
| 281 | 2015-05-23 | night | 2015 | 5 | spring | 8581 | 0 | 1 | 0 | 14.416666666666666 | 14.416666666666666 | 70.79166666666667 | 13.333333333333334 | broken clouds |
| 282 | 2015-05-24 | day | 2015 | 5 | spring | 19959 | 0 | 1 | 0 | 17.208333333333332 | 17.208333333333332 | 59.666666666666664 | 14.25 | clear |
| 283 | 2015-05-24 | night | 2015 | 5 | spring | 10059 | 0 | 1 | 0 | 14.375 | 14.375 | 68.95833333333333 | 8.708333333333334 | broken clouds |
| 284 | 2015-05-25 | day | 2015 | 5 | spring | 21230 | 0 | 0 | 1 | 14.125 | 14.125 | 58.5 | 14.666666666666666 | scattered clouds |
| 285 | 2015-05-25 | night | 2015 | 5 | spring | 8272 | 0 | 0 | 1 | 13.375 | 13.375 | 63.25 | 12.541666666666666 | cloudy |
| 286 | 2015-05-26 | day | 2015 | 5 | spring | 23704 | 1 | 0 | 0 | 15.708333333333334 | 15.708333333333334 | 55.875 | 15.541666666666666 | scattered clouds |
| 287 | 2015-05-26 | night | 2015 | 5 | spring | 11105 | 1 | 0 | 0 | 14.125 | 14.125 | 64.25 | 13.666666666666666 | clear |
| 288 | 2015-05-27 | day | 2015 | 5 | spring | 25522 | 1 | 0 | 0 | 16.166666666666668 | 16 | 49.5 | 15.041666666666666 | clear |
| 289 | 2015-05-27 | night | 2015 | 5 | spring | 10885 | 1 | 0 | 0 | 13.416666666666666 | 13.083333333333334 | 63.333333333333336 | 18.333333333333332 | clear |
| 290 | 2015-05-28 | day | 2015 | 5 | spring | 23843 | 1 | 0 | 0 | 15.916666666666666 | 15.916666666666666 | 43.166666666666664 | 24.5 | clear |
| 291 | 2015-05-28 | night | 2015 | 5 | spring | 10544 | 1 | 0 | 0 | 14.166666666666666 | 14.166666666666666 | 56.708333333333336 | 21.916666666666668 | clear |
| 292 | 2015-05-29 | day | 2015 | 5 | spring | 17259 | 1 | 0 | 0 | 12.625 | 12.625 | 68.41666666666667 | 24.75 | scattered clouds |
| 293 | 2015-05-29 | night | 2015 | 5 | spring | 8764 | 1 | 0 | 0 | 12.125 | 12.125 | 59.666666666666664 | 19.666666666666668 | clear |
| 294 | 2015-05-30 | day | 2015 | 5 | spring | 20629 | 0 | 1 | 0 | 14.666666666666666 | 14.5 | 48.916666666666664 | 17.833333333333332 | clear |
| 295 | 2015-05-30 | night | 2015 | 5 | spring | 8577 | 0 | 1 | 0 | 11.5 | 10.333333333333334 | 66.625 | 17.833333333333332 | clear |
| 296 | 2015-05-31 | day | 2015 | 5 | spring | 8961 | 0 | 1 | 0 | 15.166666666666666 | 15.166666666666666 | 78.83333333333333 | 25.25 | broken clouds |
| 297 | 2015-05-31 | night | 2015 | 5 | spring | 6037 | 0 | 1 | 0 | 12.541666666666666 | 12.541666666666666 | 66.91666666666667 | 19.416666666666668 | rain |
| 298 | 2015-06-01 | day | 2015 | 6 | summer | 19848 | 1 | 0 | 0 | 13 | 12.833333333333334 | 58.75 | 24.416666666666668 | scattered clouds |
| 299 | 2015-06-01 | night | 2015 | 6 | summer | 8016 | 1 | 0 | 0 | 11.208333333333334 | 10.041666666666666 | 66.91666666666667 | 22.875 | clear |
| 300 | 2015-06-02 | day | 2015 | 6 | summer | 18687 | 1 | 0 | 0 | 16.833333333333332 | 16.833333333333332 | 74.95833333333333 | 35.791666666666664 | broken clouds |
| 301 | 2015-06-02 | night | 2015 | 6 | summer | 9252 | 1 | 0 | 0 | 14.5 | 14.5 | 75.08333333333333 | 31.25 | NA |
| 302 | 2015-06-03 | day | 2015 | 6 | summer | 24202 | 1 | 0 | 0 | 17.041666666666668 | 17.041666666666668 | 48 | 20.333333333333332 | scattered clouds |
| 303 | 2015-06-03 | night | 2015 | 6 | summer | 11175 | 1 | 0 | 0 | 15.208333333333334 | 15.208333333333334 | 58.125 | 14.833333333333334 | clear |
| 304 | 2015-06-04 | day | 2015 | 6 | summer | 26662 | 1 | 0 | 0 | 19.25 | 18.958333333333332 | 46.291666666666664 | 15.333333333333334 | clear |
| 305 | 2015-06-04 | night | 2015 | 6 | summer | 12789 | 1 | 0 | 0 | 14.75 | 14.708333333333334 | 66.375 | 10.375 | clear |
| 306 | 2015-06-05 | day | 2015 | 6 | summer | 24160 | 1 | 0 | 0 | 22.125 | 22.125 | 63.791666666666664 | 16.75 | clear |
| 307 | 2015-06-05 | night | 2015 | 6 | summer | 10403 | 1 | 0 | 0 | 16.77777777777778 | 16.77777777777778 | 63.111111111111114 | 23.055555555555557 | clear |
| 308 | 2015-06-06 | day | 2015 | 6 | summer | 22933 | 0 | 1 | 0 | 16.75 | 16.75 | 45 | 25.583333333333332 | clear |
| 309 | 2015-06-06 | night | 2015 | 6 | summer | 9887 | 0 | 1 | 0 | 13.791666666666666 | 13.708333333333334 | 57.375 | 22 | clear |
| 310 | 2015-06-07 | day | 2015 | 6 | summer | 24243 | 0 | 1 | 0 | 16.583333333333332 | 16.583333333333332 | 47.958333333333336 | 11.083333333333334 | clear |
| 311 | 2015-06-07 | night | 2015 | 6 | summer | 11164 | 0 | 1 | 0 | 13.416666666666666 | 13.25 | 64 | 13.958333333333334 | clear |
| 312 | 2015-06-08 | day | 2015 | 6 | summer | 22988 | 1 | 0 | 0 | 15.125 | 15.125 | 55.25 | 15.708333333333334 | clear |
| 313 | 2015-06-08 | night | 2015 | 6 | summer | 9599 | 1 | 0 | 0 | 12.083333333333334 | 11.958333333333334 | 72.45833333333333 | 11.375 | clear |
| 314 | 2015-06-09 | day | 2015 | 6 | summer | 23328 | 1 | 0 | 0 | 13.166666666666666 | 12.833333333333334 | 53 | 23.375 | scattered clouds |
| 315 | 2015-06-09 | night | 2015 | 6 | summer | 9927 | 1 | 0 | 0 | 10.916666666666666 | 9.791666666666666 | 65.375 | 18.666666666666668 | clear |
| 316 | 2015-06-10 | day | 2015 | 6 | summer | 24328 | 1 | 0 | 0 | 15.125 | 15.125 | 54.333333333333336 | 23.625 | scattered clouds |
| 317 | 2015-06-10 | night | 2015 | 6 | summer | 11379 | 1 | 0 | 0 | 12.833333333333334 | 12.5 | 61.333333333333336 | 20.291666666666668 | clear |
| 318 | 2015-06-11 | day | 2015 | 6 | summer | 26479 | 1 | 0 | 0 | 19.083333333333332 | 18.833333333333332 | 56.041666666666664 | 26.375 | clear |
| 319 | 2015-06-11 | night | 2015 | 6 | summer | 12329 | 1 | 0 | 0 | 14.541666666666666 | 14.541666666666666 | 70.16666666666667 | 14.458333333333334 | clear |
| 320 | 2015-06-12 | day | 2015 | 6 | summer | 25260 | 1 | 0 | 0 | 20.583333333333332 | 20.583333333333332 | 62 | 14.75 | clear |
| 321 | 2015-06-12 | night | 2015 | 6 | summer | 9912 | 1 | 0 | 0 | 16.916666666666668 | 16.916666666666668 | 77.16666666666667 | 9.666666666666666 | clear |
| 322 | 2015-06-13 | day | 2015 | 6 | summer | 19714 | 0 | 1 | 0 | 17.208333333333332 | 17.208333333333332 | 77.20833333333333 | 22.208333333333332 | broken clouds |
| 323 | 2015-06-13 | night | 2015 | 6 | summer | 10584 | 0 | 1 | 0 | 17.708333333333332 | 17.708333333333332 | 77.5 | 14.458333333333334 | cloudy |
| 324 | 2015-06-14 | day | 2015 | 6 | summer | 16578 | 0 | 1 | 0 | 15.333333333333334 | 15.333333333333334 | 77.45833333333333 | 12.541666666666666 | broken clouds |
| 325 | 2015-06-14 | night | 2015 | 6 | summer | 8657 | 0 | 1 | 0 | 14.375 | 14.375 | 79.54166666666667 | 13.75 | broken clouds |
| 326 | 2015-06-15 | day | 2015 | 6 | summer | 23929 | 1 | 0 | 0 | 15.583333333333334 | 15.583333333333334 | 57.125 | 18.375 | NA |
| 327 | 2015-06-15 | night | 2015 | 6 | summer | 10629 | 1 | 0 | 0 | 12.958333333333334 | 12.958333333333334 | 72.29166666666667 | 15.375 | clear |
| 328 | 2015-06-16 | day | 2015 | 6 | summer | 25647 | 1 | 0 | 0 | 18.75 | 18.458333333333332 | 48.875 | 6.708333333333333 | clear |
| 329 | 2015-06-16 | night | 2015 | 6 | summer | 12276 | 1 | 0 | 0 | 15.333333333333334 | 15.333333333333334 | 68.20833333333333 | 9.541666666666666 | clear |
| 330 | 2015-06-17 | day | 2015 | 6 | summer | 25789 | 1 | 0 | 0 | 20.75 | 20.75 | 62.416666666666664 | 24.458333333333332 | scattered clouds |
| 331 | 2015-06-17 | night | 2015 | 6 | summer | 12802 | 1 | 0 | 0 | 18.541666666666668 | 18.541666666666668 | 68.66666666666667 | 19.375 | clear |
| 332 | 2015-06-18 | day | 2015 | 6 | summer | 26170 | 1 | 0 | 0 | 17.583333333333332 | 17.583333333333332 | 52.541666666666664 | 17.208333333333332 | clear |
| 333 | 2015-06-18 | night | 2015 | 6 | summer | 12517 | 1 | 0 | 0 | 18.166666666666668 | 18.166666666666668 | 61.958333333333336 | 18.958333333333332 | clear |
| 334 | 2015-06-19 | day | 2015 | 6 | summer | 24404 | 1 | 0 | 0 | 16.333333333333332 | 16.333333333333332 | 58.208333333333336 | 18.25 | scattered clouds |
| 335 | 2015-06-19 | night | 2015 | 6 | summer | 11562 | 1 | 0 | 0 | 16.375 | 16.375 | 58.875 | 13.791666666666666 | clear |
| 336 | 2015-06-20 | day | 2015 | 6 | summer | 18744 | 0 | 1 | 0 | 17.166666666666668 | 17.166666666666668 | 69.95833333333333 | 9.958333333333334 | broken clouds |
| 337 | 2015-06-20 | night | 2015 | 6 | summer | 7551 | 0 | 1 | 0 | 16.125 | 16.125 | 79.66666666666667 | 9.541666666666666 | clear |
| 338 | 2015-06-21 | day | 2015 | 6 | summer | 20741 | 0 | 1 | 0 | 17.916666666666668 | 17.916666666666668 | 57 | 23.833333333333332 | broken clouds |
| 339 | 2015-06-21 | night | 2015 | 6 | summer | 9652 | 0 | 1 | 0 | 17 | 17 | 68.375 | 22.25 | broken clouds |
| 340 | 2015-06-22 | day | 2015 | 6 | summer | 19522 | 1 | 0 | 0 | 15.208333333333334 | 15.208333333333334 | 68.33333333333333 | 20.833333333333332 | scattered clouds |
| 341 | 2015-06-22 | night | 2015 | 6 | summer | 10035 | 1 | 0 | 0 | 14.166666666666666 | 14.166666666666666 | 73.375 | 21 | rain |
| 342 | 2015-06-23 | day | 2015 | 6 | summer | 25213 | 1 | 0 | 0 | 16.208333333333332 | 16.208333333333332 | 56.458333333333336 | 14.333333333333334 | broken clouds |
| 343 | 2015-06-23 | night | 2015 | 6 | summer | 12259 | 1 | 0 | 0 | 15.416666666666666 | 15.416666666666666 | 64.41666666666667 | 13.875 | NA |
| 344 | 2015-06-24 | day | 2015 | 6 | summer | 26405 | 1 | 0 | 0 | 20.416666666666668 | 20.041666666666668 | 49.916666666666664 | 18.416666666666668 | clear |
| 345 | 2015-06-24 | night | 2015 | 6 | summer | 12535 | 1 | 0 | 0 | 16.833333333333332 | 16.833333333333332 | 64.5 | 13.75 | clear |
| 346 | 2015-06-25 | day | 2015 | 6 | summer | 25990 | 1 | 0 | 0 | 21.166666666666668 | 21.041666666666668 | 52.166666666666664 | 12.083333333333334 | clear |
| 347 | 2015-06-25 | night | 2015 | 6 | summer | 12683 | 1 | 0 | 0 | 18.125 | 18.125 | 61.791666666666664 | 15 | clear |
| 348 | 2015-06-26 | day | 2015 | 6 | summer | 25716 | 1 | 0 | 0 | 22.541666666666668 | 22.541666666666668 | 48.125 | 15.833333333333334 | clear |
| 349 | 2015-06-26 | night | 2015 | 6 | summer | 11303 | 1 | 0 | 0 | 18.666666666666668 | 18.666666666666668 | 62.375 | 16 | clear |
| 350 | 2015-06-27 | day | 2015 | 6 | summer | 24116 | 0 | 1 | 0 | 20.458333333333332 | 20.083333333333332 | 52.708333333333336 | 17.083333333333332 | clear |
| 351 | 2015-06-27 | night | 2015 | 6 | summer | 12465 | 0 | 1 | 0 | 18.625 | 18.333333333333332 | 62 | 16.916666666666668 | clear |
| 352 | 2015-06-28 | day | 2015 | 6 | summer | 15698 | 0 | 1 | 0 | 19.625 | 19.625 | 59.75 | 16.916666666666668 | scattered clouds |
| 353 | 2015-06-28 | night | 2015 | 6 | summer | 10008 | 0 | 1 | 0 | 18.625 | 18.625 | 68.75 | 13.75 | scattered clouds |
| 354 | 2015-06-29 | day | 2015 | 6 | summer | 25583 | 1 | 0 | 0 | 21.75 | 21.5 | 48 | 13.291666666666666 | clear |
| 355 | 2015-06-29 | night | 2015 | 6 | summer | 13499 | 1 | 0 | 0 | 19.416666666666668 | 19.416666666666668 | 61.291666666666664 | 13.541666666666666 | clear |
| 356 | 2015-06-30 | day | 2015 | 6 | summer | 28400 | 1 | 0 | 0 | 25.125 | 24.375 | 36.875 | 13.958333333333334 | clear |
| 357 | 2015-06-30 | night | 2015 | 6 | summer | 14926 | 1 | 0 | 0 | 19.625 | 19.625 | 63.833333333333336 | 15.833333333333334 | clear |
| 358 | 2015-07-01 | day | 2015 | 7 | summer | 27827 | 1 | 0 | 0 | 29.541666666666668 | 29.541666666666668 | 44.583333333333336 | 18.333333333333332 | clear |
| 359 | 2015-07-01 | night | 2015 | 7 | summer | 14814 | 1 | 0 | 0 | 25.208333333333332 | 25.333333333333332 | 57.375 | 16.291666666666668 | clear |
| 360 | 2015-07-02 | day | 2015 | 7 | summer | 25756 | 1 | 0 | 0 | 23.25 | 23.25 | 62.208333333333336 | 12.166666666666666 | clear |
| 361 | 2015-07-02 | night | 2015 | 7 | summer | 12506 | 1 | 0 | 0 | 21.333333333333332 | 21.333333333333332 | 66.91666666666667 | 18.25 | NA |
| 362 | 2015-07-03 | day | 2015 | 7 | summer | 27718 | 1 | 0 | 0 | 21.5 | 21.416666666666668 | 54.375 | 18.541666666666668 | NA |
| 363 | 2015-07-03 | night | 2015 | 7 | summer | 11893 | 1 | 0 | 0 | 18.333333333333332 | 18.333333333333332 | 72.95833333333333 | 16.375 | NA |
| 364 | 2015-07-04 | day | 2015 | 7 | summer | 25736 | 0 | 1 | 0 | 24.458333333333332 | 24.458333333333332 | 58.791666666666664 | 20.583333333333332 | clear |
| 365 | 2015-07-04 | night | 2015 | 7 | summer | 12547 | 0 | 1 | 0 | 20 | 20 | 73.54166666666667 | 14.291666666666666 | clear |
| 366 | 2015-07-05 | day | 2015 | 7 | summer | 18548 | 0 | 1 | 0 | 18.833333333333332 | 18.75 | 67.375 | 12.958333333333334 | scattered clouds |
| 367 | 2015-07-05 | night | 2015 | 7 | summer | 11168 | 0 | 1 | 0 | 18.458333333333332 | 18.458333333333332 | 61.958333333333336 | 14.5 | clear |
| 368 | 2015-07-06 | day | 2015 | 7 | summer | 25861 | 1 | 0 | 0 | 20.208333333333332 | 19.791666666666668 | 52.208333333333336 | 17 | scattered clouds |
| 369 | 2015-07-06 | night | 2015 | 7 | summer | 12759 | 1 | 0 | 0 | 17.75 | 17.666666666666668 | 65.75 | 13.958333333333334 | clear |
| 370 | 2015-07-07 | day | 2015 | 7 | summer | 25625 | 1 | 0 | 0 | 20.916666666666668 | 20.75 | 58.666666666666664 | 24.541666666666668 | NA |
| 371 | 2015-07-07 | night | 2015 | 7 | summer | 12283 | 1 | 0 | 0 | 18 | 17.958333333333332 | 57.583333333333336 | 18.5 | clear |
| 372 | 2015-07-08 | day | 2015 | 7 | summer | 27031 | 1 | 0 | 0 | 18.5 | 18.5 | 65.625 | 25.541666666666668 | broken clouds |
| 373 | 2015-07-08 | night | 2015 | 7 | summer | 14672 | 1 | 0 | 0 | 17.125 | 17.125 | 59.25 | 22.125 | clear |
| 374 | 2015-07-09 | day | 2015 | 7 | summer | 51870 | 1 | 0 | 0 | 18.166666666666668 | 17.916666666666668 | 44.916666666666664 | 12.291666666666666 | clear |
| 375 | 2015-07-09 | night | 2015 | 7 | summer | 20634 | 1 | 0 | 0 | 17.416666666666668 | 17.166666666666668 | 53.041666666666664 | 13.666666666666666 | clear |
| 376 | 2015-07-10 | day | 2015 | 7 | summer | 29817 | 1 | 0 | 0 | 22.541666666666668 | 21.875 | 39.041666666666664 | 13.666666666666666 | clear |
| 377 | 2015-07-10 | night | 2015 | 7 | summer | 12962 | 1 | 0 | 0 | 19.125 | 18.791666666666668 | 55.416666666666664 | 12.041666666666666 | clear |
| 378 | 2015-07-11 | day | 2015 | 7 | summer | 27864 | 0 | 1 | 0 | 22.958333333333332 | 22.958333333333332 | 48.041666666666664 | 21.375 | clear |
| 379 | 2015-07-11 | night | 2015 | 7 | summer | 14227 | 0 | 1 | 0 | 19.791666666666668 | 19.625 | 60.416666666666664 | 13.458333333333334 | clear |
| 380 | 2015-07-12 | day | 2015 | 7 | summer | 16710 | 0 | 1 | 0 | 19.5 | 19.5 | 69.66666666666667 | 24.083333333333332 | broken clouds |
| 381 | 2015-07-12 | night | 2015 | 7 | summer | 6530 | 0 | 1 | 0 | 17.541666666666668 | 17.541666666666668 | 81.29166666666667 | 19.291666666666668 | clear |
| 382 | 2015-07-13 | day | 2015 | 7 | summer | 17151 | 1 | 0 | 0 | 19.227272727272727 | 19.227272727272727 | 80.9090909090909 | 19.90909090909091 | broken clouds |
| 383 | 2015-07-13 | night | 2015 | 7 | summer | 9769 | 1 | 0 | 0 | 18.708333333333332 | 18.708333333333332 | 81.95833333333333 | 20.166666666666668 | broken clouds |
| 384 | 2015-07-14 | day | 2015 | 7 | summer | 25099 | 1 | 0 | 0 | 19.666666666666668 | 19.666666666666668 | 72.83333333333333 | 15.916666666666666 | broken clouds |
| 385 | 2015-07-14 | night | 2015 | 7 | summer | 10249 | 1 | 0 | 0 | 19.166666666666668 | 19.166666666666668 | 80.45833333333333 | 16.041666666666668 | broken clouds |
| 386 | 2015-07-15 | day | 2015 | 7 | summer | 22861 | 1 | 0 | 0 | 19.75 | 19.75 | 78.95833333333333 | 13.916666666666666 | broken clouds |
| 387 | 2015-07-15 | night | 2015 | 7 | summer | 11713 | 1 | 0 | 0 | 19.541666666666668 | 19.541666666666668 | 74.875 | 10.083333333333334 | broken clouds |
| 388 | 2015-07-16 | day | 2015 | 7 | summer | 26620 | 1 | 0 | 0 | 21.083333333333332 | 21.083333333333332 | 61.875 | 25 | NA |
| 389 | 2015-07-16 | night | 2015 | 7 | summer | 12686 | 1 | 0 | 0 | 18.75 | 18.75 | 69.08333333333333 | 19.083333333333332 | clear |
| 390 | 2015-07-17 | day | 2015 | 7 | summer | 26359 | 1 | 0 | 0 | 22.125 | 22.125 | 59.416666666666664 | 25.208333333333332 | broken clouds |
| 391 | 2015-07-17 | night | 2015 | 7 | summer | 12146 | 1 | 0 | 0 | 18.75 | 18.75 | 66 | 14.708333333333334 | scattered clouds |
| 392 | 2015-07-18 | day | 2015 | 7 | summer | 26505 | 0 | 1 | 0 | 20.166666666666668 | 19.708333333333332 | 44.333333333333336 | 17.208333333333332 | clear |
| 393 | 2015-07-18 | night | 2015 | 7 | summer | 11986 | 0 | 1 | 0 | 17.25 | 17.208333333333332 | 63.583333333333336 | 17.958333333333332 | clear |
| 394 | 2015-07-19 | day | 2015 | 7 | summer | 23739 | 0 | 1 | 0 | 21 | 20.666666666666668 | 50.541666666666664 | 24.125 | clear |
| 395 | 2015-07-19 | night | 2015 | 7 | summer | 12954 | 0 | 1 | 0 | 19 | 18.75 | 48.041666666666664 | 13.833333333333334 | clear |
| 396 | 2015-07-20 | day | 2015 | 7 | summer | 16757 | 1 | 0 | 0 | 19.38888888888889 | 19.38888888888889 | 78.77777777777777 | 11.833333333333334 | NA |
| 397 | 2015-07-20 | night | 2015 | 7 | summer | 10406 | 1 | 0 | 0 | 18.958333333333332 | 18.958333333333332 | 77.20833333333333 | 14.5 | clear |
| 398 | 2015-07-21 | day | 2015 | 7 | summer | 27311 | 1 | 0 | 0 | 22 | 22 | 51.375 | 22.791666666666668 | clear |
| 399 | 2015-07-21 | night | 2015 | 7 | summer | 13385 | 1 | 0 | 0 | 18.791666666666668 | 18.791666666666668 | 65.33333333333333 | 22 | clear |
| 400 | 2015-07-22 | day | 2015 | 7 | summer | 25836 | 1 | 0 | 0 | 20.416666666666668 | 20.208333333333332 | 56.541666666666664 | 20.958333333333332 | scattered clouds |
| 401 | 2015-07-22 | night | 2015 | 7 | summer | 12079 | 1 | 0 | 0 | 18.25 | 18.25 | 65.375 | 14.541666666666666 | NA |
| 402 | 2015-07-23 | day | 2015 | 7 | summer | 26646 | 1 | 0 | 0 | 18.708333333333332 | 18.625 | 54.25 | 15.041666666666666 | scattered clouds |
| 403 | 2015-07-23 | night | 2015 | 7 | summer | 12446 | 1 | 0 | 0 | 17.625 | 17.625 | 58.791666666666664 | 12.083333333333334 | clear |
| 404 | 2015-07-24 | day | 2015 | 7 | summer | 11312 | 1 | 0 | 0 | 15.916666666666666 | 15.916666666666666 | 77.375 | 12.125 | NA |
| 405 | 2015-07-24 | night | 2015 | 7 | summer | 4722 | 1 | 0 | 0 | 15.791666666666666 | 15.791666666666666 | 73.45833333333333 | 10.791666666666666 | clear |
| 406 | 2015-07-25 | day | 2015 | 7 | summer | 22748 | 0 | 1 | 0 | 17.208333333333332 | 17.208333333333332 | 55.708333333333336 | 24.25 | scattered clouds |
| 407 | 2015-07-25 | night | 2015 | 7 | summer | 9860 | 0 | 1 | 0 | 16.166666666666668 | 16.166666666666668 | 67.70833333333333 | 15.583333333333334 | clear |
| 408 | 2015-07-26 | day | 2015 | 7 | summer | 5895 | 0 | 1 | 0 | 14.958333333333334 | 14.958333333333334 | 80.625 | 15.875 | rain |
| 409 | 2015-07-26 | night | 2015 | 7 | summer | 6503 | 0 | 1 | 0 | 15.958333333333334 | 15.958333333333334 | 74.625 | 16.625 | clear |
| 410 | 2015-07-27 | day | 2015 | 7 | summer | 21771 | 1 | 0 | 0 | 18.875 | 18.875 | 62.625 | 30.125 | broken clouds |
| 411 | 2015-07-27 | night | 2015 | 7 | summer | 10133 | 1 | 0 | 0 | 16.666666666666668 | 16.666666666666668 | 71.75 | 26.291666666666668 | broken clouds |
| 412 | 2015-07-28 | day | 2015 | 7 | summer | 24571 | 1 | 0 | 0 | 18.125 | 18.125 | 52.958333333333336 | 30.583333333333332 | scattered clouds |
| 413 | 2015-07-28 | night | 2015 | 7 | summer | 11530 | 1 | 0 | 0 | 16.125 | 16.125 | 64.625 | 25.125 | rain |
| 414 | 2015-07-29 | day | 2015 | 7 | summer | 25138 | 1 | 0 | 0 | 16.791666666666668 | 16.791666666666668 | 54.75 | 20.375 | scattered clouds |
| 415 | 2015-07-29 | night | 2015 | 7 | summer | 11623 | 1 | 0 | 0 | 14.875 | 14.875 | 67.04166666666667 | 18.958333333333332 | clear |
| 416 | 2015-07-30 | day | 2015 | 7 | summer | 24521 | 1 | 0 | 0 | 16.5 | 16.5 | 55.5 | 17.208333333333332 | scattered clouds |
| 417 | 2015-07-30 | night | 2015 | 7 | summer | 11624 | 1 | 0 | 0 | 15.375 | 15.375 | 64.91666666666667 | 12.5 | clear |
| 418 | 2015-07-31 | day | 2015 | 7 | summer | 25363 | 1 | 0 | 0 | 18.333333333333332 | 18.208333333333332 | 52.125 | 8.125 | clear |
| 419 | 2015-07-31 | night | 2015 | 7 | summer | 11312 | 1 | 0 | 0 | 15.583333333333334 | 15.583333333333334 | 65.16666666666667 | 8.25 | clear |
| 420 | 2015-08-01 | day | 2015 | 8 | summer | 30433 | 0 | 1 | 0 | 18.833333333333332 | 18.625 | 49.291666666666664 | 14.041666666666666 | clear |
| 421 | 2015-08-01 | night | 2015 | 8 | summer | 12584 | 0 | 1 | 0 | 16.5 | 16.5 | 62.083333333333336 | 11.166666666666666 | clear |
| 422 | 2015-08-02 | day | 2015 | 8 | summer | 29240 | 0 | 1 | 0 | 21.166666666666668 | 20.916666666666668 | 52 | 11.125 | clear |
| 423 | 2015-08-02 | night | 2015 | 8 | summer | 14055 | 0 | 1 | 0 | 18.416666666666668 | 18.166666666666668 | 63.541666666666664 | 13.875 | clear |
| 424 | 2015-08-03 | day | 2015 | 8 | summer | 24326 | 1 | 0 | 0 | 21.416666666666668 | 21.416666666666668 | 66.08333333333333 | 22.666666666666668 | broken clouds |
| 425 | 2015-08-03 | night | 2015 | 8 | summer | 11076 | 1 | 0 | 0 | 18.25 | 18.25 | 70.41666666666667 | 12.583333333333334 | clear |
| 426 | 2015-08-04 | day | 2015 | 8 | summer | 25889 | 1 | 0 | 0 | 19.375 | 19.333333333333332 | 53.75 | 26.375 | broken clouds |
| 427 | 2015-08-04 | night | 2015 | 8 | summer | 11755 | 1 | 0 | 0 | 17.166666666666668 | 17.166666666666668 | 68.25 | 19.458333333333332 | clear |
| 428 | 2015-08-05 | day | 2015 | 8 | summer | 25864 | 1 | 0 | 0 | 19.791666666666668 | 19.75 | 56.75 | 12.333333333333334 | scattered clouds |
| 429 | 2015-08-05 | night | 2015 | 8 | summer | 12906 | 1 | 0 | 0 | 16.958333333333332 | 16.958333333333332 | 72.375 | 9.791666666666666 | clear |
| 430 | 2015-08-06 | day | 2015 | 8 | summer | 45065 | 1 | 0 | 0 | 20.666666666666668 | 20.666666666666668 | 67.33333333333333 | 16.75 | scattered clouds |
| 431 | 2015-08-06 | night | 2015 | 8 | summer | 18403 | 1 | 0 | 0 | 18.208333333333332 | 18.208333333333332 | 68.08333333333333 | 13.041666666666666 | clear |
| 432 | 2015-08-07 | day | 2015 | 8 | summer | 27276 | 1 | 0 | 0 | 21.208333333333332 | 21.208333333333332 | 52.458333333333336 | 6.333333333333333 | scattered clouds |
| 433 | 2015-08-07 | night | 2015 | 8 | summer | 12210 | 1 | 0 | 0 | 17.833333333333332 | 17.833333333333332 | 72.95833333333333 | 11.583333333333334 | clear |
| 434 | 2015-08-08 | day | 2015 | 8 | summer | 25790 | 0 | 1 | 0 | 21 | 21 | 64.79166666666667 | 12.916666666666666 | broken clouds |
| 435 | 2015-08-08 | night | 2015 | 8 | summer | 13203 | 0 | 1 | 0 | 18.458333333333332 | 18.458333333333332 | 74.08333333333333 | 9.166666666666666 | clear |
| 436 | 2015-08-09 | day | 2015 | 8 | summer | 27342 | 0 | 1 | 0 | 22.791666666666668 | 22.5 | 45.083333333333336 | 12.708333333333334 | clear |
| 437 | 2015-08-09 | night | 2015 | 8 | summer | 13099 | 0 | 1 | 0 | 19.708333333333332 | 19.708333333333332 | 66.54166666666667 | 11.833333333333334 | clear |
| 438 | 2015-08-10 | day | 2015 | 8 | summer | 23806 | 1 | 0 | 0 | 21.583333333333332 | 21.583333333333332 | 69.16666666666667 | 19.125 | broken clouds |
| 439 | 2015-08-10 | night | 2015 | 8 | summer | 11529 | 1 | 0 | 0 | 19.083333333333332 | 19.083333333333332 | 78.875 | 17.083333333333332 | cloudy |
| 440 | 2015-08-11 | day | 2015 | 8 | summer | 25439 | 1 | 0 | 0 | 18.75 | 18.75 | 58.458333333333336 | 5.583333333333333 | scattered clouds |
| 441 | 2015-08-11 | night | 2015 | 8 | summer | 8879 | 1 | 0 | 0 | 17.875 | 17.875 | 70.66666666666667 | 9.291666666666666 | rain |
| 442 | 2015-08-12 | day | 2015 | 8 | summer | 24974 | 1 | 0 | 0 | 19.208333333333332 | 19.208333333333332 | 66.375 | 18.75 | broken clouds |
| 443 | 2015-08-12 | night | 2015 | 8 | summer | 11574 | 1 | 0 | 0 | 17.875 | 17.875 | 74.41666666666667 | 14.791666666666666 | NA |
| 444 | 2015-08-13 | day | 2015 | 8 | summer | 16645 | 1 | 0 | 0 | 19.5 | 19.5 | 83.41666666666667 | 18.333333333333332 | rain |
| 445 | 2015-08-13 | night | 2015 | 8 | summer | 9329 | 1 | 0 | 0 | 18.375 | 18.375 | 84.375 | 11.958333333333334 | cloudy |
| 446 | 2015-08-14 | day | 2015 | 8 | summer | 19278 | 1 | 0 | 0 | 20.166666666666668 | 20.166666666666668 | 79.95833333333333 | 16.833333333333332 | broken clouds |
| 447 | 2015-08-14 | night | 2015 | 8 | summer | 6141 | 1 | 0 | 0 | 17.875 | 17.875 | 91.25 | 8.25 | rain |
| 448 | 2015-08-15 | day | 2015 | 8 | summer | 23122 | 0 | 1 | 0 | 17.958333333333332 | 17.958333333333332 | 58.916666666666664 | 16.375 | scattered clouds |
| 449 | 2015-08-15 | night | 2015 | 8 | summer | 10617 | 0 | 1 | 0 | 17.208333333333332 | 17.208333333333332 | 67.66666666666667 | 10.625 | clear |
| 450 | 2015-08-16 | day | 2015 | 8 | summer | 20952 | 0 | 1 | 0 | 17.708333333333332 | 17.708333333333332 | 59.791666666666664 | 8.833333333333334 | clear |
| 451 | 2015-08-16 | night | 2015 | 8 | summer | 9664 | 0 | 1 | 0 | 15.916666666666666 | 15.916666666666666 | 67.04166666666667 | 5.166666666666667 | clear |
| 452 | 2015-08-17 | day | 2015 | 8 | summer | 24700 | 1 | 0 | 0 | 18.25 | 18.25 | 50.083333333333336 | 10.875 | clear |
| 453 | 2015-08-17 | night | 2015 | 8 | summer | 10995 | 1 | 0 | 0 | 17.375 | 17.375 | 61.458333333333336 | 8.458333333333334 | clear |
| 454 | 2015-08-18 | day | 2015 | 8 | summer | 23895 | 1 | 0 | 0 | 17.416666666666668 | 17.416666666666668 | 58.833333333333336 | 18.5 | clear |
| 455 | 2015-08-18 | night | 2015 | 8 | summer | 10635 | 1 | 0 | 0 | 17.833333333333332 | 17.833333333333332 | 60.208333333333336 | 13.791666666666666 | clear |
| 456 | 2015-08-19 | day | 2015 | 8 | summer | 24510 | 1 | 0 | 0 | 19.333333333333332 | 19.333333333333332 | 60.458333333333336 | 17.583333333333332 | scattered clouds |
| 457 | 2015-08-19 | night | 2015 | 8 | summer | 7130 | 1 | 0 | 0 | 16.541666666666668 | 16.541666666666668 | 76.54166666666667 | 12.583333333333334 | rain |
| 458 | 2015-08-20 | day | 2015 | 8 | summer | 22231 | 1 | 0 | 0 | 19.833333333333332 | 19.833333333333332 | 76.83333333333333 | 14.625 | broken clouds |
| 459 | 2015-08-20 | night | 2015 | 8 | summer | 10323 | 1 | 0 | 0 | 18.25 | 18.25 | 85.91666666666667 | 13 | broken clouds |
| 460 | 2015-08-21 | day | 2015 | 8 | summer | 24483 | 1 | 0 | 0 | 23.458333333333332 | 23.458333333333332 | 63.75 | 17.208333333333332 | scattered clouds |
| 461 | 2015-08-21 | night | 2015 | 8 | summer | 11399 | 1 | 0 | 0 | 20.75 | 20.75 | 74.08333333333333 | 11.916666666666666 | clear |
| 462 | 2015-08-22 | day | 2015 | 8 | summer | 29845 | 0 | 1 | 0 | 25.375 | 25.333333333333332 | 55.666666666666664 | 14.375 | clear |
| 463 | 2015-08-22 | night | 2015 | 8 | summer | 14342 | 0 | 1 | 0 | 21.041666666666668 | 21.041666666666668 | 69.875 | 10.208333333333334 | clear |
| 464 | 2015-08-23 | day | 2015 | 8 | summer | 16201 | 0 | 1 | 0 | 20.375 | 20.375 | 66.375 | 17.625 | clear |
| 465 | 2015-08-23 | night | 2015 | 8 | summer | 10800 | 0 | 1 | 0 | 18.625 | 18.625 | 69.625 | 16.083333333333332 | clear |
| 466 | 2015-08-24 | day | 2015 | 8 | summer | 11485 | 1 | 0 | 0 | 16.166666666666668 | 16.166666666666668 | 89.58333333333333 | 13.041666666666666 | rain |
| 467 | 2015-08-24 | night | 2015 | 8 | summer | 5915 | 1 | 0 | 0 | 15.5 | 15.5 | 85.33333333333333 | 13.708333333333334 | rain |
| 468 | 2015-08-25 | day | 2015 | 8 | summer | 18798 | 1 | 0 | 0 | 16.208333333333332 | 16.208333333333332 | 77 | 18.625 | rain |
| 469 | 2015-08-25 | night | 2015 | 8 | summer | 9354 | 1 | 0 | 0 | 16.208333333333332 | 16.208333333333332 | 81.66666666666667 | 21.583333333333332 | scattered clouds |
| 470 | 2015-08-26 | day | 2015 | 8 | summer | 14155 | 1 | 0 | 0 | 19.083333333333332 | 19.083333333333332 | 80.91666666666667 | 24.833333333333332 | rain |
| 471 | 2015-08-26 | night | 2015 | 8 | summer | 9583 | 1 | 0 | 0 | 17.416666666666668 | 17.416666666666668 | 80.54166666666667 | 19.125 | broken clouds |
| 472 | 2015-08-27 | day | 2015 | 8 | summer | 21309 | 1 | 0 | 0 | 17.916666666666668 | 17.916666666666668 | 64.75 | 21.708333333333332 | scattered clouds |
| 473 | 2015-08-27 | night | 2015 | 8 | summer | 9219 | 1 | 0 | 0 | 15.625 | 15.625 | 81.33333333333333 | 13.291666666666666 | scattered clouds |
| 474 | 2015-08-28 | day | 2015 | 8 | summer | 23327 | 1 | 0 | 0 | 18.208333333333332 | 18.208333333333332 | 58.333333333333336 | 18.375 | scattered clouds |
| 475 | 2015-08-28 | night | 2015 | 8 | summer | 9623 | 1 | 0 | 0 | 15.708333333333334 | 15.708333333333334 | 75.54166666666667 | 13.25 | clear |
| 476 | 2015-08-29 | day | 2015 | 8 | summer | 17147 | 0 | 1 | 0 | 19.5 | 19.458333333333332 | 66.20833333333333 | 9.041666666666666 | scattered clouds |
| 477 | 2015-08-29 | night | 2015 | 8 | summer | 5471 | 0 | 1 | 0 | 17.083333333333332 | 17.083333333333332 | 79.25 | 6.5 | clear |
| 478 | 2015-08-30 | day | 2015 | 8 | summer | 16902 | 0 | 1 | 0 | 18.333333333333332 | 18.333333333333332 | 77.625 | 11.166666666666666 | broken clouds |
| 479 | 2015-08-30 | night | 2015 | 8 | summer | 8070 | 0 | 1 | 0 | 17.333333333333332 | 17.333333333333332 | 83 | 9.791666666666666 | cloudy |
| 480 | 2015-08-31 | day | 2015 | 8 | summer | 4894 | 0 | 0 | 1 | 15.416666666666666 | 15.416666666666666 | 91.5 | 10.708333333333334 | rain |
| 481 | 2015-08-31 | night | 2015 | 8 | summer | 4745 | 0 | 0 | 1 | 15.541666666666666 | 15.541666666666666 | 87.58333333333333 | 10.166666666666666 | broken clouds |
| 482 | 2015-09-01 | day | 2015 | 9 | autumn | 18133 | 1 | 0 | 0 | 16.166666666666668 | 16.166666666666668 | 74.54166666666667 | 10.041666666666666 | scattered clouds |
| 483 | 2015-09-01 | night | 2015 | 9 | autumn | 7423 | 1 | 0 | 0 | 14.791666666666666 | 14.791666666666666 | 85.125 | 8.958333333333334 | clear |
| 484 | 2015-09-02 | day | 2015 | 9 | autumn | 21705 | 1 | 0 | 0 | 15.458333333333334 | 15.458333333333334 | 68.16666666666667 | 11.916666666666666 | scattered clouds |
| 485 | 2015-09-02 | night | 2015 | 9 | autumn | 8475 | 1 | 0 | 0 | 13.916666666666666 | 13.916666666666666 | 78.33333333333333 | 8.541666666666666 | clear |
| 486 | 2015-09-03 | day | 2015 | 9 | autumn | 22428 | 1 | 0 | 0 | 14.458333333333334 | 14.458333333333334 | 65.45833333333333 | 14.333333333333334 | scattered clouds |
| 487 | 2015-09-03 | night | 2015 | 9 | autumn | 8522 | 1 | 0 | 0 | 13.416666666666666 | 13.416666666666666 | 72.04166666666667 | 11.583333333333334 | clear |
| 488 | 2015-09-04 | day | 2015 | 9 | autumn | 21574 | 1 | 0 | 0 | 14.916666666666666 | 14.916666666666666 | 64 | 15.416666666666666 | scattered clouds |
| 489 | 2015-09-04 | night | 2015 | 9 | autumn | 8135 | 1 | 0 | 0 | 13.666666666666666 | 13.666666666666666 | 66.66666666666667 | 10.833333333333334 | scattered clouds |
| 490 | 2015-09-05 | day | 2015 | 9 | autumn | 14700 | 0 | 1 | 0 | 14 | 14 | 74.79166666666667 | 12.791666666666666 | broken clouds |
| 491 | 2015-09-05 | night | 2015 | 9 | autumn | 7617 | 0 | 1 | 0 | 12.875 | 12.875 | 68.16666666666667 | 9.791666666666666 | clear |
| 492 | 2015-09-06 | day | 2015 | 9 | autumn | 21082 | 0 | 1 | 0 | 14.833333333333334 | 14.458333333333334 | 60.083333333333336 | 11.333333333333334 | clear |
| 493 | 2015-09-06 | night | 2015 | 9 | autumn | 8347 | 0 | 1 | 0 | 13.416666666666666 | 13.25 | 69.33333333333333 | 8.291666666666666 | clear |
| 494 | 2015-09-07 | day | 2015 | 9 | autumn | 22294 | 1 | 0 | 0 | 15.083333333333334 | 15.083333333333334 | 70 | 11.25 | broken clouds |
| 495 | 2015-09-07 | night | 2015 | 9 | autumn | 9398 | 1 | 0 | 0 | 13.583333333333334 | 13.583333333333334 | 74.33333333333333 | 8.375 | clear |
| 496 | 2015-09-08 | day | 2015 | 9 | autumn | 22949 | 1 | 0 | 0 | 14.291666666666666 | 14.291666666666666 | 71.625 | 8.958333333333334 | NA |
| 497 | 2015-09-08 | night | 2015 | 9 | autumn | 9832 | 1 | 0 | 0 | 14 | 14 | 75.125 | 7.791666666666667 | broken clouds |
| 498 | 2015-09-09 | day | 2015 | 9 | autumn | 23083 | 1 | 0 | 0 | 16.583333333333332 | 16.583333333333332 | 67.08333333333333 | 16.083333333333332 | broken clouds |
| 499 | 2015-09-09 | night | 2015 | 9 | autumn | 10033 | 1 | 0 | 0 | 15.041666666666666 | 15.041666666666666 | 76.20833333333333 | 12.083333333333334 | clear |
| 500 | 2015-09-10 | day | 2015 | 9 | autumn | 25090 | 1 | 0 | 0 | 17.791666666666668 | 17.791666666666668 | 62.25 | 20.125 | clear |
| 501 | 2015-09-10 | night | 2015 | 9 | autumn | 10644 | 1 | 0 | 0 | 14.583333333333334 | 14.583333333333334 | 81.41666666666667 | 9.875 | clear |
| 502 | 2015-09-11 | day | 2015 | 9 | autumn | 24816 | 1 | 0 | 0 | 17.916666666666668 | 17.916666666666668 | 63 | 20.416666666666668 | clear |
| 503 | 2015-09-11 | night | 2015 | 9 | autumn | 8374 | 1 | 0 | 0 | 14.95 | 14.95 | 82.7 | 12.55 | clear |
| 504 | 2015-09-12 | day | 2015 | 9 | autumn | 20484 | 0 | 1 | 0 | 19.208333333333332 | 19.208333333333332 | 64.16666666666667 | 19.166666666666668 | broken clouds |
| 505 | 2015-09-12 | night | 2015 | 9 | autumn | 6539 | 0 | 1 | 0 | 16.416666666666668 | 16.416666666666668 | 63.083333333333336 | 14.25 | scattered clouds |
| 506 | 2015-09-13 | day | 2015 | 9 | autumn | 18667 | 0 | 1 | 0 | 15.041666666666666 | 15.041666666666666 | 70.5 | 12.875 | clear |
| 507 | 2015-09-13 | night | 2015 | 9 | autumn | 7499 | 0 | 1 | 0 | 13 | 13 | 75.5 | 9.041666666666666 | clear |
| 508 | 2015-09-14 | day | 2015 | 9 | autumn | 18012 | 1 | 0 | 0 | 16 | 16 | 78.625 | 18.75 | rain |
| 509 | 2015-09-14 | night | 2015 | 9 | autumn | 7799 | 1 | 0 | 0 | 13 | 13 | 78.91666666666667 | 18.5 | clear |
| 510 | 2015-09-15 | day | 2015 | 9 | autumn | 19179 | 1 | 0 | 0 | 15.25 | 15.25 | 75.29166666666667 | 21.75 | broken clouds |
| 511 | 2015-09-15 | night | 2015 | 9 | autumn | 8887 | 1 | 0 | 0 | 13.25 | 13.25 | 74.625 | 14.25 | NA |
| 512 | 2015-09-16 | day | 2015 | 9 | autumn | 13470 | 1 | 0 | 0 | 14.291666666666666 | 14.291666666666666 | 88.58333333333333 | 17.416666666666668 | NA |
| 513 | 2015-09-16 | night | 2015 | 9 | autumn | 5183 | 1 | 0 | 0 | 13.208333333333334 | 13.208333333333334 | 90.75 | 9.416666666666666 | broken clouds |
| 514 | 2015-09-17 | day | 2015 | 9 | autumn | 22610 | 1 | 0 | 0 | 15.375 | 15.375 | 65 | 18.791666666666668 | scattered clouds |
| 515 | 2015-09-17 | night | 2015 | 9 | autumn | 9465 | 1 | 0 | 0 | 14.208333333333334 | 14.208333333333334 | 80.5 | 14.583333333333334 | rain |
| 516 | 2015-09-18 | day | 2015 | 9 | autumn | 21095 | 1 | 0 | 0 | 15.791666666666666 | 15.791666666666666 | 76.20833333333333 | 11.25 | scattered clouds |
| 517 | 2015-09-18 | night | 2015 | 9 | autumn | 8734 | 1 | 0 | 0 | 14.333333333333334 | 14.333333333333334 | 80.58333333333333 | 7.75 | clear |
| 518 | 2015-09-19 | day | 2015 | 9 | autumn | 22632 | 0 | 1 | 0 | 16.181818181818183 | 16.181818181818183 | 63.09090909090909 | 9 | scattered clouds |
| 519 | 2015-09-19 | night | 2015 | 9 | autumn | 9194 | 0 | 1 | 0 | 14.291666666666666 | 14.291666666666666 | 78.16666666666667 | 5.125 | clear |
| 520 | 2015-09-20 | day | 2015 | 9 | autumn | 23259 | 0 | 1 | 0 | 16.75 | 16.75 | 66.79166666666667 | 13.25 | scattered clouds |
| 521 | 2015-09-20 | night | 2015 | 9 | autumn | 7882 | 0 | 1 | 0 | 14.083333333333334 | 14.083333333333334 | 80.54166666666667 | 9.458333333333334 | clear |
| 522 | 2015-09-21 | day | 2015 | 9 | autumn | 17232 | 1 | 0 | 0 | 15.208333333333334 | 15.208333333333334 | 81.75 | 15.958333333333334 | rain |
| 523 | 2015-09-21 | night | 2015 | 9 | autumn | 6444 | 1 | 0 | 0 | 14.208333333333334 | 14.208333333333334 | 85.375 | 10.958333333333334 | scattered clouds |
| 524 | 2015-09-22 | day | 2015 | 9 | autumn | 12647 | 1 | 0 | 0 | 12.875 | 12.875 | 82.625 | 13.166666666666666 | rain |
| 525 | 2015-09-22 | night | 2015 | 9 | autumn | 7787 | 1 | 0 | 0 | 11.958333333333334 | 11.958333333333334 | 83.66666666666667 | 11.958333333333334 | clear |
| 526 | 2015-09-23 | day | 2015 | 9 | autumn | 24271 | 1 | 0 | 0 | 14.875 | 14.625 | 64.66666666666667 | 19.583333333333332 | scattered clouds |
| 527 | 2015-09-23 | night | 2015 | 9 | autumn | 9706 | 1 | 0 | 0 | 13.375 | 13.208333333333334 | 78.25 | 17 | clear |
| 528 | 2015-09-24 | day | 2015 | 9 | autumn | 20242 | 1 | 0 | 0 | 16.166666666666668 | 16.166666666666668 | 68.29166666666667 | 21.208333333333332 | scattered clouds |
| 529 | 2015-09-24 | night | 2015 | 9 | autumn | 9154 | 1 | 0 | 0 | 15 | 15 | 75.08333333333333 | 18.666666666666668 | clear |
| 530 | 2015-09-25 | day | 2015 | 9 | autumn | 25093 | 1 | 0 | 0 | 14.75 | 14.75 | 61.875 | 12.5 | clear |
| 531 | 2015-09-25 | night | 2015 | 9 | autumn | 9690 | 1 | 0 | 0 | 12.708333333333334 | 12.708333333333334 | 73.16666666666667 | 8.958333333333334 | clear |
| 532 | 2015-09-26 | day | 2015 | 9 | autumn | 23824 | 0 | 1 | 0 | 14.416666666666666 | 14.416666666666666 | 61.541666666666664 | 9.416666666666666 | clear |
| 533 | 2015-09-26 | night | 2015 | 9 | autumn | 8812 | 0 | 1 | 0 | 11.958333333333334 | 11.916666666666666 | 76.33333333333333 | 7.583333333333333 | clear |
| 534 | 2015-09-27 | day | 2015 | 9 | autumn | 21757 | 0 | 1 | 0 | 15.291666666666666 | 15.291666666666666 | 67.54166666666667 | 14.75 | scattered clouds |
| 535 | 2015-09-27 | night | 2015 | 9 | autumn | 8060 | 0 | 1 | 0 | 12 | 11.875 | 77.625 | 8.541666666666666 | clear |
| 536 | 2015-09-28 | day | 2015 | 9 | autumn | 23743 | 1 | 0 | 0 | 15.041666666666666 | 15.041666666666666 | 68.625 | 19.083333333333332 | scattered clouds |
| 537 | 2015-09-28 | night | 2015 | 9 | autumn | 9395 | 1 | 0 | 0 | 12.916666666666666 | 12.916666666666666 | 79.75 | 10.75 | clear |
| 538 | 2015-09-29 | day | 2015 | 9 | autumn | 24925 | 1 | 0 | 0 | 15.625 | 15.625 | 65.41666666666667 | 19.541666666666668 | scattered clouds |
| 539 | 2015-09-29 | night | 2015 | 9 | autumn | 9511 | 1 | 0 | 0 | 13.875 | 13.875 | 74.79166666666667 | 13.166666666666666 | NA |
| 540 | 2015-09-30 | day | 2015 | 9 | autumn | 25038 | 1 | 0 | 0 | 15.458333333333334 | 15.458333333333334 | 60.458333333333336 | 23.708333333333332 | scattered clouds |
| 541 | 2015-09-30 | night | 2015 | 9 | autumn | 9903 | 1 | 0 | 0 | 13.166666666666666 | 13.166666666666666 | 75.875 | 10.333333333333334 | clear |
| 542 | 2015-10-01 | day | 2015 | 10 | autumn | 24933 | 1 | 0 | 0 | 15.458333333333334 | 15.458333333333334 | 65.16666666666667 | 21.083333333333332 | scattered clouds |
| 543 | 2015-10-01 | night | 2015 | 10 | autumn | 9629 | 1 | 0 | 0 | 13.041666666666666 | 13.041666666666666 | 78.58333333333333 | 10.458333333333334 | clear |
| 544 | 2015-10-02 | day | 2015 | 10 | autumn | 26140 | 1 | 0 | 0 | 14.958333333333334 | 14.958333333333334 | 66.16666666666667 | 12.583333333333334 | clear |
| 545 | 2015-10-02 | night | 2015 | 10 | autumn | 9363 | 1 | 0 | 0 | 12.416666666666666 | 12.416666666666666 | 80.45833333333333 | 8.875 | clear |
| 546 | 2015-10-03 | day | 2015 | 10 | autumn | 20781 | 0 | 1 | 0 | 13.125 | 13.125 | 81.25 | 5.333333333333333 | broken clouds |
| 547 | 2015-10-03 | night | 2015 | 10 | autumn | 8175 | 0 | 1 | 0 | 12.208333333333334 | 12.208333333333334 | 81.20833333333333 | 6.083333333333333 | clear |
| 548 | 2015-10-04 | day | 2015 | 10 | autumn | 22376 | 0 | 1 | 0 | 14.625 | 14.458333333333334 | 64.66666666666667 | 7.958333333333333 | scattered clouds |
| 549 | 2015-10-04 | night | 2015 | 10 | autumn | 7508 | 0 | 1 | 0 | 12.041666666666666 | 11.75 | 81 | 11.75 | clear |
| 550 | 2015-10-05 | day | 2015 | 10 | autumn | 15998 | 1 | 0 | 0 | 16.625 | 16.625 | 88.125 | 14.416666666666666 | rain |
| 551 | 2015-10-05 | night | 2015 | 10 | autumn | 4743 | 1 | 0 | 0 | 15.166666666666666 | 15.166666666666666 | 87.75 | 13.083333333333334 | rain |
| 552 | 2015-10-06 | day | 2015 | 10 | autumn | 18843 | 1 | 0 | 0 | 17.541666666666668 | 17.541666666666668 | 82.375 | 14.375 | scattered clouds |
| 553 | 2015-10-06 | night | 2015 | 10 | autumn | 7049 | 1 | 0 | 0 | 15.75 | 15.75 | 92.08333333333333 | 10.458333333333334 | rain |
| 554 | 2015-10-07 | day | 2015 | 10 | autumn | 19766 | 1 | 0 | 0 | 15.125 | 15.125 | 84 | 20.125 | broken clouds |
| 555 | 2015-10-07 | night | 2015 | 10 | autumn | 8863 | 1 | 0 | 0 | 14.625 | 14.625 | 79.875 | 18.041666666666668 | broken clouds |
| 556 | 2015-10-08 | day | 2015 | 10 | autumn | 23832 | 1 | 0 | 0 | 13.333333333333334 | 12.75 | 66.125 | 9.666666666666666 | scattered clouds |
| 557 | 2015-10-08 | night | 2015 | 10 | autumn | 9844 | 1 | 0 | 0 | 11.458333333333334 | 10.875 | 79.54166666666667 | 7.166666666666667 | clear |
| 558 | 2015-10-09 | day | 2015 | 10 | autumn | 23015 | 1 | 0 | 0 | 14.136363636363637 | 14.136363636363637 | 67.81818181818181 | 7.818181818181818 | scattered clouds |
| 559 | 2015-10-09 | night | 2015 | 10 | autumn | 8991 | 1 | 0 | 0 | 11.125 | 11 | 84.95833333333333 | 6.083333333333333 | clear |
| 560 | 2015-10-10 | day | 2015 | 10 | autumn | 21170 | 0 | 1 | 0 | 14 | 13.958333333333334 | 77.33333333333333 | 13 | scattered clouds |
| 561 | 2015-10-10 | night | 2015 | 10 | autumn | 8246 | 0 | 1 | 0 | 12 | 12 | 85.29166666666667 | 9.25 | clear |
| 562 | 2015-10-11 | day | 2015 | 10 | autumn | 20795 | 0 | 1 | 0 | 13.041666666666666 | 12.833333333333334 | 68.375 | 15.875 | clear |
| 563 | 2015-10-11 | night | 2015 | 10 | autumn | 7001 | 0 | 1 | 0 | 11.541666666666666 | 11.25 | 76.75 | 10.541666666666666 | clear |
| 564 | 2015-10-12 | day | 2015 | 10 | autumn | 22442 | 1 | 0 | 0 | 12.083333333333334 | 11.791666666666666 | 65.5 | 12.666666666666666 | broken clouds |
| 565 | 2015-10-12 | night | 2015 | 10 | autumn | 8850 | 1 | 0 | 0 | 10.458333333333334 | 10.125 | 74.66666666666667 | 7.333333333333333 | scattered clouds |
| 566 | 2015-10-13 | day | 2015 | 10 | autumn | 19161 | 1 | 0 | 0 | 11.272727272727273 | 10.681818181818182 | 68.31818181818181 | 15.409090909090908 | clear |
| 567 | 2015-10-13 | night | 2015 | 10 | autumn | 953 | 1 | 0 | 0 | 9.5 | 7.428571428571429 | 81.42857142857143 | 13.142857142857142 | broken clouds |
| 568 | 2015-10-14 | day | 2015 | 10 | autumn | 22137 | 1 | 0 | 0 | 11.125 | 10.625 | 71.66666666666667 | 15.666666666666666 | scattered clouds |
| 569 | 2015-10-14 | night | 2015 | 10 | autumn | 8442 | 1 | 0 | 0 | 9.833333333333334 | 9 | 78.41666666666667 | 11.333333333333334 | clear |
| 570 | 2015-10-15 | day | 2015 | 10 | autumn | 22166 | 1 | 0 | 0 | 11.375 | 10.708333333333334 | 72.29166666666667 | 13.458333333333334 | broken clouds |
| 571 | 2015-10-15 | night | 2015 | 10 | autumn | 8708 | 1 | 0 | 0 | 11.083333333333334 | 10.416666666666666 | 83.45833333333333 | 12.833333333333334 | scattered clouds |
| 572 | 2015-10-16 | day | 2015 | 10 | autumn | 22039 | 1 | 0 | 0 | 12.75 | 12.75 | 77.83333333333333 | 18.125 | broken clouds |
| 573 | 2015-10-16 | night | 2015 | 10 | autumn | 8036 | 1 | 0 | 0 | 12.25 | 12.25 | 79.29166666666667 | 14.833333333333334 | broken clouds |
| 574 | 2015-10-17 | day | 2015 | 10 | autumn | 17207 | 0 | 1 | 0 | 12.125 | 12.125 | 73.08333333333333 | 15.333333333333334 | broken clouds |
| 575 | 2015-10-17 | night | 2015 | 10 | autumn | 7120 | 0 | 1 | 0 | 12 | 12 | 80.41666666666667 | 12.166666666666666 | cloudy |
| 576 | 2015-10-18 | day | 2015 | 10 | autumn | 16926 | 0 | 1 | 0 | 13.583333333333334 | 13.583333333333334 | 73.625 | 11.291666666666666 | broken clouds |
| 577 | 2015-10-18 | night | 2015 | 10 | autumn | 6144 | 0 | 1 | 0 | 12.5 | 12.5 | 85.83333333333333 | 7 | cloudy |
| 578 | 2015-10-19 | day | 2015 | 10 | autumn | 21328 | 1 | 0 | 0 | 13.291666666666666 | 13.291666666666666 | 78.5 | 8.666666666666666 | broken clouds |
| 579 | 2015-10-19 | night | 2015 | 10 | autumn | 8624 | 1 | 0 | 0 | 12.166666666666666 | 12.166666666666666 | 79.875 | 6.083333333333333 | broken clouds |
| 580 | 2015-10-20 | day | 2015 | 10 | autumn | 23534 | 1 | 0 | 0 | 12.333333333333334 | 12.125 | 71.58333333333333 | 9.375 | scattered clouds |
| 581 | 2015-10-20 | night | 2015 | 10 | autumn | 9184 | 1 | 0 | 0 | 10.75 | 10.375 | 79.45833333333333 | 6.666666666666667 | clear |
| 582 | 2015-10-21 | day | 2015 | 10 | autumn | 11498 | 1 | 0 | 0 | 12.25 | 12.25 | 91 | 16.791666666666668 | rain |
| 583 | 2015-10-21 | night | 2015 | 10 | autumn | 7424 | 1 | 0 | 0 | 12.75 | 12.333333333333334 | 85.875 | 14.25 | clear |
| 584 | 2015-10-22 | day | 2015 | 10 | autumn | 21851 | 1 | 0 | 0 | 14.166666666666666 | 14.166666666666666 | 66.75 | 18.958333333333332 | broken clouds |
| 585 | 2015-10-22 | night | 2015 | 10 | autumn | 8475 | 1 | 0 | 0 | 13.791666666666666 | 13.791666666666666 | 73.08333333333333 | 14.875 | cloudy |
| 586 | 2015-10-23 | day | 2015 | 10 | autumn | 22176 | 1 | 0 | 0 | 13.125 | 13.125 | 63.416666666666664 | 9.541666666666666 | broken clouds |
| 587 | 2015-10-23 | night | 2015 | 10 | autumn | 8097 | 1 | 0 | 0 | 12.625 | 12.625 | 67.58333333333333 | 5.5 | cloudy |
| 588 | 2015-10-24 | day | 2015 | 10 | autumn | 12302 | 0 | 1 | 0 | 13.833333333333334 | 13.833333333333334 | 75.66666666666667 | 10.166666666666666 | broken clouds |
| 589 | 2015-10-24 | night | 2015 | 10 | autumn | 4574 | 0 | 1 | 0 | 11.625 | 11.208333333333334 | 79.83333333333333 | 11.416666666666666 | cloudy |
| 590 | 2015-10-25 | day | 2015 | 10 | autumn | 18132 | 0 | 1 | 0 | 9.958333333333334 | 9.25 | 70.29166666666667 | 7 | clear |
| 591 | 2015-10-25 | night | 2015 | 10 | autumn | 5001 | 0 | 1 | 0 | 7.954545454545454 | 6.2727272727272725 | 81.5909090909091 | 10.15151515151515 | clear |
| 592 | 2015-10-26 | day | 2015 | 10 | autumn | 21967 | 1 | 0 | 0 | 13.208333333333334 | 12.791666666666666 | 81.20833333333333 | 15.791666666666666 | broken clouds |
| 593 | 2015-10-26 | night | 2015 | 10 | autumn | 8397 | 1 | 0 | 0 | 10.208333333333334 | 9.208333333333334 | 90.625 | 11.333333333333334 | broken clouds |
| 594 | 2015-10-27 | day | 2015 | 10 | autumn | 23350 | 1 | 0 | 0 | 15.166666666666666 | 15.166666666666666 | 80.08333333333333 | 14.5 | clear |
| 595 | 2015-10-27 | night | 2015 | 10 | autumn | 9086 | 1 | 0 | 0 | 13.625 | 13.625 | 89.83333333333333 | 9.958333333333334 | broken clouds |
| 596 | 2015-10-28 | day | 2015 | 10 | autumn | 15868 | 1 | 0 | 0 | 14.291666666666666 | 14.291666666666666 | 79.25 | 12.416666666666666 | scattered clouds |
| 597 | 2015-10-28 | night | 2015 | 10 | autumn | 8013 | 1 | 0 | 0 | 12.875 | 12.875 | 90.29166666666667 | 9.333333333333334 | rain |
| 598 | 2015-10-29 | day | 2015 | 10 | autumn | 20981 | 1 | 0 | 0 | 14.458333333333334 | 14.458333333333334 | 83.08333333333333 | 15.125 | broken clouds |
| 599 | 2015-10-29 | night | 2015 | 10 | autumn | 6358 | 1 | 0 | 0 | 12.375 | 12.083333333333334 | 92.5 | 11.666666666666666 | rain |
| 600 | 2015-10-30 | day | 2015 | 10 | autumn | 16510 | 1 | 0 | 0 | 15 | 15 | 79.79166666666667 | 14.333333333333334 | rain |
| 601 | 2015-10-30 | night | 2015 | 10 | autumn | 7460 | 1 | 0 | 0 | 14.375 | 14.375 | 84.29166666666667 | 12.833333333333334 | clear |
| 602 | 2015-10-31 | day | 2015 | 10 | autumn | 20336 | 0 | 1 | 0 | 13.291666666666666 | 13.291666666666666 | 83.54166666666667 | 10.583333333333334 | clear |
| 603 | 2015-10-31 | night | 2015 | 10 | autumn | 7128 | 0 | 1 | 0 | 11.458333333333334 | 11.458333333333334 | 92.25 | 8.916666666666666 | clear |
| 604 | 2015-11-01 | day | 2015 | 11 | autumn | 16657 | 0 | 1 | 0 | 9.041666666666666 | 8.625 | 98.16666666666667 | 5.791666666666667 | cloudy |
| 605 | 2015-11-01 | night | 2015 | 11 | autumn | 6191 | 0 | 1 | 0 | 9.375 | 9.083333333333334 | 97.20833333333333 | 4.625 | cloudy |
| 606 | 2015-11-02 | day | 2015 | 11 | autumn | 20159 | 1 | 0 | 0 | 11 | 10.666666666666666 | 96.5 | 9.583333333333334 | broken clouds |
| 607 | 2015-11-02 | night | 2015 | 11 | autumn | 7874 | 1 | 0 | 0 | 10 | 9.416666666666666 | 93.5 | 8.75 | cloudy |
| 608 | 2015-11-03 | day | 2015 | 11 | autumn | 21829 | 1 | 0 | 0 | 12.125 | 11.958333333333334 | 87.25 | 11.083333333333334 | scattered clouds |
| 609 | 2015-11-03 | night | 2015 | 11 | autumn | 8881 | 1 | 0 | 0 | 11.666666666666666 | 11.458333333333334 | 90 | 7 | broken clouds |
| 610 | 2015-11-04 | day | 2015 | 11 | autumn | 15324 | 1 | 0 | 0 | 13.958333333333334 | 13.958333333333334 | 85.83333333333333 | 9.041666666666666 | scattered clouds |
| 611 | 2015-11-04 | night | 2015 | 11 | autumn | 8138 | 1 | 0 | 0 | 13 | 13 | 91.25 | 7.75 | scattered clouds |
| 612 | 2015-11-05 | day | 2015 | 11 | autumn | 17197 | 1 | 0 | 0 | 15.416666666666666 | 15.416666666666666 | 85.33333333333333 | 15.416666666666666 | broken clouds |
| 613 | 2015-11-05 | night | 2015 | 11 | autumn | 7306 | 1 | 0 | 0 | 14.916666666666666 | 14.916666666666666 | 89.54166666666667 | 13.25 | broken clouds |
| 614 | 2015-11-06 | day | 2015 | 11 | autumn | 17893 | 1 | 0 | 0 | 16.416666666666668 | 16.416666666666668 | 84.875 | 19.5 | broken clouds |
| 615 | 2015-11-06 | night | 2015 | 11 | autumn | 7538 | 1 | 0 | 0 | 16.041666666666668 | 16.041666666666668 | 84.75 | 16.75 | broken clouds |
| 616 | 2015-11-07 | day | 2015 | 11 | autumn | 8323 | 0 | 1 | 0 | 17 | 17 | 83.66666666666667 | 29.375 | rain |
| 617 | 2015-11-07 | night | 2015 | 11 | autumn | 6558 | 0 | 1 | 0 | 14.541666666666666 | 14.541666666666666 | 83.625 | 16.416666666666668 | clear |
| 618 | 2015-11-08 | day | 2015 | 11 | autumn | 13519 | 0 | 1 | 0 | 14.625 | 14.5 | 85.83333333333333 | 16.958333333333332 | broken clouds |
| 619 | 2015-11-08 | night | 2015 | 11 | autumn | 5235 | 0 | 1 | 0 | 13.708333333333334 | 13.625 | 85.125 | 15.625 | clear |
| 620 | 2015-11-09 | day | 2015 | 11 | autumn | 20258 | 1 | 0 | 0 | 13.916666666666666 | 13.916666666666666 | 69.91666666666667 | 27.916666666666668 | broken clouds |
| 621 | 2015-11-09 | night | 2015 | 11 | autumn | 8216 | 1 | 0 | 0 | 13.833333333333334 | 13.833333333333334 | 78.04166666666667 | 26.166666666666668 | broken clouds |
| 622 | 2015-11-10 | day | 2015 | 11 | autumn | 20843 | 1 | 0 | 0 | 16.041666666666668 | 16.041666666666668 | 80.95833333333333 | 23.375 | broken clouds |
| 623 | 2015-11-10 | night | 2015 | 11 | autumn | 8363 | 1 | 0 | 0 | 15.458333333333334 | 15.458333333333334 | 82 | 22.5 | NA |
| 624 | 2015-11-11 | day | 2015 | 11 | autumn | 21228 | 1 | 0 | 0 | 15.125 | 15.125 | 68.375 | 22.791666666666668 | broken clouds |
| 625 | 2015-11-11 | night | 2015 | 11 | autumn | 8671 | 1 | 0 | 0 | 14.416666666666666 | 14.416666666666666 | 75.04166666666667 | 17.875 | cloudy |
| 626 | 2015-11-12 | day | 2015 | 11 | autumn | 21143 | 1 | 0 | 0 | 14.416666666666666 | 14.416666666666666 | 80.5 | 16.208333333333332 | scattered clouds |
| 627 | 2015-11-12 | night | 2015 | 11 | autumn | 7819 | 1 | 0 | 0 | 14.083333333333334 | 14.083333333333334 | 81.875 | 18.25 | broken clouds |
| 628 | 2015-11-13 | day | 2015 | 11 | autumn | 18908 | 1 | 0 | 0 | 10.541666666666666 | 8.625 | 62.541666666666664 | 29.458333333333332 | clear |
| 629 | 2015-11-13 | night | 2015 | 11 | autumn | 6344 | 1 | 0 | 0 | 10.791666666666666 | 9.041666666666666 | 69.45833333333333 | 26.416666666666668 | clear |
| 630 | 2015-11-14 | day | 2015 | 11 | autumn | 5018 | 0 | 1 | 0 | 10.708333333333334 | 9.291666666666666 | 83.79166666666667 | 19.541666666666668 | rain |
| 631 | 2015-11-14 | night | 2015 | 11 | autumn | 3880 | 0 | 1 | 0 | 11.791666666666666 | 10.291666666666666 | 78.79166666666667 | 27.125 | clear |
| 632 | 2015-11-15 | day | 2015 | 11 | autumn | 12988 | 0 | 1 | 0 | 15.875 | 15.875 | 72.45833333333333 | 34.166666666666664 | broken clouds |
| 633 | 2015-11-15 | night | 2015 | 11 | autumn | 4606 | 0 | 1 | 0 | 15.166666666666666 | 15.166666666666666 | 72.5 | 33.958333333333336 | broken clouds |
| 634 | 2015-11-16 | day | 2015 | 11 | autumn | 19067 | 1 | 0 | 0 | 13.75 | 13.75 | 69.5 | 22.791666666666668 | scattered clouds |
| 635 | 2015-11-16 | night | 2015 | 11 | autumn | 7440 | 1 | 0 | 0 | 13.541666666666666 | 13.541666666666666 | 77.75 | 20.958333333333332 | cloudy |
| 636 | 2015-11-17 | day | 2015 | 11 | autumn | 16531 | 1 | 0 | 0 | 14.791666666666666 | 14.791666666666666 | 78.91666666666667 | 27.416666666666668 | rain |
| 637 | 2015-11-17 | night | 2015 | 11 | autumn | 6237 | 1 | 0 | 0 | 14.75 | 14.75 | 75.55 | 31.35 | rain |
| 638 | 2015-11-18 | day | 2015 | 11 | autumn | 18832 | 1 | 0 | 0 | 14.125 | 14.125 | 70.79166666666667 | 30.958333333333332 | NA |
| 639 | 2015-11-18 | night | 2015 | 11 | autumn | 7094 | 1 | 0 | 0 | 13.833333333333334 | 13.833333333333334 | 66.91666666666667 | 33.083333333333336 | scattered clouds |
| 640 | 2015-11-19 | day | 2015 | 11 | autumn | 16049 | 1 | 0 | 0 | 11.708333333333334 | 11.5 | 82.79166666666667 | 18.625 | NA |
| 641 | 2015-11-19 | night | 2015 | 11 | autumn | 7646 | 1 | 0 | 0 | 11.458333333333334 | 10.875 | 77.20833333333333 | 24.416666666666668 | scattered clouds |
| 642 | 2015-11-20 | day | 2015 | 11 | autumn | 19550 | 1 | 0 | 0 | 9.666666666666666 | 6.833333333333333 | 61.833333333333336 | 22.916666666666668 | scattered clouds |
| 643 | 2015-11-20 | night | 2015 | 11 | autumn | 6238 | 1 | 0 | 0 | 8.458333333333334 | 5.375 | 73.16666666666667 | 21.708333333333332 | scattered clouds |
| 644 | 2015-11-21 | day | 2015 | 11 | autumn | 9204 | 0 | 1 | 0 | 5.208333333333333 | 0.20833333333333334 | 69.54166666666667 | 30.625 | broken clouds |
| 645 | 2015-11-21 | night | 2015 | 11 | autumn | 3547 | 0 | 1 | 0 | 3.5416666666666665 | -0.9583333333333334 | 66.5 | 21.875 | clear |
| 646 | 2015-11-22 | day | 2015 | 11 | autumn | 9783 | 0 | 1 | 0 | 4.125 | 1.5833333333333333 | 74.5 | 10.666666666666666 | NA |
| 647 | 2015-11-22 | night | 2015 | 11 | autumn | 3335 | 0 | 1 | 0 | 2.9166666666666665 | 0 | 74.83333333333333 | 10.666666666666666 | clear |
| 648 | 2015-11-23 | day | 2015 | 11 | autumn | 17343 | 1 | 0 | 0 | 5.333333333333333 | 2.8333333333333335 | 72.5 | 11.791666666666666 | clear |
| 649 | 2015-11-23 | night | 2015 | 11 | autumn | 6565 | 1 | 0 | 0 | 4.75 | 2.625 | 77.41666666666667 | 10.5 | clear |
| 650 | 2015-11-24 | day | 2015 | 11 | autumn | 14453 | 1 | 0 | 0 | 9.541666666666666 | 7.041666666666667 | 83.75 | 18.875 | rain |
| 651 | 2015-11-24 | night | 2015 | 11 | autumn | 6722 | 1 | 0 | 0 | 8.541666666666666 | 5.416666666666667 | 83.66666666666667 | 20.958333333333332 | rain |
| 652 | 2015-11-25 | day | 2015 | 11 | autumn | 18320 | 1 | 0 | 0 | 9.666666666666666 | 7.75 | 70.95833333333333 | 19.208333333333332 | scattered clouds |
| 653 | 2015-11-25 | night | 2015 | 11 | autumn | 7680 | 1 | 0 | 0 | 8.208333333333334 | 6.125 | 82.375 | 13.125 | scattered clouds |
| 654 | 2015-11-26 | day | 2015 | 11 | autumn | 19241 | 1 | 0 | 0 | 9.958333333333334 | 9.458333333333334 | 82.875 | 7.208333333333333 | scattered clouds |
| 655 | 2015-11-26 | night | 2015 | 11 | autumn | 7385 | 1 | 0 | 0 | 8.833333333333334 | 7.583333333333333 | 89.75 | 7.875 | broken clouds |
| 656 | 2015-11-27 | day | 2015 | 11 | autumn | 17967 | 1 | 0 | 0 | 12.416666666666666 | 12.416666666666666 | 84.70833333333333 | 21.458333333333332 | broken clouds |
| 657 | 2015-11-27 | night | 2015 | 11 | autumn | 5550 | 1 | 0 | 0 | 10.166666666666666 | 8.666666666666666 | 82.625 | 20 | rain |
| 658 | 2015-11-28 | day | 2015 | 11 | autumn | 12191 | 0 | 1 | 0 | 7.958333333333333 | 4.625 | 67.91666666666667 | 25.166666666666668 | clear |
| 659 | 2015-11-28 | night | 2015 | 11 | autumn | 4145 | 0 | 1 | 0 | 8.291666666666666 | 6.083333333333333 | 71.70833333333333 | 29.333333333333332 | clear |
| 660 | 2015-11-29 | day | 2015 | 11 | autumn | 8354 | 0 | 1 | 0 | 12.666666666666666 | 12.666666666666666 | 70.54166666666667 | 37.625 | broken clouds |
| 661 | 2015-11-29 | night | 2015 | 11 | autumn | 3038 | 0 | 1 | 0 | 11.416666666666666 | 11.416666666666666 | 73.54166666666667 | 30.541666666666668 | scattered clouds |
| 662 | 2015-11-30 | day | 2015 | 11 | autumn | 15556 | 1 | 0 | 0 | 12.75 | 12.583333333333334 | 76.45833333333333 | 31.458333333333332 | broken clouds |
| 663 | 2015-11-30 | night | 2015 | 11 | autumn | 5362 | 1 | 0 | 0 | 11.227272727272727 | 10.272727272727273 | 78.68181818181819 | 20.181818181818183 | rain |
| 664 | 2015-12-01 | day | 2015 | 12 | winter | 18675 | 1 | 0 | 0 | 14.25 | 14.25 | 72.45833333333333 | 25.833333333333332 | broken clouds |
| 665 | 2015-12-01 | night | 2015 | 12 | winter | 7884 | 1 | 0 | 0 | 11.833333333333334 | 11.708333333333334 | 76.16666666666667 | 14.666666666666666 | rain |
| 666 | 2015-12-02 | day | 2015 | 12 | winter | 19663 | 1 | 0 | 0 | 13.041666666666666 | 13.041666666666666 | 74.08333333333333 | 21.166666666666668 | scattered clouds |
| 667 | 2015-12-02 | night | 2015 | 12 | winter | 8126 | 1 | 0 | 0 | 13 | 13 | 70.875 | 20.333333333333332 | cloudy |
| 668 | 2015-12-03 | day | 2015 | 12 | winter | 19704 | 1 | 0 | 0 | 13 | 13 | 75.33333333333333 | 18.041666666666668 | scattered clouds |
| 669 | 2015-12-03 | night | 2015 | 12 | winter | 6195 | 1 | 0 | 0 | 12.833333333333334 | 12.833333333333334 | 78.54166666666667 | 24.208333333333332 | clear |
| 670 | 2015-12-04 | day | 2015 | 12 | winter | 19368 | 1 | 0 | 0 | 11 | 9.791666666666666 | 68.625 | 23.791666666666668 | scattered clouds |
| 671 | 2015-12-04 | night | 2015 | 12 | winter | 6588 | 1 | 0 | 0 | 11.083333333333334 | 10.166666666666666 | 71.91666666666667 | 26.333333333333332 | scattered clouds |
| 672 | 2015-12-05 | day | 2015 | 12 | winter | 11133 | 0 | 1 | 0 | 12.666666666666666 | 12.666666666666666 | 66.29166666666667 | 36.041666666666664 | NA |
| 673 | 2015-12-05 | night | 2015 | 12 | winter | 5378 | 0 | 1 | 0 | 12.625 | 12.625 | 66.25 | 37.625 | scattered clouds |
| 674 | 2015-12-06 | day | 2015 | 12 | winter | 11020 | 0 | 1 | 0 | 13.791666666666666 | 13.791666666666666 | 78.95833333333333 | 24.041666666666668 | broken clouds |
| 675 | 2015-12-06 | night | 2015 | 12 | winter | 4458 | 0 | 1 | 0 | 13.083333333333334 | 13.083333333333334 | 81.58333333333333 | 22.25 | NA |
| 676 | 2015-12-07 | day | 2015 | 12 | winter | 17994 | 1 | 0 | 0 | 13.416666666666666 | 13.416666666666666 | 83.5 | 12.666666666666666 | broken clouds |
| 677 | 2015-12-07 | night | 2015 | 12 | winter | 7740 | 1 | 0 | 0 | 13.208333333333334 | 13.208333333333334 | 79.58333333333333 | 16.291666666666668 | clear |
| 678 | 2015-12-08 | day | 2015 | 12 | winter | 16029 | 1 | 0 | 0 | 13.25 | 13.25 | 74.125 | 20.916666666666668 | scattered clouds |
| 679 | 2015-12-08 | night | 2015 | 12 | winter | 7401 | 1 | 0 | 0 | 11.291666666666666 | 10.166666666666666 | 73.375 | 20.583333333333332 | clear |
| 680 | 2015-12-09 | day | 2015 | 12 | winter | 19722 | 1 | 0 | 0 | 10 | 9.208333333333334 | 70.125 | 16.5 | scattered clouds |
| 681 | 2015-12-09 | night | 2015 | 12 | winter | 7840 | 1 | 0 | 0 | 9.166666666666666 | 7.708333333333333 | 77.66666666666667 | 20.041666666666668 | clear |
| 682 | 2015-12-10 | day | 2015 | 12 | winter | 18061 | 1 | 0 | 0 | 11.875 | 11.875 | 75.79166666666667 | 23.875 | NA |
| 683 | 2015-12-10 | night | 2015 | 12 | winter | 5054 | 1 | 0 | 0 | 11.208333333333334 | 10.875 | 80 | 21 | rain |
| 684 | 2015-12-11 | day | 2015 | 12 | winter | 16922 | 1 | 0 | 0 | 10.666666666666666 | 9.708333333333334 | 73.16666666666667 | 23.458333333333332 | NA |
| 685 | 2015-12-11 | night | 2015 | 12 | winter | 6337 | 1 | 0 | 0 | 9.5 | 8.041666666666666 | 78.91666666666667 | 17.291666666666668 | scattered clouds |
| 686 | 2015-12-12 | day | 2015 | 12 | winter | 11019 | 0 | 1 | 0 | 11.333333333333334 | 10.958333333333334 | 73.54166666666667 | 20.583333333333332 | broken clouds |
| 687 | 2015-12-12 | night | 2015 | 12 | winter | 4796 | 0 | 1 | 0 | 12.1875 | 11.5625 | 72.375 | 27.5625 | broken clouds |
| 688 | 2015-12-13 | day | 2015 | 12 | winter | 8275 | 0 | 1 | 0 | 8.083333333333334 | 6.291666666666667 | 93.45833333333333 | 11.041666666666666 | broken clouds |
| 689 | 2015-12-13 | night | 2015 | 12 | winter | 4016 | 0 | 1 | 0 | 8.791666666666666 | 7.583333333333333 | 89.25 | 9.458333333333334 | rain |
| 690 | 2015-12-14 | day | 2015 | 12 | winter | 17370 | 1 | 0 | 0 | 9.333333333333334 | 7.75 | 82.66666666666667 | 10.291666666666666 | broken clouds |
| 691 | 2015-12-14 | night | 2015 | 12 | winter | 6465 | 1 | 0 | 0 | 9.083333333333334 | 7.708333333333333 | 87.29166666666667 | 9.166666666666666 | rain |
| 692 | 2015-12-15 | day | 2015 | 12 | winter | 15137 | 1 | 0 | 0 | 11.583333333333334 | 11.375 | 92.25 | 12 | broken clouds |
| 693 | 2015-12-15 | night | 2015 | 12 | winter | 5064 | 1 | 0 | 0 | 11.333333333333334 | 10.875 | 92.25 | 9.416666666666666 | rain |
| 694 | 2015-12-16 | day | 2015 | 12 | winter | 17778 | 1 | 0 | 0 | 14.75 | 14.75 | 78.04166666666667 | 24.208333333333332 | broken clouds |
| 695 | 2015-12-16 | night | 2015 | 12 | winter | 7780 | 1 | 0 | 0 | 14.208333333333334 | 14.208333333333334 | 85.33333333333333 | 16.708333333333332 | broken clouds |
| 696 | 2015-12-17 | day | 2015 | 12 | winter | 18354 | 1 | 0 | 0 | 15.041666666666666 | 15.041666666666666 | 64.16666666666667 | 19.25 | clear |
| 697 | 2015-12-17 | night | 2015 | 12 | winter | 7450 | 1 | 0 | 0 | 13.583333333333334 | 13.583333333333334 | 80.75 | 18.625 | clear |
| 698 | 2015-12-18 | day | 2015 | 12 | winter | 18416 | 1 | 0 | 0 | 13.458333333333334 | 13.458333333333334 | 76.375 | 17.916666666666668 | scattered clouds |
| 699 | 2015-12-18 | night | 2015 | 12 | winter | 7314 | 1 | 0 | 0 | 12.75 | 12.75 | 81.70833333333333 | 16.458333333333332 | scattered clouds |
| 700 | 2015-12-19 | day | 2015 | 12 | winter | 12647 | 0 | 1 | 0 | 15.833333333333334 | 15.833333333333334 | 72.91666666666667 | 22.916666666666668 | clear |
| 701 | 2015-12-19 | night | 2015 | 12 | winter | 6107 | 0 | 1 | 0 | 14.916666666666666 | 14.916666666666666 | 76.16666666666667 | 21.75 | clear |
| 702 | 2015-12-20 | day | 2015 | 12 | winter | 8608 | 0 | 1 | 0 | 12.625 | 12.625 | 76.83333333333333 | 19.75 | rain |
| 703 | 2015-12-20 | night | 2015 | 12 | winter | 4452 | 0 | 1 | 0 | 12.916666666666666 | 12.458333333333334 | 71.75 | 21 | clear |
| 704 | 2015-12-21 | day | 2015 | 12 | winter | 12968 | 1 | 0 | 0 | 11.291666666666666 | 10.333333333333334 | 78.25 | 27.291666666666668 | NA |
| 705 | 2015-12-21 | night | 2015 | 12 | winter | 5168 | 1 | 0 | 0 | 10.458333333333334 | 9.041666666666666 | 76.83333333333333 | 17.916666666666668 | clear |
| 706 | 2015-12-22 | day | 2015 | 12 | winter | 13774 | 1 | 0 | 0 | 14.916666666666666 | 14.916666666666666 | 75.83333333333333 | 35.166666666666664 | rain |
| 707 | 2015-12-22 | night | 2015 | 12 | winter | 3684 | 1 | 0 | 0 | 13.458333333333334 | 13.458333333333334 | 85.5 | 27.625 | rain |
| 708 | 2015-12-23 | day | 2015 | 12 | winter | 14292 | 1 | 0 | 0 | 11.333333333333334 | 10.791666666666666 | 63.791666666666664 | 21.583333333333332 | scattered clouds |
| 709 | 2015-12-23 | night | 2015 | 12 | winter | 4159 | 1 | 0 | 0 | 11.375 | 11.375 | 74.29166666666667 | 24.75 | scattered clouds |
| 710 | 2015-12-24 | day | 2015 | 12 | winter | 6772 | 1 | 0 | 0 | 11.791666666666666 | 11.125 | 68.08333333333333 | 31.166666666666668 | scattered clouds |
| 711 | 2015-12-24 | night | 2015 | 12 | winter | 2136 | 1 | 0 | 0 | 10.041666666666666 | 8.666666666666666 | 68.54166666666667 | 19.958333333333332 | NA |
| 712 | 2015-12-25 | day | 2015 | 12 | winter | 16447 | 0 | 0 | 1 | 11.166666666666666 | 10.25 | 82.25 | 16.5 | rain |
| 713 | 2015-12-25 | night | 2015 | 12 | winter | 5976 | 0 | 0 | 1 | 11.375 | 10.458333333333334 | 76.625 | 19.583333333333332 | broken clouds |
| 714 | 2015-12-26 | day | 2015 | 12 | winter | 7127 | 0 | 1 | 0 | 14.666666666666666 | 14.666666666666666 | 74.125 | 26.333333333333332 | broken clouds |
| 715 | 2015-12-26 | night | 2015 | 12 | winter | 3103 | 0 | 1 | 0 | 14.791666666666666 | 14.791666666666666 | 74.04166666666667 | 28.5 | broken clouds |
| 716 | 2015-12-27 | day | 2015 | 12 | winter | 6172 | 0 | 1 | 0 | 14.541666666666666 | 14.541666666666666 | 83.79166666666667 | 22.75 | broken clouds |
| 717 | 2015-12-27 | night | 2015 | 12 | winter | 3206 | 0 | 1 | 0 | 14.125 | 14.125 | 78.5 | 21.25 | broken clouds |
| 718 | 2015-12-28 | day | 2015 | 12 | winter | 10158 | 0 | 0 | 1 | 11.958333333333334 | 11.875 | 68.5 | 15.125 | clear |
| 719 | 2015-12-28 | night | 2015 | 12 | winter | 3574 | 0 | 0 | 1 | 11.5 | 11.25 | 78.33333333333333 | 14.958333333333334 | clear |
| 720 | 2015-12-29 | day | 2015 | 12 | winter | 11792 | 1 | 0 | 0 | 11.708333333333334 | 11.708333333333334 | 74.08333333333333 | 17.083333333333332 | scattered clouds |
| 721 | 2015-12-29 | night | 2015 | 12 | winter | 3800 | 1 | 0 | 0 | 11.791666666666666 | 11.458333333333334 | 74.95833333333333 | 17.333333333333332 | clear |
| 722 | 2015-12-30 | day | 2015 | 12 | winter | 10159 | 1 | 0 | 0 | 13.333333333333334 | 13.333333333333334 | 60 | 29.125 | clear |
| 723 | 2015-12-30 | night | 2015 | 12 | winter | 2142 | 1 | 0 | 0 | 11.833333333333334 | 11.75 | 78.75 | 21.041666666666668 | rain |
| 724 | 2015-12-31 | day | 2015 | 12 | winter | 11062 | 1 | 0 | 0 | 10.333333333333334 | 8.75 | 63.125 | 26 | scattered clouds |
| 725 | 2015-12-31 | night | 2015 | 12 | winter | 2827 | 1 | 0 | 0 | 8.708333333333334 | 5.708333333333333 | 75.5 | 20.791666666666668 | clear |
| 726 | 2016-01-01 | day | 2016 | 1 | winter | 5642 | 0 | 0 | 1 | 6.125 | 3 | 82.625 | 17.25 | clear |
| 727 | 2016-01-01 | night | 2016 | 1 | winter | 4155 | 0 | 0 | 1 | 6.875 | 4.458333333333333 | 82.375 | 16.208333333333332 | clear |
| 728 | 2016-01-02 | day | 2016 | 1 | winter | 5176 | 0 | 1 | 0 | 10.75 | 9.916666666666666 | 86.75 | 20.666666666666668 | rain |
| 729 | 2016-01-02 | night | 2016 | 1 | winter | 2019 | 0 | 1 | 0 | 10.25 | 8.875 | 87.29166666666667 | 22.541666666666668 | rain |
| 730 | 2016-01-03 | day | 2016 | 1 | winter | 2959 | 0 | 1 | 0 | 8.833333333333334 | 6.375 | 82.66666666666667 | 17.375 | rain |
| 731 | 2016-01-03 | night | 2016 | 1 | winter | 1910 | 0 | 1 | 0 | 8.458333333333334 | 6.333333333333333 | 84.33333333333333 | 15 | clear |
| 732 | 2016-01-04 | day | 2016 | 1 | winter | 15094 | 1 | 0 | 0 | 9.375 | 7.791666666666667 | 82.375 | 12.75 | scattered clouds |
| 733 | 2016-01-04 | night | 2016 | 1 | winter | 5439 | 1 | 0 | 0 | 8.375 | 6.291666666666667 | 82.75 | 12.25 | clear |
| 734 | 2016-01-05 | day | 2016 | 1 | winter | 16754 | 1 | 0 | 0 | 9.416666666666666 | 8.625 | 83.91666666666667 | 7.458333333333333 | scattered clouds |
| 735 | 2016-01-05 | night | 2016 | 1 | winter | 6051 | 1 | 0 | 0 | 8.541666666666666 | 7.166666666666667 | 87.41666666666667 | 9.416666666666666 | scattered clouds |
| 736 | 2016-01-06 | day | 2016 | 1 | winter | 16465 | 1 | 0 | 0 | 7.5 | 6.541666666666667 | 89.375 | 6.333333333333333 | broken clouds |
| 737 | 2016-01-06 | night | 2016 | 1 | winter | 6573 | 1 | 0 | 0 | 6.583333333333333 | 5.375 | 91.20833333333333 | 6.75 | scattered clouds |
| 738 | 2016-01-07 | day | 2016 | 1 | winter | 12207 | 1 | 0 | 0 | 8.75 | 5.416666666666667 | 77.04166666666667 | 27.75 | rain |
| 739 | 2016-01-07 | night | 2016 | 1 | winter | 5876 | 1 | 0 | 0 | 7.166666666666667 | 3.7916666666666665 | 75.08333333333333 | 20.708333333333332 | clear |
| 740 | 2016-01-08 | day | 2016 | 1 | winter | 15566 | 1 | 0 | 0 | 8.166666666666666 | 5.958333333333333 | 75.41666666666667 | 13.708333333333334 | scattered clouds |
| 741 | 2016-01-08 | night | 2016 | 1 | winter | 5196 | 1 | 0 | 0 | 6.541666666666667 | 4.208333333333333 | 80.45833333333333 | 11.583333333333334 | clear |
| 742 | 2016-01-09 | day | 2016 | 1 | winter | 8976 | 0 | 1 | 0 | 10.25 | 9.333333333333334 | 81.45833333333333 | 16.916666666666668 | rain |
| 743 | 2016-01-09 | night | 2016 | 1 | winter | 2607 | 0 | 1 | 0 | 9.083333333333334 | 6.958333333333333 | 81.16666666666667 | 19.166666666666668 | NA |
| 744 | 2016-01-10 | day | 2016 | 1 | winter | 11375 | 0 | 1 | 0 | 7.541666666666667 | 4.291666666666667 | 73.29166666666667 | 20.416666666666668 | NA |
| 745 | 2016-01-10 | night | 2016 | 1 | winter | 2945 | 0 | 1 | 0 | 6.958333333333333 | 4.041666666666667 | 77.45833333333333 | 17.416666666666668 | clear |
| 746 | 2016-01-11 | day | 2016 | 1 | winter | 14920 | 1 | 0 | 0 | 7.333333333333333 | 4.625 | 81.83333333333333 | 15.833333333333334 | broken clouds |
| 747 | 2016-01-11 | night | 2016 | 1 | winter | 6172 | 1 | 0 | 0 | 6.75 | 3.8333333333333335 | 83.375 | 17.208333333333332 | rain |
| 748 | 2016-01-12 | day | 2016 | 1 | winter | 17070 | 1 | 0 | 0 | 6.541666666666667 | 2.125 | 74.33333333333333 | 29.291666666666668 | scattered clouds |
| 749 | 2016-01-12 | night | 2016 | 1 | winter | 5729 | 1 | 0 | 0 | 5.833333333333333 | 1.5416666666666667 | 81.58333333333333 | 26.333333333333332 | rain |
| 750 | 2016-01-13 | day | 2016 | 1 | winter | 18105 | 1 | 0 | 0 | 5.75 | 2.5833333333333335 | 67.08333333333333 | 16.875 | clear |
| 751 | 2016-01-13 | night | 2016 | 1 | winter | 6481 | 1 | 0 | 0 | 5.916666666666667 | 2.375 | 75.875 | 19.333333333333332 | clear |
| 752 | 2016-01-14 | day | 2016 | 1 | winter | 16004 | 1 | 0 | 0 | 4.5 | -0.375 | 73.83333333333333 | 27.333333333333332 | broken clouds |
| 753 | 2016-01-14 | night | 2016 | 1 | winter | 6182 | 1 | 0 | 0 | 4.458333333333333 | -0.041666666666666664 | 72.20833333333333 | 24.541666666666668 | clear |
| 754 | 2016-01-15 | day | 2016 | 1 | winter | 16972 | 1 | 0 | 0 | 4.5 | 0.2916666666666667 | 65.45833333333333 | 22.083333333333332 | scattered clouds |
| 755 | 2016-01-15 | night | 2016 | 1 | winter | 5474 | 1 | 0 | 0 | 3.5 | -0.875 | 74.58333333333333 | 20.791666666666668 | NA |
| 756 | 2016-01-16 | day | 2016 | 1 | winter | 11977 | 0 | 1 | 0 | 3.4166666666666665 | 0.6666666666666666 | 71.25 | 10.25 | clear |
| 757 | 2016-01-16 | night | 2016 | 1 | winter | 4114 | 0 | 1 | 0 | 2.7916666666666665 | 0.4583333333333333 | 80 | 8.875 | clear |
| 758 | 2016-01-17 | day | 2016 | 1 | winter | 8474 | 0 | 1 | 0 | 3.125 | 0.9166666666666666 | 81.25 | 8.333333333333334 | broken clouds |
| 759 | 2016-01-17 | night | 2016 | 1 | winter | 3288 | 0 | 1 | 0 | 2.7916666666666665 | 0.5833333333333334 | 79.375 | 9.791666666666666 | snowfall |
| 760 | 2016-01-18 | day | 2016 | 1 | winter | 16517 | 1 | 0 | 0 | 3.4583333333333335 | 0.375 | 74.5 | 12.75 | scattered clouds |
| 761 | 2016-01-18 | night | 2016 | 1 | winter | 6245 | 1 | 0 | 0 | 2.4166666666666665 | -0.125 | 76.25 | 10.125 | clear |
| 762 | 2016-01-19 | day | 2016 | 1 | winter | 17539 | 1 | 0 | 0 | 2.5 | 2.3333333333333335 | 61.666666666666664 | 2.25 | clear |
| 763 | 2016-01-19 | night | 2016 | 1 | winter | 6280 | 1 | 0 | 0 | 0.125 | -0.4166666666666667 | 75.375 | 3.2916666666666665 | clear |
| 764 | 2016-01-20 | day | 2016 | 1 | winter | 17238 | 1 | 0 | 0 | 2.5833333333333335 | 1 | 73.91666666666667 | 6.208333333333333 | scattered clouds |
| 765 | 2016-01-20 | night | 2016 | 1 | winter | 6562 | 1 | 0 | 0 | 0.5416666666666666 | -0.2916666666666667 | 80.91666666666667 | 4.625 | clear |
| 766 | 2016-01-21 | day | 2016 | 1 | winter | 16852 | 1 | 0 | 0 | 5.083333333333333 | 2.5416666666666665 | 70.29166666666667 | 11.916666666666666 | broken clouds |
| 767 | 2016-01-21 | night | 2016 | 1 | winter | 6526 | 1 | 0 | 0 | 2.2916666666666665 | -0.16666666666666666 | 82.875 | 9 | clear |
| 768 | 2016-01-22 | day | 2016 | 1 | winter | 12876 | 1 | 0 | 0 | 8.458333333333334 | 6.333333333333333 | 84.83333333333333 | 14.75 | rain |
| 769 | 2016-01-22 | night | 2016 | 1 | winter | 5452 | 1 | 0 | 0 | 7.666666666666667 | 4.875 | 74.95833333333333 | 15.958333333333334 | clear |
| 770 | 2016-01-23 | day | 2016 | 1 | winter | 13395 | 0 | 1 | 0 | 9 | 7.583333333333333 | 83.5 | 11.666666666666666 | clear |
| 771 | 2016-01-23 | night | 2016 | 1 | winter | 3823 | 0 | 1 | 0 | 8.333333333333334 | 5.875 | 83.875 | 15.708333333333334 | clear |
| 772 | 2016-01-24 | day | 2016 | 1 | winter | 12059 | 0 | 1 | 0 | 13.291666666666666 | 13.291666666666666 | 86.75 | 15.208333333333334 | broken clouds |
| 773 | 2016-01-24 | night | 2016 | 1 | winter | 4301 | 0 | 1 | 0 | 11.583333333333334 | 10.916666666666666 | 89.5 | 14.75 | broken clouds |
| 774 | 2016-01-25 | day | 2016 | 1 | winter | 18642 | 1 | 0 | 0 | 12.625 | 12.625 | 69.875 | 21.583333333333332 | clear |
| 775 | 2016-01-25 | night | 2016 | 1 | winter | 7082 | 1 | 0 | 0 | 11.75 | 11.083333333333334 | 74.875 | 18 | clear |
| 776 | 2016-01-26 | day | 2016 | 1 | winter | 14807 | 1 | 0 | 0 | 10.416666666666666 | 9.166666666666666 | 77.375 | 31.041666666666668 | rain |
| 777 | 2016-01-26 | night | 2016 | 1 | winter | 5417 | 1 | 0 | 0 | 9.958333333333334 | 8.791666666666666 | 83.29166666666667 | 23.375 | clear |
| 778 | 2016-01-27 | day | 2016 | 1 | winter | 14952 | 1 | 0 | 0 | 13.083333333333334 | 13.083333333333334 | 82.41666666666667 | 31.791666666666668 | broken clouds |
| 779 | 2016-01-27 | night | 2016 | 1 | winter | 6756 | 1 | 0 | 0 | 11.083333333333334 | 10.041666666666666 | 77.79166666666667 | 29.291666666666668 | rain |
| 780 | 2016-01-28 | day | 2016 | 1 | winter | 18492 | 1 | 0 | 0 | 7.875 | 4.833333333333333 | 62.208333333333336 | 20.666666666666668 | scattered clouds |
| 781 | 2016-01-28 | night | 2016 | 1 | winter | 6832 | 1 | 0 | 0 | 7.875 | 4.416666666666667 | 69.08333333333333 | 23.875 | clear |
| 782 | 2016-01-29 | day | 2016 | 1 | winter | 16646 | 1 | 0 | 0 | 11.958333333333334 | 11.958333333333334 | 76.375 | 33.916666666666664 | broken clouds |
| 783 | 2016-01-29 | night | 2016 | 1 | winter | 5880 | 1 | 0 | 0 | 11.625 | 11.291666666666666 | 79.5 | 33.666666666666664 | broken clouds |
| 784 | 2016-01-30 | day | 2016 | 1 | winter | 12525 | 0 | 1 | 0 | 8.041666666666666 | 4.333333333333333 | 61.208333333333336 | 27.583333333333332 | scattered clouds |
| 785 | 2016-01-30 | night | 2016 | 1 | winter | 3856 | 0 | 1 | 0 | 8.5 | 5.916666666666667 | 74.5 | 26.5 | clear |
| 786 | 2016-01-31 | day | 2016 | 1 | winter | 7346 | 0 | 1 | 0 | 10.458333333333334 | 9.458333333333334 | 82.04166666666667 | 20.75 | NA |
| 787 | 2016-01-31 | night | 2016 | 1 | winter | 3673 | 0 | 1 | 0 | 9.625 | 8.083333333333334 | 76.29166666666667 | 24.25 | clear |
| 788 | 2016-02-01 | day | 2016 | 2 | winter | 16996 | 1 | 0 | 0 | 13.291666666666666 | 13.291666666666666 | 68.25 | 35.041666666666664 | broken clouds |
| 789 | 2016-02-01 | night | 2016 | 2 | winter | 6610 | 1 | 0 | 0 | 12.25 | 11.916666666666666 | 68 | 34.833333333333336 | cloudy |
| 790 | 2016-02-02 | day | 2016 | 2 | winter | 17735 | 1 | 0 | 0 | 9.666666666666666 | 6.166666666666667 | 56.958333333333336 | 32.75 | scattered clouds |
| 791 | 2016-02-02 | night | 2016 | 2 | winter | 6779 | 1 | 0 | 0 | 8.333333333333334 | 4.5 | 65.41666666666667 | 27.375 | NA |
| 792 | 2016-02-03 | day | 2016 | 2 | winter | 17586 | 1 | 0 | 0 | 6.833333333333333 | 2.9166666666666665 | 64.33333333333333 | 25.583333333333332 | scattered clouds |
| 793 | 2016-02-03 | night | 2016 | 2 | winter | 6850 | 1 | 0 | 0 | 5.625 | 2.1666666666666665 | 72.08333333333333 | 18.666666666666668 | clear |
| 794 | 2016-02-04 | day | 2016 | 2 | winter | 17915 | 1 | 0 | 0 | 11.833333333333334 | 10.916666666666666 | 74.70833333333333 | 26.25 | broken clouds |
| 795 | 2016-02-04 | night | 2016 | 2 | winter | 7239 | 1 | 0 | 0 | 8.75 | 7.041666666666667 | 78.70833333333333 | 17.708333333333332 | scattered clouds |
| 796 | 2016-02-05 | day | 2016 | 2 | winter | 16841 | 1 | 0 | 0 | 10.875 | 10.583333333333334 | 80.04166666666667 | 23.541666666666668 | broken clouds |
| 797 | 2016-02-05 | night | 2016 | 2 | winter | 5756 | 1 | 0 | 0 | 10.833333333333334 | 10.291666666666666 | 77.83333333333333 | 21.125 | cloudy |
| 798 | 2016-02-06 | day | 2016 | 2 | winter | 10584 | 0 | 1 | 0 | 11.916666666666666 | 11.708333333333334 | 70.83333333333333 | 33.375 | broken clouds |
| 799 | 2016-02-06 | night | 2016 | 2 | winter | 2542 | 0 | 1 | 0 | 10.166666666666666 | 7.708333333333333 | 80.66666666666667 | 28.791666666666668 | rain |
| 800 | 2016-02-07 | day | 2016 | 2 | winter | 11778 | 0 | 1 | 0 | 8.583333333333334 | 4.75 | 63.333333333333336 | 29.791666666666668 | scattered clouds |
| 801 | 2016-02-07 | night | 2016 | 2 | winter | 2247 | 0 | 1 | 0 | 7.863636363636363 | 4.409090909090909 | 79.36363636363636 | 24.818181818181817 | rain |
| 802 | 2016-02-08 | day | 2016 | 2 | winter | 14132 | 1 | 0 | 0 | 9.125 | 4.666666666666667 | 64.25 | 43.625 | rain |
| 803 | 2016-02-08 | night | 2016 | 2 | winter | 5365 | 1 | 0 | 0 | 8.25 | 3.8333333333333335 | 61 | 36.916666666666664 | broken clouds |
| 804 | 2016-02-09 | day | 2016 | 2 | winter | 17271 | 1 | 0 | 0 | 6.791666666666667 | 3.3333333333333335 | 64.66666666666667 | 20.125 | scattered clouds |
| 805 | 2016-02-09 | night | 2016 | 2 | winter | 6037 | 1 | 0 | 0 | 5.875 | 1.9583333333333333 | 71.83333333333333 | 22.625 | scattered clouds |
| 806 | 2016-02-10 | day | 2016 | 2 | winter | 16817 | 1 | 0 | 0 | 7.458333333333333 | 4.125 | 69.54166666666667 | 20.5 | broken clouds |
| 807 | 2016-02-10 | night | 2016 | 2 | winter | 6809 | 1 | 0 | 0 | 5.75 | 2.5833333333333335 | 74.125 | 16.916666666666668 | clear |
| 808 | 2016-02-11 | day | 2016 | 2 | winter | 18283 | 1 | 0 | 0 | 5.958333333333333 | 4 | 67.25 | 9.375 | scattered clouds |
| 809 | 2016-02-11 | night | 2016 | 2 | winter | 6903 | 1 | 0 | 0 | 4.458333333333333 | 2.2916666666666665 | 78 | 8.75 | clear |
| 810 | 2016-02-12 | day | 2016 | 2 | winter | 17093 | 1 | 0 | 0 | 5.041666666666667 | 1.7083333333333333 | 82.79166666666667 | 16.875 | broken clouds |
| 811 | 2016-02-12 | night | 2016 | 2 | winter | 5726 | 1 | 0 | 0 | 4.458333333333333 | 2.2083333333333335 | 85.04166666666667 | 9.208333333333334 | broken clouds |
| 812 | 2016-02-13 | day | 2016 | 2 | winter | 7063 | 0 | 1 | 0 | 4.75 | 0.16666666666666666 | 83.125 | 25.708333333333332 | rain |
| 813 | 2016-02-13 | night | 2016 | 2 | winter | 2806 | 0 | 1 | 0 | 3.75 | 1.1666666666666667 | 88 | 11.166666666666666 | rain |
| 814 | 2016-02-14 | day | 2016 | 2 | winter | 10888 | 0 | 1 | 0 | 5.208333333333333 | 1.5416666666666667 | 67.66666666666667 | 19.125 | broken clouds |
| 815 | 2016-02-14 | night | 2016 | 2 | winter | 2809 | 0 | 1 | 0 | 3.6666666666666665 | 0.5833333333333334 | 78.08333333333333 | 12.833333333333334 | rain |
| 816 | 2016-02-15 | day | 2016 | 2 | winter | 15892 | 1 | 0 | 0 | 4.541666666666667 | 0.7083333333333334 | 70 | 19.333333333333332 | broken clouds |
| 817 | 2016-02-15 | night | 2016 | 2 | winter | 5897 | 1 | 0 | 0 | 2.7916666666666665 | -0.5833333333333334 | 80.91666666666667 | 13.291666666666666 | clear |
| 818 | 2016-02-16 | day | 2016 | 2 | winter | 17759 | 1 | 0 | 0 | 4.75 | 2.5 | 69.375 | 11.916666666666666 | scattered clouds |
| 819 | 2016-02-16 | night | 2016 | 2 | winter | 6627 | 1 | 0 | 0 | 2.5833333333333335 | 1.125 | 83.54166666666667 | 6.583333333333333 | clear |
| 820 | 2016-02-17 | day | 2016 | 2 | winter | 15741 | 1 | 0 | 0 | 5.5 | 2.4583333333333335 | 69.54166666666667 | 15 | broken clouds |
| 821 | 2016-02-17 | night | 2016 | 2 | winter | 3293 | 1 | 0 | 0 | 4.125 | 1.625 | 83.5 | 9.75 | rain |
| 822 | 2016-02-18 | day | 2016 | 2 | winter | 17057 | 1 | 0 | 0 | 6.041666666666667 | 3.1666666666666665 | 67.79166666666667 | 14.583333333333334 | scattered clouds |
| 823 | 2016-02-18 | night | 2016 | 2 | winter | 6460 | 1 | 0 | 0 | 4.5 | 1.9583333333333333 | 76.125 | 11.833333333333334 | rain |
| 824 | 2016-02-19 | day | 2016 | 2 | winter | 17068 | 1 | 0 | 0 | 6.833333333333333 | 3.625 | 72.79166666666667 | 19.25 | clear |
| 825 | 2016-02-19 | night | 2016 | 2 | winter | 5105 | 1 | 0 | 0 | 5.583333333333333 | 2.125 | 85.125 | 19.833333333333332 | clear |
| 826 | 2016-02-20 | day | 2016 | 2 | winter | 7539 | 0 | 1 | 0 | 11.090909090909092 | 10.409090909090908 | 78.95454545454545 | 27.681818181818183 | scattered clouds |
| 827 | 2016-02-20 | night | 2016 | 2 | winter | 3206 | 0 | 1 | 0 | 11.25 | 9.791666666666666 | 82.54166666666667 | 28.208333333333332 | broken clouds |
| 828 | 2016-02-21 | day | 2016 | 2 | winter | 10765 | 0 | 1 | 0 | 13.708333333333334 | 13.708333333333334 | 77.95833333333333 | 33.375 | NA |
| 829 | 2016-02-21 | night | 2016 | 2 | winter | 3905 | 0 | 1 | 0 | 12.708333333333334 | 12.708333333333334 | 80.41666666666667 | 28.208333333333332 | broken clouds |
| 830 | 2016-02-22 | day | 2016 | 2 | winter | 14248 | 1 | 0 | 0 | 8.583333333333334 | 6.166666666666667 | 74.04166666666667 | 15.291666666666666 | rain |
| 831 | 2016-02-22 | night | 2016 | 2 | winter | 6215 | 1 | 0 | 0 | 9.5 | 8.208333333333334 | 72.5 | 18.541666666666668 | rain |
| 832 | 2016-02-23 | day | 2016 | 2 | winter | 18829 | 1 | 0 | 0 | 7.416666666666667 | 4.833333333333333 | 65.625 | 14.583333333333334 | scattered clouds |
| 833 | 2016-02-23 | night | 2016 | 2 | winter | 6828 | 1 | 0 | 0 | 5.458333333333333 | 4.166666666666667 | 70.45833333333333 | 7.208333333333333 | clear |
| 834 | 2016-02-24 | day | 2016 | 2 | winter | 18569 | 1 | 0 | 0 | 5.041666666666667 | 3.875 | 62.75 | 6.875 | clear |
| 835 | 2016-02-24 | night | 2016 | 2 | winter | 6912 | 1 | 0 | 0 | 2.625 | 2.5 | 76.20833333333333 | 2.6666666666666665 | clear |
| 836 | 2016-02-25 | day | 2016 | 2 | winter | 17550 | 1 | 0 | 0 | 4.125 | 1.25 | 67.95833333333333 | 11.833333333333334 | scattered clouds |
| 837 | 2016-02-25 | night | 2016 | 2 | winter | 6624 | 1 | 0 | 0 | 2.1666666666666665 | 1.0833333333333333 | 70.58333333333333 | 5.333333333333333 | clear |
| 838 | 2016-02-26 | day | 2016 | 2 | winter | 17663 | 1 | 0 | 0 | 4.833333333333333 | 2.1666666666666665 | 61.25 | 13.25 | broken clouds |
| 839 | 2016-02-26 | night | 2016 | 2 | winter | 5917 | 1 | 0 | 0 | 3 | 0.75 | 76.125 | 9.791666666666666 | clear |
| 840 | 2016-02-27 | day | 2016 | 2 | winter | 10835 | 0 | 1 | 0 | 5.458333333333333 | 1.6666666666666667 | 58.083333333333336 | 21.791666666666668 | broken clouds |
| 841 | 2016-02-27 | night | 2016 | 2 | winter | 3910 | 0 | 1 | 0 | 4.291666666666667 | 1.25 | 67.875 | 13.75 | cloudy |
| 842 | 2016-02-28 | day | 2016 | 2 | winter | 10387 | 0 | 1 | 0 | 6 | 2.1666666666666665 | 59.25 | 22.458333333333332 | broken clouds |
| 843 | 2016-02-28 | night | 2016 | 2 | winter | 3064 | 0 | 1 | 0 | 4.125 | 0.5833333333333334 | 69.33333333333333 | 16.75 | broken clouds |
| 844 | 2016-02-29 | day | 2016 | 2 | winter | 17370 | 1 | 0 | 0 | 6.416666666666667 | 5.125 | 59.833333333333336 | 8.291666666666666 | scattered clouds |
| 845 | 2016-02-29 | night | 2016 | 2 | winter | 6215 | 1 | 0 | 0 | 4.583333333333333 | 2.25 | 71.25 | 10.375 | clear |
| 846 | 2016-03-01 | day | 2016 | 3 | spring | 14330 | 1 | 0 | 0 | 10.666666666666666 | 8.958333333333334 | 84.41666666666667 | 27.916666666666668 | broken clouds |
| 847 | 2016-03-01 | night | 2016 | 3 | spring | 6374 | 1 | 0 | 0 | 8.041666666666666 | 5.375 | 75.625 | 22.75 | scattered clouds |
| 848 | 2016-03-02 | day | 2016 | 3 | spring | 14873 | 1 | 0 | 0 | 5.833333333333333 | 0.9583333333333334 | 71.45833333333333 | 34.166666666666664 | scattered clouds |
| 849 | 2016-03-02 | night | 2016 | 3 | spring | 5762 | 1 | 0 | 0 | 6.791666666666667 | 2.625 | 72.91666666666667 | 27.833333333333332 | rain |
| 850 | 2016-03-03 | day | 2016 | 3 | spring | 18220 | 1 | 0 | 0 | 7.291666666666667 | 4.25 | 61.5 | 18.041666666666668 | scattered clouds |
| 851 | 2016-03-03 | night | 2016 | 3 | spring | 6196 | 1 | 0 | 0 | 6.75 | 2.875 | 73.79166666666667 | 25.541666666666668 | rain |
| 852 | 2016-03-04 | day | 2016 | 3 | spring | 18341 | 1 | 0 | 0 | 6.583333333333333 | 3.25 | 56.416666666666664 | 19.541666666666668 | scattered clouds |
| 853 | 2016-03-04 | night | 2016 | 3 | spring | 5629 | 1 | 0 | 0 | 5.583333333333333 | 3.125 | 75.33333333333333 | 14.166666666666666 | clear |
| 854 | 2016-03-05 | day | 2016 | 3 | spring | 9002 | 0 | 1 | 0 | 4.583333333333333 | 1 | 79.08333333333333 | 17.833333333333332 | broken clouds |
| 855 | 2016-03-05 | night | 2016 | 3 | spring | 3213 | 0 | 1 | 0 | 3 | 0.3333333333333333 | 81.08333333333333 | 11.583333333333334 | clear |
| 856 | 2016-03-06 | day | 2016 | 3 | spring | 9540 | 0 | 1 | 0 | 4.75 | 1.5416666666666667 | 73.08333333333333 | 15.875 | scattered clouds |
| 857 | 2016-03-06 | night | 2016 | 3 | spring | 2970 | 0 | 1 | 0 | 3.8333333333333335 | 0.8333333333333334 | 76 | 12.125 | clear |
| 858 | 2016-03-07 | day | 2016 | 3 | spring | 16321 | 1 | 0 | 0 | 5.333333333333333 | 1.75 | 61.25 | 18.458333333333332 | scattered clouds |
| 859 | 2016-03-07 | night | 2016 | 3 | spring | 6351 | 1 | 0 | 0 | 4.25 | 1.7083333333333333 | 70.33333333333333 | 10.833333333333334 | clear |
| 860 | 2016-03-08 | day | 2016 | 3 | spring | 17295 | 1 | 0 | 0 | 6.25 | 3.25 | 61.5 | 16.416666666666668 | scattered clouds |
| 861 | 2016-03-08 | night | 2016 | 3 | spring | 5834 | 1 | 0 | 0 | 4.625 | 2 | 81.29166666666667 | 13.583333333333334 | clear |
| 862 | 2016-03-09 | day | 2016 | 3 | spring | 13450 | 1 | 0 | 0 | 8.666666666666666 | 6.125 | 85.08333333333333 | 16.166666666666668 | rain |
| 863 | 2016-03-09 | night | 2016 | 3 | spring | 5692 | 1 | 0 | 0 | 7.375 | 4.333333333333333 | 88.58333333333333 | 17.833333333333332 | broken clouds |
| 864 | 2016-03-10 | day | 2016 | 3 | spring | 16758 | 1 | 0 | 0 | 7.666666666666667 | 6.083333333333333 | 80.125 | 8.708333333333334 | broken clouds |
| 865 | 2016-03-10 | night | 2016 | 3 | spring | 6746 | 1 | 0 | 0 | 5.916666666666667 | 4.666666666666667 | 86.66666666666667 | 6.333333333333333 | cloudy |
| 866 | 2016-03-11 | day | 2016 | 3 | spring | 14994 | 1 | 0 | 0 | 6.5 | 5.25 | 76.66666666666667 | 8.041666666666666 | clear |
| 867 | 2016-03-11 | night | 2016 | 3 | spring | 5899 | 1 | 0 | 0 | 3.7083333333333335 | 2.3333333333333335 | 89.70833333333333 | 6.375 | clear |
| 868 | 2016-03-12 | day | 2016 | 3 | spring | 16737 | 0 | 1 | 0 | 8.5 | 7.916666666666667 | 73.58333333333333 | 6.041666666666667 | broken clouds |
| 869 | 2016-03-12 | night | 2016 | 3 | spring | 4836 | 0 | 1 | 0 | 5.375 | 4.375 | 90.79166666666667 | 6.416666666666667 | clear |
| 870 | 2016-03-13 | day | 2016 | 3 | spring | 17692 | 0 | 1 | 0 | 6.5 | 3.625 | 75.125 | 18.75 | scattered clouds |
| 871 | 2016-03-13 | night | 2016 | 3 | spring | 3995 | 0 | 1 | 0 | 4.166666666666667 | 1.8333333333333333 | 88.70833333333333 | 10.583333333333334 | broken clouds |
| 872 | 2016-03-14 | day | 2016 | 3 | spring | 18829 | 1 | 0 | 0 | 7.5 | 3.5833333333333335 | 59.875 | 27.166666666666668 | clear |
| 873 | 2016-03-14 | night | 2016 | 3 | spring | 6619 | 1 | 0 | 0 | 5.875 | 3 | 77.29166666666667 | 14.791666666666666 | clear |
| 874 | 2016-03-15 | day | 2016 | 3 | spring | 18241 | 1 | 0 | 0 | 7.333333333333333 | 4.791666666666667 | 83.58333333333333 | 14 | broken clouds |
| 875 | 2016-03-15 | night | 2016 | 3 | spring | 6983 | 1 | 0 | 0 | 5.458333333333333 | 3.625 | 85.91666666666667 | 11.375 | broken clouds |
| 876 | 2016-03-16 | day | 2016 | 3 | spring | 18409 | 1 | 0 | 0 | 7.75 | 3.8333333333333335 | 65.625 | 26.916666666666668 | scattered clouds |
| 877 | 2016-03-16 | night | 2016 | 3 | spring | 6913 | 1 | 0 | 0 | 6.833333333333333 | 3.6666666666666665 | 82.08333333333333 | 17.25 | broken clouds |
| 878 | 2016-03-17 | day | 2016 | 3 | spring | 20058 | 1 | 0 | 0 | 8.166666666666666 | 5.916666666666667 | 60.625 | 16.5 | clear |
| 879 | 2016-03-17 | night | 2016 | 3 | spring | 7002 | 1 | 0 | 0 | 4.666666666666667 | 2.9166666666666665 | 80.95833333333333 | 7.833333333333333 | clear |
| 880 | 2016-03-18 | day | 2016 | 3 | spring | 17261 | 1 | 0 | 0 | 6.083333333333333 | 3.5833333333333335 | 81.16666666666667 | 12.458333333333334 | broken clouds |
| 881 | 2016-03-18 | night | 2016 | 3 | spring | 5786 | 1 | 0 | 0 | 5.25 | 2.6666666666666665 | 81.83333333333333 | 12.25 | cloudy |
| 882 | 2016-03-19 | day | 2016 | 3 | spring | 13089 | 0 | 1 | 0 | 7.583333333333333 | 4.708333333333333 | 71.91666666666667 | 17 | NA |
| 883 | 2016-03-19 | night | 2016 | 3 | spring | 4814 | 0 | 1 | 0 | 6.833333333333333 | 4.083333333333333 | 72.08333333333333 | 15.375 | cloudy |
| 884 | 2016-03-20 | day | 2016 | 3 | spring | 12640 | 0 | 1 | 0 | 8.416666666666666 | 6.625 | 67.20833333333333 | 13.75 | broken clouds |
| 885 | 2016-03-20 | night | 2016 | 3 | spring | 4403 | 0 | 1 | 0 | 7.416666666666667 | 5.375 | 76.70833333333333 | 11.833333333333334 | scattered clouds |
| 886 | 2016-03-21 | day | 2016 | 3 | spring | 18734 | 1 | 0 | 0 | 10.041666666666666 | 9.208333333333334 | 62.791666666666664 | 14.708333333333334 | broken clouds |
| 887 | 2016-03-21 | night | 2016 | 3 | spring | 7118 | 1 | 0 | 0 | 7.833333333333333 | 6.875 | 74.58333333333333 | 6.958333333333333 | clear |
| 888 | 2016-03-22 | day | 2016 | 3 | spring | 21501 | 1 | 0 | 0 | 10.208333333333334 | 10 | 56.916666666666664 | 6.125 | clear |
| 889 | 2016-03-22 | night | 2016 | 3 | spring | 7649 | 1 | 0 | 0 | 7.125 | 6.416666666666667 | 73.20833333333333 | 5.875 | clear |
| 890 | 2016-03-23 | day | 2016 | 3 | spring | 19599 | 1 | 0 | 0 | 9.208333333333334 | 8.541666666666666 | 64.16666666666667 | 6.583333333333333 | broken clouds |
| 891 | 2016-03-23 | night | 2016 | 3 | spring | 7238 | 1 | 0 | 0 | 8.416666666666666 | 7.875 | 69.29166666666667 | 5.833333333333333 | cloudy |
| 892 | 2016-03-24 | day | 2016 | 3 | spring | 15497 | 1 | 0 | 0 | 9.541666666666666 | 7.583333333333333 | 74.20833333333333 | 19.166666666666668 | rain |
| 893 | 2016-03-24 | night | 2016 | 3 | spring | 3832 | 1 | 0 | 0 | 8.416666666666666 | 5.958333333333333 | 77.625 | 15.166666666666666 | rain |
| 894 | 2016-03-25 | day | 2016 | 3 | spring | 19985 | 0 | 0 | 1 | 11.833333333333334 | 10.916666666666666 | 54.583333333333336 | 13.75 | clear |
| 895 | 2016-03-25 | night | 2016 | 3 | spring | 5251 | 0 | 0 | 1 | 9.541666666666666 | 7.625 | 78.20833333333333 | 14.5 | rain |
| 896 | 2016-03-26 | day | 2016 | 3 | spring | 8815 | 0 | 1 | 0 | 11.708333333333334 | 10.791666666666666 | 81.58333333333333 | 26.166666666666668 | broken clouds |
| 897 | 2016-03-26 | night | 2016 | 3 | spring | 1238 | 0 | 1 | 0 | 9.285714285714286 | 7.285714285714286 | 76.42857142857143 | 16.428571428571427 | clear |
| 898 | 2016-03-27 | day | 2016 | 3 | spring | 5720 | 0 | 1 | 0 | 10.285714285714286 | 8.857142857142858 | 65 | 36 | scattered clouds |
| 899 | 2016-03-27 | night | 2016 | 3 | spring | 2403 | 0 | 1 | 0 | 9.142857142857142 | 6.071428571428571 | 80.5 | 23 | rain |
| 900 | 2016-03-28 | day | 2016 | 3 | spring | 7902 | 0 | 0 | 1 | 9.583333333333334 | 6.875 | 62.25 | 40.666666666666664 | scattered clouds |
| 901 | 2016-03-28 | night | 2016 | 3 | spring | 2314 | 0 | 0 | 1 | 8.166666666666666 | 4.416666666666667 | 83.16666666666667 | 28.583333333333332 | rain |
| 902 | 2016-03-29 | day | 2016 | 3 | spring | 15254 | 1 | 0 | 0 | 9.958333333333334 | 7.791666666666667 | 58.583333333333336 | 26.291666666666668 | scattered clouds |
| 903 | 2016-03-29 | night | 2016 | 3 | spring | 3560 | 1 | 0 | 0 | 7.166666666666667 | 3.9166666666666665 | 80.66666666666667 | 19.916666666666668 | scattered clouds |
| 904 | 2016-03-30 | day | 2016 | 3 | spring | 18295 | 1 | 0 | 0 | 10.291666666666666 | 8.916666666666666 | 59.125 | 20.333333333333332 | NA |
| 905 | 2016-03-30 | night | 2016 | 3 | spring | 8221 | 1 | 0 | 0 | 8.25 | 6.041666666666667 | 73.16666666666667 | 15.125 | scattered clouds |
| 906 | 2016-03-31 | day | 2016 | 3 | spring | 20013 | 1 | 0 | 0 | 9.541666666666666 | 8.458333333333334 | 55.791666666666664 | 13.166666666666666 | clear |
| 907 | 2016-03-31 | night | 2016 | 3 | spring | 8291 | 1 | 0 | 0 | 8.041666666666666 | 7.125 | 70.5 | 8.166666666666666 | clear |
| 908 | 2016-04-01 | day | 2016 | 4 | spring | 19724 | 1 | 0 | 0 | 9.75 | 9.291666666666666 | 59.25 | 14.541666666666666 | clear |
| 909 | 2016-04-01 | night | 2016 | 4 | spring | 7413 | 1 | 0 | 0 | 7.291666666666667 | 6.5 | 73.75 | 7.791666666666667 | NA |
| 910 | 2016-04-02 | day | 2016 | 4 | spring | 21163 | 0 | 1 | 0 | 12.583333333333334 | 12.166666666666666 | 50.125 | 16.166666666666668 | clear |
| 911 | 2016-04-02 | night | 2016 | 4 | spring | 3204 | 0 | 1 | 0 | 8.875 | 6.75 | 74.125 | 13.5 | clear |
| 912 | 2016-04-03 | day | 2016 | 4 | spring | 20230 | 0 | 1 | 0 | 12.791666666666666 | 12.458333333333334 | 66.33333333333333 | 11.75 | scattered clouds |
| 913 | 2016-04-03 | night | 2016 | 4 | spring | 4711 | 0 | 1 | 0 | 10.333333333333334 | 9.625 | 88.75 | 10.875 | rain |
| 914 | 2016-04-04 | day | 2016 | 4 | spring | 17313 | 1 | 0 | 0 | 11.708333333333334 | 11.291666666666666 | 71.5 | 16.375 | scattered clouds |
| 915 | 2016-04-04 | night | 2016 | 4 | spring | 7796 | 1 | 0 | 0 | 10.458333333333334 | 9.708333333333334 | 83.54166666666667 | 10.791666666666666 | clear |
| 916 | 2016-04-05 | day | 2016 | 4 | spring | 21542 | 1 | 0 | 0 | 12.5 | 12 | 62.25 | 17.666666666666668 | scattered clouds |
| 917 | 2016-04-05 | night | 2016 | 4 | spring | 9033 | 1 | 0 | 0 | 10.666666666666666 | 9.833333333333334 | 69.16666666666667 | 12.166666666666666 | clear |
| 918 | 2016-04-06 | day | 2016 | 4 | spring | 16535 | 1 | 0 | 0 | 10.708333333333334 | 9.375 | 65.875 | 29.375 | broken clouds |
| 919 | 2016-04-06 | night | 2016 | 4 | spring | 7467 | 1 | 0 | 0 | 8.291666666666666 | 5.041666666666667 | 65.75 | 23.5 | clear |
| 920 | 2016-04-07 | day | 2016 | 4 | spring | 11707 | 1 | 0 | 0 | 8.272727272727273 | 4.954545454545454 | 74.68181818181819 | 23.772727272727273 | rain |
| 921 | 2016-04-07 | night | 2016 | 4 | spring | 6651 | 1 | 0 | 0 | 7.625 | 4.583333333333333 | 75.33333333333333 | 18.625 | clear |
| 922 | 2016-04-08 | day | 2016 | 4 | spring | 19671 | 1 | 0 | 0 | 10.625 | 10.041666666666666 | 67.375 | 8.875 | broken clouds |
| 923 | 2016-04-08 | night | 2016 | 4 | spring | 7520 | 1 | 0 | 0 | 8.541666666666666 | 6.833333333333333 | 77.45833333333333 | 13.5 | clear |
| 924 | 2016-04-09 | day | 2016 | 4 | spring | 14093 | 0 | 1 | 0 | 9.791666666666666 | 8.333333333333334 | 68.58333333333333 | 16.041666666666668 | scattered clouds |
| 925 | 2016-04-09 | night | 2016 | 4 | spring | 5611 | 0 | 1 | 0 | 8.166666666666666 | 5.666666666666667 | 72.79166666666667 | 15.625 | clear |
| 926 | 2016-04-10 | day | 2016 | 4 | spring | 18374 | 0 | 1 | 0 | 9.416666666666666 | 8 | 58.791666666666664 | 24.708333333333332 | clear |
| 927 | 2016-04-10 | night | 2016 | 4 | spring | 5044 | 0 | 1 | 0 | 7.166666666666667 | 4.75 | 75.375 | 16.041666666666668 | clear |
| 928 | 2016-04-11 | day | 2016 | 4 | spring | 16545 | 1 | 0 | 0 | 12.666666666666666 | 12.541666666666666 | 74.08333333333333 | 17.625 | clear |
| 929 | 2016-04-11 | night | 2016 | 4 | spring | 7465 | 1 | 0 | 0 | 11.125 | 10.083333333333334 | 83.16666666666667 | 14.458333333333334 | clear |
| 930 | 2016-04-12 | day | 2016 | 4 | spring | 21475 | 1 | 0 | 0 | 13.625 | 13.291666666666666 | 55.833333333333336 | 14.75 | scattered clouds |
| 931 | 2016-04-12 | night | 2016 | 4 | spring | 9270 | 1 | 0 | 0 | 10.708333333333334 | 9.916666666666666 | 77.16666666666667 | 11.041666666666666 | clear |
| 932 | 2016-04-13 | day | 2016 | 4 | spring | 22714 | 1 | 0 | 0 | 13.708333333333334 | 13.625 | 51.666666666666664 | 7.041666666666667 | clear |
| 933 | 2016-04-13 | night | 2016 | 4 | spring | 9048 | 1 | 0 | 0 | 11.416666666666666 | 11.083333333333334 | 66.16666666666667 | 7 | clear |
| 934 | 2016-04-14 | day | 2016 | 4 | spring | 21622 | 1 | 0 | 0 | 14.25 | 14.166666666666666 | 56.708333333333336 | 10.083333333333334 | clear |
| 935 | 2016-04-14 | night | 2016 | 4 | spring | 8989 | 1 | 0 | 0 | 12.083333333333334 | 11.75 | 66.25 | 9.833333333333334 | NA |
| 936 | 2016-04-15 | day | 2016 | 4 | spring | 11953 | 1 | 0 | 0 | 11.291666666666666 | 11.208333333333334 | 83.83333333333333 | 10.708333333333334 | rain |
| 937 | 2016-04-15 | night | 2016 | 4 | spring | 3808 | 1 | 0 | 0 | 9.916666666666666 | 9.041666666666666 | 88.45833333333333 | 7.833333333333333 | rain |
| 938 | 2016-04-16 | day | 2016 | 4 | spring | 11726 | 0 | 1 | 0 | 6.666666666666667 | 3.8333333333333335 | 72.45833333333333 | 16.333333333333332 | rain |
| 939 | 2016-04-16 | night | 2016 | 4 | spring | 5845 | 0 | 1 | 0 | 7.416666666666667 | 4.875 | 73.29166666666667 | 15.166666666666666 | scattered clouds |
| 940 | 2016-04-17 | day | 2016 | 4 | spring | 20277 | 0 | 1 | 0 | 8.125 | 6.666666666666667 | 55.291666666666664 | 10.25 | clear |
| 941 | 2016-04-17 | night | 2016 | 4 | spring | 6608 | 0 | 1 | 0 | 7.041666666666667 | 6.125 | 62.875 | 7.041666666666667 | clear |
| 942 | 2016-04-18 | day | 2016 | 4 | spring | 19936 | 1 | 0 | 0 | 10.083333333333334 | 9 | 59.708333333333336 | 20 | broken clouds |
| 943 | 2016-04-18 | night | 2016 | 4 | spring | 8284 | 1 | 0 | 0 | 8.958333333333334 | 7.708333333333333 | 61.916666666666664 | 14.166666666666666 | clear |
| 944 | 2016-04-19 | day | 2016 | 4 | spring | 23476 | 1 | 0 | 0 | 12.583333333333334 | 12.375 | 51.375 | 10.25 | scattered clouds |
| 945 | 2016-04-19 | night | 2016 | 4 | spring | 9866 | 1 | 0 | 0 | 10 | 8.333333333333334 | 71.70833333333333 | 15.458333333333334 | clear |
| 946 | 2016-04-20 | day | 2016 | 4 | spring | 24398 | 1 | 0 | 0 | 10.583333333333334 | 9.791666666666666 | 65.33333333333333 | 22.416666666666668 | clear |
| 947 | 2016-04-20 | night | 2016 | 4 | spring | 9799 | 1 | 0 | 0 | 7.666666666666667 | 5.5 | 79.20833333333333 | 15.833333333333334 | clear |
| 948 | 2016-04-21 | day | 2016 | 4 | spring | 22423 | 1 | 0 | 0 | 12.125 | 11.291666666666666 | 64.125 | 25.541666666666668 | NA |
| 949 | 2016-04-21 | night | 2016 | 4 | spring | 9189 | 1 | 0 | 0 | 9.125 | 7.666666666666667 | 70.5 | 14.833333333333334 | clear |
| 950 | 2016-04-22 | day | 2016 | 4 | spring | 17019 | 1 | 0 | 0 | 9.958333333333334 | 8.083333333333334 | 73.83333333333333 | 22.166666666666668 | rain |
| 951 | 2016-04-22 | night | 2016 | 4 | spring | 3323 | 1 | 0 | 0 | 8.291666666666666 | 5.583333333333333 | 74.5 | 16.791666666666668 | clear |
| 952 | 2016-04-23 | day | 2016 | 4 | spring | 15977 | 0 | 1 | 0 | 7.916666666666667 | 5.041666666666667 | 62.375 | 18.208333333333332 | scattered clouds |
| 953 | 2016-04-23 | night | 2016 | 4 | spring | 5785 | 0 | 1 | 0 | 7.291666666666667 | 5.75 | 66.70833333333333 | 9.166666666666666 | clear |
| 954 | 2016-04-24 | day | 2016 | 4 | spring | 13718 | 0 | 1 | 0 | 7.208333333333333 | 4.375 | 61.291666666666664 | 16.041666666666668 | scattered clouds |
| 955 | 2016-04-24 | night | 2016 | 4 | spring | 4879 | 0 | 1 | 0 | 7.333333333333333 | 5.708333333333333 | 69.79166666666667 | 9.666666666666666 | rain |
| 956 | 2016-04-25 | day | 2016 | 4 | spring | 17722 | 1 | 0 | 0 | 9.666666666666666 | 7.833333333333333 | 68.5 | 21.125 | scattered clouds |
| 957 | 2016-04-25 | night | 2016 | 4 | spring | 6427 | 1 | 0 | 0 | 6.416666666666667 | 3.625 | 79.91666666666667 | 15.416666666666666 | NA |
| 958 | 2016-04-26 | day | 2016 | 4 | spring | 20160 | 1 | 0 | 0 | 7.208333333333333 | 3.5416666666666665 | 53.875 | 22.416666666666668 | scattered clouds |
| 959 | 2016-04-26 | night | 2016 | 4 | spring | 7468 | 1 | 0 | 0 | 5.375 | 1.7083333333333333 | 69.375 | 19.458333333333332 | clear |
| 960 | 2016-04-27 | day | 2016 | 4 | spring | 20970 | 1 | 0 | 0 | 7.875 | 5.5 | 52.416666666666664 | 14.833333333333334 | scattered clouds |
| 961 | 2016-04-27 | night | 2016 | 4 | spring | 7187 | 1 | 0 | 0 | 5.25 | 2.625 | 74.125 | 12.666666666666666 | rain |
| 962 | 2016-04-28 | day | 2016 | 4 | spring | 20995 | 1 | 0 | 0 | 8.791666666666666 | 7.333333333333333 | 53.125 | 17.958333333333332 | scattered clouds |
| 963 | 2016-04-28 | night | 2016 | 4 | spring | 7614 | 1 | 0 | 0 | 7.083333333333333 | 5 | 75.25 | 15.958333333333334 | scattered clouds |
| 964 | 2016-04-29 | day | 2016 | 4 | spring | 18518 | 1 | 0 | 0 | 8.916666666666666 | 5.958333333333333 | 56.458333333333336 | 28.125 | scattered clouds |
| 965 | 2016-04-29 | night | 2016 | 4 | spring | 6867 | 1 | 0 | 0 | 8.25 | 5.458333333333333 | 64.41666666666667 | 20.333333333333332 | clear |
| 966 | 2016-04-30 | day | 2016 | 4 | spring | 17952 | 0 | 1 | 0 | 10.208333333333334 | 9.375 | 49 | 14.25 | clear |
| 967 | 2016-04-30 | night | 2016 | 4 | spring | 6746 | 0 | 1 | 0 | 7.958333333333333 | 6.541666666666667 | 62.958333333333336 | 10.291666666666666 | clear |
| 968 | 2016-05-01 | day | 2016 | 5 | spring | 21432 | 0 | 1 | 0 | 12.75 | 12.583333333333334 | 48.041666666666664 | 13.083333333333334 | clear |
| 969 | 2016-05-01 | night | 2016 | 5 | spring | 7817 | 0 | 1 | 0 | 9.25 | 8.666666666666666 | 68.54166666666667 | 11.791666666666666 | clear |
| 970 | 2016-05-02 | day | 2016 | 5 | spring | 14745 | 0 | 0 | 1 | 14.083333333333334 | 14.083333333333334 | 74.83333333333333 | 22.416666666666668 | broken clouds |
| 971 | 2016-05-02 | night | 2016 | 5 | spring | 4683 | 0 | 0 | 1 | 11.333333333333334 | 11.083333333333334 | 77.41666666666667 | 19.125 | scattered clouds |
| 972 | 2016-05-03 | day | 2016 | 5 | spring | 22525 | 1 | 0 | 0 | 12.625 | 12.041666666666666 | 47.75 | 16.208333333333332 | clear |
| 973 | 2016-05-03 | night | 2016 | 5 | spring | 9437 | 1 | 0 | 0 | 10.791666666666666 | 9.666666666666666 | 61 | 13.083333333333334 | clear |
| 974 | 2016-05-04 | day | 2016 | 5 | spring | 25711 | 1 | 0 | 0 | 15.125 | 15.125 | 45.541666666666664 | 12 | clear |
| 975 | 2016-05-04 | night | 2016 | 5 | spring | 10471 | 1 | 0 | 0 | 11.416666666666666 | 10.875 | 48.291666666666664 | 10.125 | clear |
| 976 | 2016-05-05 | day | 2016 | 5 | spring | 27596 | 1 | 0 | 0 | 16.833333333333332 | 16.791666666666668 | 41.791666666666664 | 16.583333333333332 | clear |
| 977 | 2016-05-05 | night | 2016 | 5 | spring | 11088 | 1 | 0 | 0 | 11.416666666666666 | 11.041666666666666 | 60.208333333333336 | 12.375 | clear |
| 978 | 2016-05-06 | day | 2016 | 5 | spring | 27758 | 1 | 0 | 0 | 17.208333333333332 | 17.083333333333332 | 55.333333333333336 | 15.541666666666666 | clear |
| 979 | 2016-05-06 | night | 2016 | 5 | spring | 11831 | 1 | 0 | 0 | 12.916666666666666 | 12.791666666666666 | 70.20833333333333 | 11.25 | clear |
| 980 | 2016-05-07 | day | 2016 | 5 | spring | 30654 | 0 | 1 | 0 | 19.375 | 19.25 | 57.875 | 14.708333333333334 | clear |
| 981 | 2016-05-07 | night | 2016 | 5 | spring | 13165 | 0 | 1 | 0 | 15.5 | 15.5 | 68.83333333333333 | 11.916666666666666 | clear |
| 982 | 2016-05-08 | day | 2016 | 5 | spring | 31549 | 0 | 1 | 0 | 22.041666666666668 | 22.041666666666668 | 48.958333333333336 | 18.791666666666668 | clear |
| 983 | 2016-05-08 | night | 2016 | 5 | spring | 13209 | 0 | 1 | 0 | 16.458333333333332 | 16.416666666666668 | 65.33333333333333 | 12.333333333333334 | clear |
| 984 | 2016-05-09 | day | 2016 | 5 | spring | 23122 | 1 | 0 | 0 | 19.875 | 19.75 | 56.666666666666664 | 19.416666666666668 | clear |
| 985 | 2016-05-09 | night | 2016 | 5 | spring | 7385 | 1 | 0 | 0 | 15.541666666666666 | 15.541666666666666 | 74.79166666666667 | 12.875 | clear |
| 986 | 2016-05-10 | day | 2016 | 5 | spring | 13168 | 1 | 0 | 0 | 15.833333333333334 | 15.833333333333334 | 93.25 | 17.666666666666668 | rain |
| 987 | 2016-05-10 | night | 2016 | 5 | spring | 8284 | 1 | 0 | 0 | 15.833333333333334 | 15.833333333333334 | 88.95833333333333 | 12.25 | rain |
| 988 | 2016-05-11 | day | 2016 | 5 | spring | 18187 | 1 | 0 | 0 | 16.5 | 16.5 | 91.04166666666667 | 10.458333333333334 | rain |
| 989 | 2016-05-11 | night | 2016 | 5 | spring | 9387 | 1 | 0 | 0 | 15.666666666666666 | 15.666666666666666 | 91.66666666666667 | 9.458333333333334 | rain |
| 990 | 2016-05-12 | day | 2016 | 5 | spring | 26037 | 1 | 0 | 0 | 19.208333333333332 | 19.125 | 61.541666666666664 | 18.541666666666668 | NA |
| 991 | 2016-05-12 | night | 2016 | 5 | spring | 12045 | 1 | 0 | 0 | 16.208333333333332 | 16.125 | 78.08333333333333 | 12.791666666666666 | NA |
| 992 | 2016-05-13 | day | 2016 | 5 | spring | 25858 | 1 | 0 | 0 | 15 | 15 | 70.75 | 19.583333333333332 | scattered clouds |
| 993 | 2016-05-13 | night | 2016 | 5 | spring | 8848 | 1 | 0 | 0 | 11.75 | 11.041666666666666 | 77.16666666666667 | 17 | cloudy |
| 994 | 2016-05-14 | day | 2016 | 5 | spring | 21102 | 0 | 1 | 0 | 10.375 | 9.083333333333334 | 53.375 | 15.583333333333334 | broken clouds |
| 995 | 2016-05-14 | night | 2016 | 5 | spring | 8944 | 0 | 1 | 0 | 10.208333333333334 | 8.875 | 60.125 | 12.916666666666666 | clear |
| 996 | 2016-05-15 | day | 2016 | 5 | spring | 24950 | 0 | 1 | 0 | 13.75 | 13.583333333333334 | 49.541666666666664 | 13.791666666666666 | clear |
| 997 | 2016-05-15 | night | 2016 | 5 | spring | 9352 | 0 | 1 | 0 | 10.625 | 10.333333333333334 | 67 | 11 | clear |
| 998 | 2016-05-16 | day | 2016 | 5 | spring | 25656 | 1 | 0 | 0 | 15.166666666666666 | 15.125 | 58.708333333333336 | 9.125 | clear |
| 999 | 2016-05-16 | night | 2016 | 5 | spring | 11389 | 1 | 0 | 0 | 13.166666666666666 | 13.083333333333334 | 65.66666666666667 | 8.833333333333334 | clear |
| 1000 | 2016-05-17 | day | 2016 | 5 | spring | 26119 | 1 | 0 | 0 | 15.708333333333334 | 15.708333333333334 | 53 | 15.833333333333334 | clear |
| 1001 | 2016-05-17 | night | 2016 | 5 | spring | 10326 | 1 | 0 | 0 | 13.208333333333334 | 13.208333333333334 | 70.95833333333333 | 15.375 | clear |
| 1002 | 2016-05-18 | day | 2016 | 5 | spring | 16672 | 1 | 0 | 0 | 13.041666666666666 | 13.041666666666666 | 80.29166666666667 | 15 | rain |
| 1003 | 2016-05-18 | night | 2016 | 5 | spring | 7439 | 1 | 0 | 0 | 12.791666666666666 | 12.791666666666666 | 79.66666666666667 | 15.458333333333334 | scattered clouds |
| 1004 | 2016-05-19 | day | 2016 | 5 | spring | 24028 | 1 | 0 | 0 | 15.208333333333334 | 15.208333333333334 | 68.625 | 13.75 | broken clouds |
| 1005 | 2016-05-19 | night | 2016 | 5 | spring | 10239 | 1 | 0 | 0 | 13.083333333333334 | 13.083333333333334 | 78.95833333333333 | 18.458333333333332 | NA |
| 1006 | 2016-05-20 | day | 2016 | 5 | spring | 25182 | 1 | 0 | 0 | 17.208333333333332 | 17.208333333333332 | 58.375 | 22.166666666666668 | scattered clouds |
| 1007 | 2016-05-20 | night | 2016 | 5 | spring | 10492 | 1 | 0 | 0 | 14.75 | 14.75 | 75.625 | 18.291666666666668 | rain |
| 1008 | 2016-05-21 | day | 2016 | 5 | spring | 18077 | 0 | 1 | 0 | 16.5 | 16.5 | 70.83333333333333 | 24.375 | broken clouds |
| 1009 | 2016-05-21 | night | 2016 | 5 | spring | 8296 | 0 | 1 | 0 | 15.375 | 15.375 | 77.29166666666667 | 14.125 | broken clouds |
| 1010 | 2016-05-22 | day | 2016 | 5 | spring | 22815 | 0 | 1 | 0 | 16.5 | 16.5 | 56.458333333333336 | 9.708333333333334 | clear |
| 1011 | 2016-05-22 | night | 2016 | 5 | spring | 7813 | 0 | 1 | 0 | 13.833333333333334 | 13.833333333333334 | 78.5 | 9.125 | rain |
| 1012 | 2016-05-23 | day | 2016 | 5 | spring | 24506 | 1 | 0 | 0 | 15.916666666666666 | 15.916666666666666 | 54.625 | 15.75 | scattered clouds |
| 1013 | 2016-05-23 | night | 2016 | 5 | spring | 10561 | 1 | 0 | 0 | 14.375 | 14.375 | 68.58333333333333 | 14.583333333333334 | NA |
| 1014 | 2016-05-24 | day | 2016 | 5 | spring | 25406 | 1 | 0 | 0 | 14.375 | 14.291666666666666 | 55.541666666666664 | 17.75 | scattered clouds |
| 1015 | 2016-05-24 | night | 2016 | 5 | spring | 10778 | 1 | 0 | 0 | 11.5 | 11.166666666666666 | 72 | 12.791666666666666 | clear |
| 1016 | 2016-05-25 | day | 2016 | 5 | spring | 22450 | 1 | 0 | 0 | 11.083333333333334 | 10.416666666666666 | 75.75 | 11.625 | broken clouds |
| 1017 | 2016-05-25 | night | 2016 | 5 | spring | 9164 | 1 | 0 | 0 | 11.083333333333334 | 10.333333333333334 | 71.83333333333333 | 11 | cloudy |
| 1018 | 2016-05-26 | day | 2016 | 5 | spring | 25955 | 1 | 0 | 0 | 15.958333333333334 | 15.958333333333334 | 59.375 | 8.583333333333334 | scattered clouds |
| 1019 | 2016-05-26 | night | 2016 | 5 | spring | 11158 | 1 | 0 | 0 | 12.75 | 12.75 | 78.08333333333333 | 11.083333333333334 | clear |
| 1020 | 2016-05-27 | day | 2016 | 5 | spring | 25546 | 1 | 0 | 0 | 16.666666666666668 | 16.666666666666668 | 61.583333333333336 | 15.375 | clear |
| 1021 | 2016-05-27 | night | 2016 | 5 | spring | 10162 | 1 | 0 | 0 | 13.541666666666666 | 13.541666666666666 | 81.41666666666667 | 15.833333333333334 | clear |
| 1022 | 2016-05-28 | day | 2016 | 5 | spring | 20303 | 0 | 1 | 0 | 15.208333333333334 | 15.208333333333334 | 74.91666666666667 | 11.5 | scattered clouds |
| 1023 | 2016-05-28 | night | 2016 | 5 | spring | 10528 | 0 | 1 | 0 | 13.5 | 13.416666666666666 | 79.75 | 11.041666666666666 | clear |
| 1024 | 2016-05-29 | day | 2016 | 5 | spring | 20335 | 0 | 1 | 0 | 14.416666666666666 | 14.333333333333334 | 76.08333333333333 | 16.291666666666668 | broken clouds |
| 1025 | 2016-05-29 | night | 2016 | 5 | spring | 10425 | 0 | 1 | 0 | 13.333333333333334 | 13.166666666666666 | 77.75 | 12.208333333333334 | clear |
| 1026 | 2016-05-30 | day | 2016 | 5 | spring | 16168 | 0 | 0 | 1 | 14.458333333333334 | 14.458333333333334 | 77 | 20.125 | broken clouds |
| 1027 | 2016-05-30 | night | 2016 | 5 | spring | 7529 | 0 | 0 | 1 | 14.375 | 14.375 | 73.5 | 19.75 | broken clouds |
| 1028 | 2016-05-31 | day | 2016 | 5 | spring | 9945 | 1 | 0 | 0 | 12.083333333333334 | 12.083333333333334 | 87.75 | 24.083333333333332 | rain |
| 1029 | 2016-05-31 | night | 2016 | 5 | spring | 6133 | 1 | 0 | 0 | 12.916666666666666 | 12.916666666666666 | 82.20833333333333 | 23.125 | broken clouds |
| 1030 | 2016-06-01 | day | 2016 | 6 | summer | 18254 | 1 | 0 | 0 | 12.875 | 12.875 | 88.75 | 18.583333333333332 | broken clouds |
| 1031 | 2016-06-01 | night | 2016 | 6 | summer | 8617 | 1 | 0 | 0 | 12.625 | 12.625 | 89.75 | 16.583333333333332 | broken clouds |
| 1032 | 2016-06-02 | day | 2016 | 6 | summer | 20136 | 1 | 0 | 0 | 11.666666666666666 | 11.666666666666666 | 80.41666666666667 | 21.875 | broken clouds |
| 1033 | 2016-06-02 | night | 2016 | 6 | summer | 8765 | 1 | 0 | 0 | 11.083333333333334 | 10.916666666666666 | 86.08333333333333 | 18.166666666666668 | broken clouds |
| 1034 | 2016-06-03 | day | 2016 | 6 | summer | 20776 | 1 | 0 | 0 | 11.583333333333334 | 11 | 80.29166666666667 | 13.416666666666666 | broken clouds |
| 1035 | 2016-06-03 | night | 2016 | 6 | summer | 8478 | 1 | 0 | 0 | 11 | 10 | 89.5 | 11.125 | broken clouds |
| 1036 | 2016-06-04 | day | 2016 | 6 | summer | 19887 | 0 | 1 | 0 | 15.416666666666666 | 15.416666666666666 | 85.79166666666667 | 9.375 | cloudy |
| 1037 | 2016-06-04 | night | 2016 | 6 | summer | 9810 | 0 | 1 | 0 | 14.875 | 14.875 | 88.5 | 7.833333333333333 | broken clouds |
| 1038 | 2016-06-05 | day | 2016 | 6 | summer | 27524 | 0 | 1 | 0 | 17.958333333333332 | 17.958333333333332 | 72.33333333333333 | 12.375 | broken clouds |
| 1039 | 2016-06-05 | night | 2016 | 6 | summer | 12705 | 0 | 1 | 0 | 14.875 | 14.875 | 85.95833333333333 | 11.625 | clear |
| 1040 | 2016-06-06 | day | 2016 | 6 | summer | 26522 | 1 | 0 | 0 | 17.416666666666668 | 17.291666666666668 | 63.583333333333336 | 15.666666666666666 | clear |
| 1041 | 2016-06-06 | night | 2016 | 6 | summer | 12528 | 1 | 0 | 0 | 14.375 | 14.375 | 76.75 | 13 | clear |
| 1042 | 2016-06-07 | day | 2016 | 6 | summer | 23124 | 1 | 0 | 0 | 19.291666666666668 | 19.291666666666668 | 70.125 | 7.916666666666667 | clear |
| 1043 | 2016-06-07 | night | 2016 | 6 | summer | 11552 | 1 | 0 | 0 | 15.708333333333334 | 15.708333333333334 | 74.29166666666667 | 9 | clear |
| 1044 | 2016-06-08 | day | 2016 | 6 | summer | 22267 | 1 | 0 | 0 | 20.75 | 20.75 | 70 | 5.25 | scattered clouds |
| 1045 | 2016-06-08 | night | 2016 | 6 | summer | 11929 | 1 | 0 | 0 | 16.208333333333332 | 16.208333333333332 | 76.58333333333333 | 9.5 | rain |
| 1046 | 2016-06-09 | day | 2016 | 6 | summer | 27505 | 1 | 0 | 0 | 16.125 | 16.125 | 72.29166666666667 | 11 | clear |
| 1047 | 2016-06-09 | night | 2016 | 6 | summer | 13660 | 1 | 0 | 0 | 15.083333333333334 | 15.083333333333334 | 78.45833333333333 | 11.708333333333334 | clear |
| 1048 | 2016-06-10 | day | 2016 | 6 | summer | 27507 | 1 | 0 | 0 | 19.166666666666668 | 19.041666666666668 | 51.166666666666664 | 9.791666666666666 | clear |
| 1049 | 2016-06-10 | night | 2016 | 6 | summer | 12130 | 1 | 0 | 0 | 16.125 | 16.125 | 77.29166666666667 | 10.25 | clear |
| 1050 | 2016-06-11 | day | 2016 | 6 | summer | 19842 | 0 | 1 | 0 | 19.125 | 19.125 | 68.58333333333333 | 7.291666666666667 | scattered clouds |
| 1051 | 2016-06-11 | night | 2016 | 6 | summer | 8786 | 0 | 1 | 0 | 17.208333333333332 | 17.208333333333332 | 78.41666666666667 | 6.833333333333333 | rain |
| 1052 | 2016-06-12 | day | 2016 | 6 | summer | 10045 | 0 | 1 | 0 | 16.958333333333332 | 16.958333333333332 | 81.20833333333333 | 11.833333333333334 | rain |
| 1053 | 2016-06-12 | night | 2016 | 6 | summer | 7796 | 0 | 1 | 0 | 17.458333333333332 | 17.458333333333332 | 81.95833333333333 | 11.25 | scattered clouds |
| 1054 | 2016-06-13 | day | 2016 | 6 | summer | 18250 | 1 | 0 | 0 | 16.916666666666668 | 16.916666666666668 | 80.04166666666667 | 18.083333333333332 | rain |
| 1055 | 2016-06-13 | night | 2016 | 6 | summer | 9043 | 1 | 0 | 0 | 16.458333333333332 | 16.458333333333332 | 82.45833333333333 | 12.541666666666666 | broken clouds |
| 1056 | 2016-06-14 | day | 2016 | 6 | summer | 19364 | 1 | 0 | 0 | 16.666666666666668 | 16.666666666666668 | 79.45833333333333 | 20 | rain |
| 1057 | 2016-06-14 | night | 2016 | 6 | summer | 10488 | 1 | 0 | 0 | 15.666666666666666 | 15.666666666666666 | 82.79166666666667 | 13.75 | scattered clouds |
| 1058 | 2016-06-15 | day | 2016 | 6 | summer | 25509 | 1 | 0 | 0 | 17.75 | 17.75 | 61.458333333333336 | 17.875 | scattered clouds |
| 1059 | 2016-06-15 | night | 2016 | 6 | summer | 11802 | 1 | 0 | 0 | 15.208333333333334 | 15.208333333333334 | 74.83333333333333 | 13.958333333333334 | clear |
| 1060 | 2016-06-16 | day | 2016 | 6 | summer | 21939 | 1 | 0 | 0 | 16.958333333333332 | 16.958333333333332 | 69 | 13.125 | broken clouds |
| 1061 | 2016-06-16 | night | 2016 | 6 | summer | 9171 | 1 | 0 | 0 | 15.083333333333334 | 15.083333333333334 | 82.125 | 8.166666666666666 | scattered clouds |
| 1062 | 2016-06-17 | day | 2016 | 6 | summer | 22321 | 1 | 0 | 0 | 16.083333333333332 | 16.083333333333332 | 77.54166666666667 | 12.208333333333334 | broken clouds |
| 1063 | 2016-06-17 | night | 2016 | 6 | summer | 9320 | 1 | 0 | 0 | 14.958333333333334 | 14.958333333333334 | 84.25 | 7.791666666666667 | scattered clouds |
| 1064 | 2016-06-18 | day | 2016 | 6 | summer | 20057 | 0 | 1 | 0 | 15.125 | 15.125 | 73.91666666666667 | 13.458333333333334 | broken clouds |
| 1065 | 2016-06-18 | night | 2016 | 6 | summer | 9169 | 0 | 1 | 0 | 14.666666666666666 | 14.666666666666666 | 78.45833333333333 | 8.958333333333334 | clear |
| 1066 | 2016-06-19 | day | 2016 | 6 | summer | 23812 | 0 | 1 | 0 | 18.458333333333332 | 18.458333333333332 | 63.333333333333336 | 17.625 | broken clouds |
| 1067 | 2016-06-19 | night | 2016 | 6 | summer | 7142 | 0 | 1 | 0 | 15.458333333333334 | 15.458333333333334 | 82.04166666666667 | 15.125 | rain |
| 1068 | 2016-06-20 | day | 2016 | 6 | summer | 12226 | 1 | 0 | 0 | 18 | 18 | 84.04166666666667 | 20.708333333333332 | rain |
| 1069 | 2016-06-20 | night | 2016 | 6 | summer | 9831 | 1 | 0 | 0 | 18.125 | 18.125 | 77.33333333333333 | 20.041666666666668 | rain |
| 1070 | 2016-06-21 | day | 2016 | 6 | summer | 26844 | 1 | 0 | 0 | 19.791666666666668 | 19.791666666666668 | 59.208333333333336 | 18.166666666666668 | broken clouds |
| 1071 | 2016-06-21 | night | 2016 | 6 | summer | 11707 | 1 | 0 | 0 | 17.75 | 17.75 | 72.125 | 14.083333333333334 | clear |
| 1072 | 2016-06-22 | day | 2016 | 6 | summer | 24689 | 1 | 0 | 0 | 20 | 20 | 77.125 | 13.125 | broken clouds |
| 1073 | 2016-06-22 | night | 2016 | 6 | summer | 11537 | 1 | 0 | 0 | 18.291666666666668 | 18.291666666666668 | 80.70833333333333 | 9.416666666666666 | clear |
| 1074 | 2016-06-23 | day | 2016 | 6 | summer | 16996 | 1 | 0 | 0 | 20.583333333333332 | 20.583333333333332 | 87.91666666666667 | 10.875 | rain |
| 1075 | 2016-06-23 | night | 2016 | 6 | summer | 7856 | 1 | 0 | 0 | 19.291666666666668 | 19.291666666666668 | 92 | 10.333333333333334 | rain |
| 1076 | 2016-06-24 | day | 2016 | 6 | summer | 8615 | 1 | 0 | 0 | 21.666666666666668 | 21.666666666666668 | 51 | 26 | scattered clouds |
| 1077 | 2016-06-24 | night | 2016 | 6 | summer | 9765 | 1 | 0 | 0 | 18.333333333333332 | 18.333333333333332 | 63 | 19.5 | scattered clouds |
| 1078 | 2016-06-25 | day | 2016 | 6 | summer | 18698 | 0 | 1 | 0 | 16.791666666666668 | 16.791666666666668 | 68.375 | 14.083333333333334 | rain |
| 1079 | 2016-06-25 | night | 2016 | 6 | summer | 7241 | 0 | 1 | 0 | 15.333333333333334 | 15.333333333333334 | 78.54166666666667 | 13.041666666666666 | clear |
| 1080 | 2016-06-26 | day | 2016 | 6 | summer | 21477 | 0 | 1 | 0 | 17.708333333333332 | 17.708333333333332 | 64.16666666666667 | 21.041666666666668 | broken clouds |
| 1081 | 2016-06-26 | night | 2016 | 6 | summer | 7635 | 0 | 1 | 0 | 15.5 | 15.5 | 78.125 | 17.5 | scattered clouds |
| 1082 | 2016-06-27 | day | 2016 | 6 | summer | 22565 | 1 | 0 | 0 | 18.958333333333332 | 18.958333333333332 | 65.875 | 18.166666666666668 | broken clouds |
| 1083 | 2016-06-27 | night | 2016 | 6 | summer | 10734 | 1 | 0 | 0 | 17.166666666666668 | 17.166666666666668 | 72.04166666666667 | 13.916666666666666 | clear |
| 1084 | 2016-06-28 | day | 2016 | 6 | summer | 23852 | 1 | 0 | 0 | 18.291666666666668 | 18.291666666666668 | 52.208333333333336 | 12.208333333333334 | scattered clouds |
| 1085 | 2016-06-28 | night | 2016 | 6 | summer | 7436 | 1 | 0 | 0 | 14.916666666666666 | 14.916666666666666 | 73.875 | 12.333333333333334 | rain |
| 1086 | 2016-06-29 | day | 2016 | 6 | summer | 21383 | 1 | 0 | 0 | 16.125 | 16.125 | 74.25 | 24.416666666666668 | rain |
| 1087 | 2016-06-29 | night | 2016 | 6 | summer | 9827 | 1 | 0 | 0 | 14.75 | 14.75 | 82.29166666666667 | 21.625 | broken clouds |
| 1088 | 2016-06-30 | day | 2016 | 6 | summer | 24753 | 1 | 0 | 0 | 18.291666666666668 | 18.291666666666668 | 68.70833333333333 | 17.541666666666668 | scattered clouds |
| 1089 | 2016-06-30 | night | 2016 | 6 | summer | 10679 | 1 | 0 | 0 | 16.208333333333332 | 16.208333333333332 | 79.41666666666667 | 19.291666666666668 | rain |
| 1090 | 2016-07-01 | day | 2016 | 7 | summer | 18794 | 1 | 0 | 0 | 17.541666666666668 | 17.541666666666668 | 72.25 | 21.875 | rain |
| 1091 | 2016-07-01 | night | 2016 | 7 | summer | 8936 | 1 | 0 | 0 | 16 | 16 | 74.33333333333333 | 22.666666666666668 | broken clouds |
| 1092 | 2016-07-02 | day | 2016 | 7 | summer | 21633 | 0 | 1 | 0 | 16.791666666666668 | 16.791666666666668 | 58.083333333333336 | 27.625 | NA |
| 1093 | 2016-07-02 | night | 2016 | 7 | summer | 8689 | 0 | 1 | 0 | 14.166666666666666 | 14.166666666666666 | 73.54166666666667 | 19.875 | clear |
| 1094 | 2016-07-03 | day | 2016 | 7 | summer | 23095 | 0 | 1 | 0 | 18.125 | 18.125 | 58.75 | 14.166666666666666 | scattered clouds |
| 1095 | 2016-07-03 | night | 2016 | 7 | summer | 10573 | 0 | 1 | 0 | 15.583333333333334 | 15.583333333333334 | 72.54166666666667 | 14.708333333333334 | NA |
| 1096 | 2016-07-04 | day | 2016 | 7 | summer | 26039 | 1 | 0 | 0 | 19.083333333333332 | 19.083333333333332 | 60.958333333333336 | 15.333333333333334 | scattered clouds |
| 1097 | 2016-07-04 | night | 2016 | 7 | summer | 11182 | 1 | 0 | 0 | 15.833333333333334 | 15.833333333333334 | 82.91666666666667 | 15.708333333333334 | broken clouds |
| 1098 | 2016-07-05 | day | 2016 | 7 | summer | 26894 | 1 | 0 | 0 | 18.625 | 18.625 | 59.416666666666664 | 22.166666666666668 | NA |
| 1099 | 2016-07-05 | night | 2016 | 7 | summer | 13569 | 1 | 0 | 0 | 17.458333333333332 | 17.458333333333332 | 67.29166666666667 | 16.791666666666668 | broken clouds |
| 1100 | 2016-07-06 | day | 2016 | 7 | summer | 28751 | 1 | 0 | 0 | 18.416666666666668 | 18.291666666666668 | 49.666666666666664 | 9.666666666666666 | clear |
| 1101 | 2016-07-06 | night | 2016 | 7 | summer | 13661 | 1 | 0 | 0 | 17.041666666666668 | 16.958333333333332 | 57.416666666666664 | 9.541666666666666 | clear |
| 1102 | 2016-07-07 | day | 2016 | 7 | summer | 28250 | 1 | 0 | 0 | 20.208333333333332 | 20.166666666666668 | 54.291666666666664 | 14.666666666666666 | clear |
| 1103 | 2016-07-07 | night | 2016 | 7 | summer | 10907 | 1 | 0 | 0 | 18.458333333333332 | 18.458333333333332 | 65.5 | 14.083333333333334 | clear |
| 1104 | 2016-07-08 | day | 2016 | 7 | summer | 25561 | 1 | 0 | 0 | 20.541666666666668 | 20.541666666666668 | 64.375 | 27.708333333333332 | scattered clouds |
| 1105 | 2016-07-08 | night | 2016 | 7 | summer | 11281 | 1 | 0 | 0 | 18.708333333333332 | 18.708333333333332 | 68 | 18.541666666666668 | clear |
| 1106 | 2016-07-09 | day | 2016 | 7 | summer | 22954 | 0 | 1 | 0 | 21.375 | 21.375 | 64.33333333333333 | 22.083333333333332 | scattered clouds |
| 1107 | 2016-07-09 | night | 2016 | 7 | summer | 11014 | 0 | 1 | 0 | 18.875 | 18.875 | 71.16666666666667 | 17.416666666666668 | clear |
| 1108 | 2016-07-10 | day | 2016 | 7 | summer | 18196 | 0 | 1 | 0 | 20.083333333333332 | 20.083333333333332 | 72.75 | 23.958333333333332 | cloudy |
| 1109 | 2016-07-10 | night | 2016 | 7 | summer | 10939 | 0 | 1 | 0 | 18.75 | 18.75 | 71.83333333333333 | 21.25 | scattered clouds |
| 1110 | 2016-07-11 | day | 2016 | 7 | summer | 21388 | 1 | 0 | 0 | 18.875 | 18.875 | 69.83333333333333 | 25.5 | broken clouds |
| 1111 | 2016-07-11 | night | 2016 | 7 | summer | 11032 | 1 | 0 | 0 | 17.208333333333332 | 17.208333333333332 | 77.54166666666667 | 18.5 | scattered clouds |
| 1112 | 2016-07-12 | day | 2016 | 7 | summer | 19756 | 1 | 0 | 0 | 16.375 | 16.375 | 74.70833333333333 | 17.208333333333332 | rain |
| 1113 | 2016-07-12 | night | 2016 | 7 | summer | 10113 | 1 | 0 | 0 | 15.041666666666666 | 15.041666666666666 | 82.29166666666667 | 13.583333333333334 | clear |
| 1114 | 2016-07-13 | day | 2016 | 7 | summer | 24224 | 1 | 0 | 0 | 16.166666666666668 | 16.166666666666668 | 65.45833333333333 | 17.208333333333332 | scattered clouds |
| 1115 | 2016-07-13 | night | 2016 | 7 | summer | 11467 | 1 | 0 | 0 | 14.791666666666666 | 14.791666666666666 | 75.41666666666667 | 13.083333333333334 | rain |
| 1116 | 2016-07-14 | day | 2016 | 7 | summer | 26904 | 1 | 0 | 0 | 17.625 | 17.625 | 57.208333333333336 | 15.666666666666666 | scattered clouds |
| 1117 | 2016-07-14 | night | 2016 | 7 | summer | 13019 | 1 | 0 | 0 | 16.791666666666668 | 16.791666666666668 | 61 | 11.25 | clear |
| 1118 | 2016-07-15 | day | 2016 | 7 | summer | 25852 | 1 | 0 | 0 | 18.25 | 18.25 | 61.166666666666664 | 17.791666666666668 | clear |
| 1119 | 2016-07-15 | night | 2016 | 7 | summer | 10749 | 1 | 0 | 0 | 16.541666666666668 | 16.541666666666668 | 77.91666666666667 | 15.625 | clear |
| 1120 | 2016-07-16 | day | 2016 | 7 | summer | 25773 | 0 | 1 | 0 | 22.708333333333332 | 22.75 | 65.83333333333333 | 20.333333333333332 | scattered clouds |
| 1121 | 2016-07-16 | night | 2016 | 7 | summer | 12576 | 0 | 1 | 0 | 20.583333333333332 | 20.583333333333332 | 73.91666666666667 | 21 | cloudy |
| 1122 | 2016-07-17 | day | 2016 | 7 | summer | 23998 | 0 | 1 | 0 | 23.916666666666668 | 23.958333333333332 | 64.54166666666667 | 18.583333333333332 | scattered clouds |
| 1123 | 2016-07-17 | night | 2016 | 7 | summer | 13771 | 0 | 1 | 0 | 22.041666666666668 | 22.041666666666668 | 69.95833333333333 | 17.125 | scattered clouds |
| 1124 | 2016-07-18 | day | 2016 | 7 | summer | 27724 | 1 | 0 | 0 | 24.791666666666668 | 24.458333333333332 | 47.083333333333336 | 6.166666666666667 | clear |
| 1125 | 2016-07-18 | night | 2016 | 7 | summer | 15471 | 1 | 0 | 0 | 22.208333333333332 | 22.291666666666668 | 69.95833333333333 | 10.458333333333334 | clear |
| 1126 | 2016-07-19 | day | 2016 | 7 | summer | 29485 | 1 | 0 | 0 | 27.583333333333332 | 27.583333333333332 | 52.291666666666664 | 15.5 | clear |
| 1127 | 2016-07-19 | night | 2016 | 7 | summer | 16536 | 1 | 0 | 0 | 21.708333333333332 | 21.875 | 72.91666666666667 | 13.416666666666666 | clear |
| 1128 | 2016-07-20 | day | 2016 | 7 | summer | 28706 | 1 | 0 | 0 | 26.416666666666668 | 26.666666666666668 | 56.708333333333336 | 21.291666666666668 | clear |
| 1129 | 2016-07-20 | night | 2016 | 7 | summer | 15958 | 1 | 0 | 0 | 23.541666666666668 | 23.416666666666668 | 61.291666666666664 | 16.791666666666668 | clear |
| 1130 | 2016-07-21 | day | 2016 | 7 | summer | 27713 | 1 | 0 | 0 | 21.625 | 21.625 | 57.083333333333336 | 9.083333333333334 | scattered clouds |
| 1131 | 2016-07-21 | night | 2016 | 7 | summer | 13559 | 1 | 0 | 0 | 20 | 20 | 66.66666666666667 | 13.125 | clear |
| 1132 | 2016-07-22 | day | 2016 | 7 | summer | 23738 | 1 | 0 | 0 | 21.833333333333332 | 21.833333333333332 | 63.583333333333336 | 9.208333333333334 | scattered clouds |
| 1133 | 2016-07-22 | night | 2016 | 7 | summer | 12258 | 1 | 0 | 0 | 20.416666666666668 | 20.416666666666668 | 70.25 | 8.666666666666666 | clear |
| 1134 | 2016-07-23 | day | 2016 | 7 | summer | 26821 | 0 | 1 | 0 | 23.875 | 23.875 | 58.958333333333336 | 8.458333333333334 | clear |
| 1135 | 2016-07-23 | night | 2016 | 7 | summer | 14645 | 0 | 1 | 0 | 20.375 | 20.375 | 69.70833333333333 | 11.5 | clear |
| 1136 | 2016-07-24 | day | 2016 | 7 | summer | 26083 | 0 | 1 | 0 | 22.041666666666668 | 22.041666666666668 | 60.75 | 17.708333333333332 | scattered clouds |
| 1137 | 2016-07-24 | night | 2016 | 7 | summer | 12470 | 0 | 1 | 0 | 19.5 | 19.5 | 74.25 | 15.541666666666666 | clear |
| 1138 | 2016-07-25 | day | 2016 | 7 | summer | 27205 | 1 | 0 | 0 | 21.125 | 20.75 | 54.041666666666664 | 19.416666666666668 | scattered clouds |
| 1139 | 2016-07-25 | night | 2016 | 7 | summer | 13372 | 1 | 0 | 0 | 19.75 | 19.458333333333332 | 63.791666666666664 | 17.416666666666668 | clear |
| 1140 | 2016-07-26 | day | 2016 | 7 | summer | 28524 | 1 | 0 | 0 | 20.5 | 20.458333333333332 | 56.791666666666664 | 13 | scattered clouds |
| 1141 | 2016-07-26 | night | 2016 | 7 | summer | 13497 | 1 | 0 | 0 | 19 | 19 | 65.625 | 15.291666666666666 | clear |
| 1142 | 2016-07-27 | day | 2016 | 7 | summer | 21308 | 1 | 0 | 0 | 20.75 | 20.75 | 73.58333333333333 | 20 | rain |
| 1143 | 2016-07-27 | night | 2016 | 7 | summer | 12031 | 1 | 0 | 0 | 20.166666666666668 | 20.166666666666668 | 70.08333333333333 | 13.916666666666666 | rain |
| 1144 | 2016-07-28 | day | 2016 | 7 | summer | 22500 | 1 | 0 | 0 | 19.636363636363637 | 19.636363636363637 | 58.95454545454545 | 13.272727272727273 | scattered clouds |
| 1145 | 2016-07-28 | night | 2016 | 7 | summer | 8744 | 1 | 0 | 0 | 18.454545454545453 | 18.454545454545453 | 73.04545454545455 | 10.818181818181818 | scattered clouds |
| 1146 | 2016-07-29 | day | 2016 | 7 | summer | 23875 | 1 | 0 | 0 | 20.458333333333332 | 20.458333333333332 | 68.54166666666667 | 19.041666666666668 | NA |
| 1147 | 2016-07-29 | night | 2016 | 7 | summer | 11478 | 1 | 0 | 0 | 19.333333333333332 | 19.333333333333332 | 75.91666666666667 | 16.375 | scattered clouds |
| 1148 | 2016-07-30 | day | 2016 | 7 | summer | 31312 | 0 | 1 | 0 | 19.708333333333332 | 19.583333333333332 | 63.083333333333336 | 10 | NA |
| 1149 | 2016-07-30 | night | 2016 | 7 | summer | 14296 | 0 | 1 | 0 | 19.333333333333332 | 19.208333333333332 | 63.458333333333336 | 10.916666666666666 | clear |
| 1150 | 2016-07-31 | day | 2016 | 7 | summer | 31061 | 0 | 1 | 0 | 19.25 | 19.208333333333332 | 53.041666666666664 | 12 | scattered clouds |
| 1151 | 2016-07-31 | night | 2016 | 7 | summer | 13617 | 0 | 1 | 0 | 18.318181818181817 | 18.318181818181817 | 58.13636363636363 | 9.363636363636363 | NA |
| 1152 | 2016-08-01 | day | 2016 | 8 | summer | 22950 | 1 | 0 | 0 | 17.416666666666668 | 17.416666666666668 | 62.083333333333336 | 13.875 | clear |
| 1153 | 2016-08-01 | night | 2016 | 8 | summer | 6799 | 1 | 0 | 0 | 16.208333333333332 | 16.208333333333332 | 73.66666666666667 | 11.291666666666666 | rain |
| 1154 | 2016-08-02 | day | 2016 | 8 | summer | 18351 | 1 | 0 | 0 | 19.791666666666668 | 19.791666666666668 | 85.83333333333333 | 18.541666666666668 | broken clouds |
| 1155 | 2016-08-02 | night | 2016 | 8 | summer | 10242 | 1 | 0 | 0 | 17.916666666666668 | 17.916666666666668 | 87.70833333333333 | 16.083333333333332 | rain |
| 1156 | 2016-08-03 | day | 2016 | 8 | summer | 26761 | 1 | 0 | 0 | 21.708333333333332 | 21.708333333333332 | 60.041666666666664 | 25.833333333333332 | scattered clouds |
| 1157 | 2016-08-03 | night | 2016 | 8 | summer | 13507 | 1 | 0 | 0 | 19.625 | 19.625 | 75.25 | 23.583333333333332 | cloudy |
| 1158 | 2016-08-04 | day | 2016 | 8 | summer | 26489 | 1 | 0 | 0 | 20.083333333333332 | 20 | 59.166666666666664 | 25.583333333333332 | scattered clouds |
| 1159 | 2016-08-04 | night | 2016 | 8 | summer | 12593 | 1 | 0 | 0 | 18.375 | 18.333333333333332 | 66.75 | 22.083333333333332 | broken clouds |
| 1160 | 2016-08-05 | day | 2016 | 8 | summer | 23672 | 1 | 0 | 0 | 20.818181818181817 | 20.454545454545453 | 54.45454545454545 | 15.318181818181818 | scattered clouds |
| 1161 | 2016-08-05 | night | 2016 | 8 | summer | 12319 | 1 | 0 | 0 | 18.625 | 18.625 | 69.625 | 16.625 | scattered clouds |
| 1162 | 2016-08-06 | day | 2016 | 8 | summer | 27899 | 0 | 1 | 0 | 21.791666666666668 | 21.791666666666668 | 52.791666666666664 | 12.083333333333334 | clear |
| 1163 | 2016-08-06 | night | 2016 | 8 | summer | 13986 | 0 | 1 | 0 | 19.208333333333332 | 19.208333333333332 | 64.66666666666667 | 16.625 | clear |
| 1164 | 2016-08-07 | day | 2016 | 8 | summer | 25329 | 0 | 1 | 0 | 23.541666666666668 | 23.541666666666668 | 62.125 | 26.25 | scattered clouds |
| 1165 | 2016-08-07 | night | 2016 | 8 | summer | 12747 | 0 | 1 | 0 | 19.75 | 19.75 | 67.25 | 22.625 | clear |
| 1166 | 2016-08-08 | day | 2016 | 8 | summer | 26212 | 1 | 0 | 0 | 18.958333333333332 | 18.958333333333332 | 49.083333333333336 | 22.625 | scattered clouds |
| 1167 | 2016-08-08 | night | 2016 | 8 | summer | 11557 | 1 | 0 | 0 | 17.75 | 17.75 | 59.583333333333336 | 20.208333333333332 | clear |
| 1168 | 2016-08-09 | day | 2016 | 8 | summer | 27154 | 1 | 0 | 0 | 17.25 | 17.25 | 50.25 | 17.083333333333332 | clear |
| 1169 | 2016-08-09 | night | 2016 | 8 | summer | 12360 | 1 | 0 | 0 | 16.25 | 16.25 | 54.166666666666664 | 15.625 | clear |
| 1170 | 2016-08-10 | day | 2016 | 8 | summer | 25779 | 1 | 0 | 0 | 16.625 | 16.625 | 57.125 | 14.375 | scattered clouds |
| 1171 | 2016-08-10 | night | 2016 | 8 | summer | 12651 | 1 | 0 | 0 | 15.833333333333334 | 15.833333333333334 | 61.083333333333336 | 14.5 | NA |
| 1172 | 2016-08-11 | day | 2016 | 8 | summer | 25501 | 1 | 0 | 0 | 19.416666666666668 | 19.416666666666668 | 61.291666666666664 | 21.25 | scattered clouds |
| 1173 | 2016-08-11 | night | 2016 | 8 | summer | 12125 | 1 | 0 | 0 | 18.541666666666668 | 18.541666666666668 | 68.20833333333333 | 19.416666666666668 | clear |
| 1174 | 2016-08-12 | day | 2016 | 8 | summer | 27748 | 1 | 0 | 0 | 22.708333333333332 | 22.666666666666668 | 55 | 20.875 | clear |
| 1175 | 2016-08-12 | night | 2016 | 8 | summer | 12411 | 1 | 0 | 0 | 19.333333333333332 | 19.333333333333332 | 68.25 | 21.541666666666668 | NA |
| 1176 | 2016-08-13 | day | 2016 | 8 | summer | 28292 | 0 | 1 | 0 | 21.083333333333332 | 21.083333333333332 | 62 | 22.416666666666668 | broken clouds |
| 1177 | 2016-08-13 | night | 2016 | 8 | summer | 14749 | 0 | 1 | 0 | 19.541666666666668 | 19.541666666666668 | 61.458333333333336 | 16.625 | clear |
| 1178 | 2016-08-14 | day | 2016 | 8 | summer | 28698 | 0 | 1 | 0 | 19.75 | 19.5 | 50.041666666666664 | 7.583333333333333 | cloudy |
| 1179 | 2016-08-14 | night | 2016 | 8 | summer | 15150 | 0 | 1 | 0 | 18.75 | 18.625 | 57.833333333333336 | 10.75 | clear |
| 1180 | 2016-08-15 | day | 2016 | 8 | summer | 28112 | 1 | 0 | 0 | 19.833333333333332 | 19.75 | 57.25 | 17.875 | clear |
| 1181 | 2016-08-15 | night | 2016 | 8 | summer | 12124 | 1 | 0 | 0 | 16.5 | 16.5 | 73.0909090909091 | 11.227272727272727 | clear |
| 1182 | 2016-08-16 | day | 2016 | 8 | summer | 27622 | 1 | 0 | 0 | 19.708333333333332 | 19.708333333333332 | 63.041666666666664 | 15.458333333333334 | scattered clouds |
| 1183 | 2016-08-16 | night | 2016 | 8 | summer | 11289 | 1 | 0 | 0 | 16 | 16 | 75.25 | 12.35 | clear |
| 1184 | 2016-08-17 | day | 2016 | 8 | summer | 28386 | 1 | 0 | 0 | 21.333333333333332 | 21.333333333333332 | 57.291666666666664 | 14.25 | clear |
| 1185 | 2016-08-17 | night | 2016 | 8 | summer | 14053 | 1 | 0 | 0 | 17.125 | 17.125 | 75.25 | 10.291666666666666 | clear |
| 1186 | 2016-08-18 | day | 2016 | 8 | summer | 26618 | 1 | 0 | 0 | 21.208333333333332 | 21.041666666666668 | 59.625 | 14.75 | clear |
| 1187 | 2016-08-18 | night | 2016 | 8 | summer | 12365 | 1 | 0 | 0 | 17.666666666666668 | 17.625 | 78.54166666666667 | 11.75 | clear |
| 1188 | 2016-08-19 | day | 2016 | 8 | summer | 16390 | 1 | 0 | 0 | 18.333333333333332 | 18.333333333333332 | 82.25 | 12.75 | rain |
| 1189 | 2016-08-19 | night | 2016 | 8 | summer | 9203 | 1 | 0 | 0 | 17.375 | 17.375 | 85.08333333333333 | 12.333333333333334 | scattered clouds |
| 1190 | 2016-08-20 | day | 2016 | 8 | summer | 17803 | 0 | 1 | 0 | 18.791666666666668 | 18.791666666666668 | 65.25 | 30 | scattered clouds |
| 1191 | 2016-08-20 | night | 2016 | 8 | summer | 6568 | 0 | 1 | 0 | 17.083333333333332 | 17.083333333333332 | 74.91666666666667 | 22.458333333333332 | scattered clouds |
| 1192 | 2016-08-21 | day | 2016 | 8 | summer | 21098 | 0 | 1 | 0 | 19.708333333333332 | 19.666666666666668 | 61.291666666666664 | 27.75 | broken clouds |
| 1193 | 2016-08-21 | night | 2016 | 8 | summer | 7121 | 0 | 1 | 0 | 17.583333333333332 | 17.583333333333332 | 75.58333333333333 | 24.833333333333332 | broken clouds |
| 1194 | 2016-08-22 | day | 2016 | 8 | summer | 24035 | 1 | 0 | 0 | 21.833333333333332 | 21.833333333333332 | 64.54166666666667 | 22.791666666666668 | scattered clouds |
| 1195 | 2016-08-22 | night | 2016 | 8 | summer | 11658 | 1 | 0 | 0 | 19.666666666666668 | 19.666666666666668 | 72.79166666666667 | 17.833333333333332 | scattered clouds |
| 1196 | 2016-08-23 | day | 2016 | 8 | summer | 28141 | 1 | 0 | 0 | 25.375 | 25.166666666666668 | 49.083333333333336 | 12.458333333333334 | clear |
| 1197 | 2016-08-23 | night | 2016 | 8 | summer | 13919 | 1 | 0 | 0 | 20.916666666666668 | 20.916666666666668 | 70.875 | 8.125 | clear |
| 1198 | 2016-08-24 | day | 2016 | 8 | summer | 27838 | 1 | 0 | 0 | 27.583333333333332 | 27.583333333333332 | 51.875 | 5.375 | clear |
| 1199 | 2016-08-24 | night | 2016 | 8 | summer | 12826 | 1 | 0 | 0 | 23.375 | 23.541666666666668 | 68.33333333333333 | 8.25 | clear |
| 1200 | 2016-08-25 | day | 2016 | 8 | summer | 25487 | 1 | 0 | 0 | 24.791666666666668 | 25.375 | 62.333333333333336 | 7.208333333333333 | clear |
| 1201 | 2016-08-25 | night | 2016 | 8 | summer | 12255 | 1 | 0 | 0 | 23.166666666666668 | 23.333333333333332 | 71.625 | 9.416666666666666 | clear |
| 1202 | 2016-08-26 | day | 2016 | 8 | summer | 26202 | 1 | 0 | 0 | 23.75 | 23.541666666666668 | 51.208333333333336 | 10.5 | scattered clouds |
| 1203 | 2016-08-26 | night | 2016 | 8 | summer | 11495 | 1 | 0 | 0 | 22.625 | 22.416666666666668 | 61.041666666666664 | 9.833333333333334 | clear |
| 1204 | 2016-08-27 | day | 2016 | 8 | summer | 20971 | 0 | 1 | 0 | 22.375 | 22.375 | 67.04166666666667 | 22.75 | clear |
| 1205 | 2016-08-27 | night | 2016 | 8 | summer | 11217 | 0 | 1 | 0 | 20.125 | 20.125 | 71.45833333333333 | 7.666666666666667 | clear |
| 1206 | 2016-08-28 | day | 2016 | 8 | summer | 15687 | 0 | 1 | 0 | 20.375 | 20.375 | 70.66666666666667 | 21.5 | broken clouds |
| 1207 | 2016-08-28 | night | 2016 | 8 | summer | 10162 | 0 | 1 | 0 | 19.666666666666668 | 19.666666666666668 | 78.45833333333333 | 14.958333333333334 | scattered clouds |
| 1208 | 2016-08-29 | day | 2016 | 8 | summer | 22946 | 0 | 0 | 1 | 20 | 20 | 62.125 | 8.833333333333334 | scattered clouds |
| 1209 | 2016-08-29 | night | 2016 | 8 | summer | 11230 | 0 | 0 | 1 | 18.958333333333332 | 18.833333333333332 | 68.625 | 7.833333333333333 | clear |
| 1210 | 2016-08-30 | day | 2016 | 8 | summer | 26513 | 1 | 0 | 0 | 22.666666666666668 | 22.666666666666668 | 47.75 | 9.291666666666666 | clear |
| 1211 | 2016-08-30 | night | 2016 | 8 | summer | 12960 | 1 | 0 | 0 | 18.916666666666668 | 18.916666666666668 | 61.916666666666664 | 8 | clear |
| 1212 | 2016-08-31 | day | 2016 | 8 | summer | 26587 | 1 | 0 | 0 | 20.875 | 20.875 | 57.25 | 17.458333333333332 | clear |
| 1213 | 2016-08-31 | night | 2016 | 8 | summer | 12402 | 1 | 0 | 0 | 18.75 | 18.75 | 69 | 13.208333333333334 | NA |
| 1214 | 2016-09-01 | day | 2016 | 9 | autumn | 27187 | 1 | 0 | 0 | 20.25 | 20.125 | 57.458333333333336 | 12.375 | scattered clouds |
| 1215 | 2016-09-01 | night | 2016 | 9 | autumn | 12083 | 1 | 0 | 0 | 18.363636363636363 | 18.363636363636363 | 67.4090909090909 | 15.272727272727273 | clear |
| 1216 | 2016-09-03 | day | 2016 | 9 | autumn | 12593 | 0 | 1 | 0 | 20.333333333333332 | 20.333333333333332 | 63.666666666666664 | 23.166666666666668 | rain |
| 1217 | 2016-09-03 | night | 2016 | 9 | autumn | 2672 | 0 | 1 | 0 | 18.5 | 18.5 | 87.16666666666667 | 20.666666666666668 | rain |
| 1218 | 2016-09-04 | day | 2016 | 9 | autumn | 18803 | 0 | 1 | 0 | 18.833333333333332 | 18.833333333333332 | 65.54166666666667 | 26.208333333333332 | broken clouds |
| 1219 | 2016-09-04 | night | 2016 | 9 | autumn | 8709 | 0 | 1 | 0 | 18.875 | 18.875 | 74.16666666666667 | 20.583333333333332 | scattered clouds |
| 1220 | 2016-09-05 | day | 2016 | 9 | autumn | 18417 | 1 | 0 | 0 | 18.666666666666668 | 18.666666666666668 | 83.25 | 9.083333333333334 | broken clouds |
| 1221 | 2016-09-05 | night | 2016 | 9 | autumn | 9456 | 1 | 0 | 0 | 19.375 | 19.375 | 81.79166666666667 | 9.791666666666666 | rain |
| 1222 | 2016-09-06 | day | 2016 | 9 | autumn | 25831 | 1 | 0 | 0 | 22.75 | 22.75 | 77.41666666666667 | 10.25 | broken clouds |
| 1223 | 2016-09-06 | night | 2016 | 9 | autumn | 11798 | 1 | 0 | 0 | 21.625 | 21.625 | 81.16666666666667 | 10.416666666666666 | broken clouds |
| 1224 | 2016-09-07 | day | 2016 | 9 | autumn | 26658 | 1 | 0 | 0 | 24.041666666666668 | 24.083333333333332 | 63.708333333333336 | 9.458333333333334 | broken clouds |
| 1225 | 2016-09-07 | night | 2016 | 9 | autumn | 13158 | 1 | 0 | 0 | 21.083333333333332 | 21.083333333333332 | 70.125 | 9.666666666666666 | clear |
| 1226 | 2016-09-08 | day | 2016 | 9 | autumn | 27841 | 1 | 0 | 0 | 22 | 21.833333333333332 | 54.083333333333336 | 23.5 | clear |
| 1227 | 2016-09-08 | night | 2016 | 9 | autumn | 12714 | 1 | 0 | 0 | 18.375 | 18.25 | 70.45833333333333 | 15.083333333333334 | clear |
| 1228 | 2016-09-09 | day | 2016 | 9 | autumn | 25458 | 1 | 0 | 0 | 20.5 | 20.5 | 70.20833333333333 | 21.333333333333332 | broken clouds |
| 1229 | 2016-09-09 | night | 2016 | 9 | autumn | 10693 | 1 | 0 | 0 | 18.583333333333332 | 18.583333333333332 | 75.04166666666667 | 13.75 | clear |
| 1230 | 2016-09-10 | day | 2016 | 9 | autumn | 11086 | 0 | 1 | 0 | 19.916666666666668 | 19.916666666666668 | 79.04166666666667 | 18.458333333333332 | rain |
| 1231 | 2016-09-10 | night | 2016 | 9 | autumn | 5994 | 0 | 1 | 0 | 18.416666666666668 | 18.416666666666668 | 81.95833333333333 | 14.208333333333334 | clear |
| 1232 | 2016-09-11 | day | 2016 | 9 | autumn | 28854 | 0 | 1 | 0 | 18.041666666666668 | 17.833333333333332 | 56 | 7.708333333333333 | clear |
| 1233 | 2016-09-11 | night | 2016 | 9 | autumn | 10549 | 0 | 1 | 0 | 15.666666666666666 | 15.666666666666666 | 71.70833333333333 | 10.375 | clear |
| 1234 | 2016-09-12 | day | 2016 | 9 | autumn | 27346 | 1 | 0 | 0 | 22.208333333333332 | 22.208333333333332 | 60.125 | 13.5 | scattered clouds |
| 1235 | 2016-09-12 | night | 2016 | 9 | autumn | 11915 | 1 | 0 | 0 | 18.875 | 18.875 | 70.125 | 9.583333333333334 | clear |
| 1236 | 2016-09-13 | day | 2016 | 9 | autumn | 29685 | 1 | 0 | 0 | 27.416666666666668 | 27.083333333333332 | 52.875 | 16.25 | clear |
| 1237 | 2016-09-13 | night | 2016 | 9 | autumn | 13888 | 1 | 0 | 0 | 22.166666666666668 | 22.166666666666668 | 71.45833333333333 | 10.791666666666666 | clear |
| 1238 | 2016-09-14 | day | 2016 | 9 | autumn | 30357 | 1 | 0 | 0 | 25.083333333333332 | 25.125 | 58.083333333333336 | 13.708333333333334 | clear |
| 1239 | 2016-09-14 | night | 2016 | 9 | autumn | 14121 | 1 | 0 | 0 | 21.833333333333332 | 21.833333333333332 | 68.45833333333333 | 7.166666666666667 | clear |
| 1240 | 2016-09-15 | day | 2016 | 9 | autumn | 29224 | 1 | 0 | 0 | 24.916666666666668 | 25.166666666666668 | 60.666666666666664 | 10.75 | clear |
| 1241 | 2016-09-15 | night | 2016 | 9 | autumn | 12911 | 1 | 0 | 0 | 20.291666666666668 | 20.291666666666668 | 73 | 9.208333333333334 | clear |
| 1242 | 2016-09-16 | day | 2016 | 9 | autumn | 13296 | 1 | 0 | 0 | 16.916666666666668 | 16.916666666666668 | 83.625 | 17.666666666666668 | rain |
| 1243 | 2016-09-16 | night | 2016 | 9 | autumn | 8671 | 1 | 0 | 0 | 17.75 | 17.75 | 74.75 | 17 | clear |
| 1244 | 2016-09-17 | day | 2016 | 9 | autumn | 19239 | 0 | 1 | 0 | 15.333333333333334 | 15.333333333333334 | 79.83333333333333 | 21.958333333333332 | cloudy |
| 1245 | 2016-09-17 | night | 2016 | 9 | autumn | 7943 | 0 | 1 | 0 | 15.416666666666666 | 15.416666666666666 | 81.54166666666667 | 17.791666666666668 | broken clouds |
| 1246 | 2016-09-18 | day | 2016 | 9 | autumn | 21204 | 0 | 1 | 0 | 17.333333333333332 | 17.333333333333332 | 75.54166666666667 | 9 | broken clouds |
| 1247 | 2016-09-18 | night | 2016 | 9 | autumn | 8259 | 0 | 1 | 0 | 16.875 | 16.875 | 80.83333333333333 | 6.5 | broken clouds |
| 1248 | 2016-09-19 | day | 2016 | 9 | autumn | 24151 | 1 | 0 | 0 | 18.666666666666668 | 18.666666666666668 | 64.5 | 7 | scattered clouds |
| 1249 | 2016-09-19 | night | 2016 | 9 | autumn | 8958 | 1 | 0 | 0 | 17.541666666666668 | 17.541666666666668 | 75.70833333333333 | 7.666666666666667 | cloudy |
| 1250 | 2016-09-20 | day | 2016 | 9 | autumn | 25940 | 1 | 0 | 0 | 16.916666666666668 | 16.916666666666668 | 78.54166666666667 | 7.416666666666667 | broken clouds |
| 1251 | 2016-09-20 | night | 2016 | 9 | autumn | 11352 | 1 | 0 | 0 | 16.75 | 16.75 | 78.29166666666667 | 5.416666666666667 | rain |
| 1252 | 2016-09-21 | day | 2016 | 9 | autumn | 28156 | 1 | 0 | 0 | 19.458333333333332 | 19.333333333333332 | 64.79166666666667 | 10.958333333333334 | scattered clouds |
| 1253 | 2016-09-21 | night | 2016 | 9 | autumn | 12111 | 1 | 0 | 0 | 16.75 | 16.75 | 75.70833333333333 | 7.75 | clear |
| 1254 | 2016-09-22 | day | 2016 | 9 | autumn | 26455 | 1 | 0 | 0 | 18.208333333333332 | 18.208333333333332 | 68.08333333333333 | 14 | scattered clouds |
| 1255 | 2016-09-22 | night | 2016 | 9 | autumn | 11588 | 1 | 0 | 0 | 16.625 | 16.625 | 74.58333333333333 | 9.208333333333334 | scattered clouds |
| 1256 | 2016-09-23 | day | 2016 | 9 | autumn | 28064 | 1 | 0 | 0 | 16.875 | 16.875 | 53.125 | 10.916666666666666 | clear |
| 1257 | 2016-09-23 | night | 2016 | 9 | autumn | 10464 | 1 | 0 | 0 | 14.583333333333334 | 14.583333333333334 | 65.75 | 9.833333333333334 | clear |
| 1258 | 2016-09-24 | day | 2016 | 9 | autumn | 26211 | 0 | 1 | 0 | 20 | 19.666666666666668 | 57.125 | 18.541666666666668 | clear |
| 1259 | 2016-09-24 | night | 2016 | 9 | autumn | 9575 | 0 | 1 | 0 | 17.583333333333332 | 17.583333333333332 | 66.91666666666667 | 12.958333333333334 | clear |
| 1260 | 2016-09-25 | day | 2016 | 9 | autumn | 21202 | 0 | 1 | 0 | 17.916666666666668 | 17.916666666666668 | 62.833333333333336 | 23.5 | scattered clouds |
| 1261 | 2016-09-25 | night | 2016 | 9 | autumn | 8461 | 0 | 1 | 0 | 17.458333333333332 | 17.458333333333332 | 61.666666666666664 | 16.25 | clear |
| 1262 | 2016-09-26 | day | 2016 | 9 | autumn | 24328 | 1 | 0 | 0 | 16.541666666666668 | 16.541666666666668 | 63.791666666666664 | 12.583333333333334 | scattered clouds |
| 1263 | 2016-09-26 | night | 2016 | 9 | autumn | 10446 | 1 | 0 | 0 | 14.208333333333334 | 14.208333333333334 | 74.41666666666667 | 8.375 | clear |
| 1264 | 2016-09-27 | day | 2016 | 9 | autumn | 25438 | 1 | 0 | 0 | 18.041666666666668 | 18.041666666666668 | 72.83333333333333 | 19.208333333333332 | broken clouds |
| 1265 | 2016-09-27 | night | 2016 | 9 | autumn | 10313 | 1 | 0 | 0 | 16.166666666666668 | 16.166666666666668 | 78.91666666666667 | 12.041666666666666 | clear |
| 1266 | 2016-09-28 | day | 2016 | 9 | autumn | 27281 | 1 | 0 | 0 | 19.125 | 19.125 | 66.91666666666667 | 22.041666666666668 | scattered clouds |
| 1267 | 2016-09-28 | night | 2016 | 9 | autumn | 11248 | 1 | 0 | 0 | 16.75 | 16.75 | 83.79166666666667 | 20.458333333333332 | broken clouds |
| 1268 | 2016-09-29 | day | 2016 | 9 | autumn | 23852 | 1 | 0 | 0 | 18.291666666666668 | 18.291666666666668 | 67.83333333333333 | 26.5 | scattered clouds |
| 1269 | 2016-09-29 | night | 2016 | 9 | autumn | 10659 | 1 | 0 | 0 | 17 | 17 | 71.29166666666667 | 23.083333333333332 | clear |
| 1270 | 2016-09-30 | day | 2016 | 9 | autumn | 25915 | 1 | 0 | 0 | 16.541666666666668 | 16.541666666666668 | 59.125 | 19.541666666666668 | scattered clouds |
| 1271 | 2016-09-30 | night | 2016 | 9 | autumn | 7838 | 1 | 0 | 0 | 14.083333333333334 | 14.083333333333334 | 74.04166666666667 | 14.041666666666666 | clear |
| 1272 | 2016-10-01 | day | 2016 | 10 | autumn | 11865 | 0 | 1 | 0 | 13.666666666666666 | 13.666666666666666 | 78.79166666666667 | 10.208333333333334 | rain |
| 1273 | 2016-10-01 | night | 2016 | 10 | autumn | 5728 | 0 | 1 | 0 | 12.375 | 12.375 | 84.58333333333333 | 7.791666666666667 | rain |
| 1274 | 2016-10-02 | day | 2016 | 10 | autumn | 19958 | 0 | 1 | 0 | 14.083333333333334 | 14.083333333333334 | 68.125 | 16.708333333333332 | scattered clouds |
| 1275 | 2016-10-02 | night | 2016 | 10 | autumn | 7064 | 0 | 1 | 0 | 12.333333333333334 | 12.333333333333334 | 75.58333333333333 | 10.416666666666666 | clear |
| 1276 | 2016-10-03 | day | 2016 | 10 | autumn | 25492 | 1 | 0 | 0 | 14.291666666666666 | 14.125 | 60.75 | 7.791666666666667 | clear |
| 1277 | 2016-10-03 | night | 2016 | 10 | autumn | 10090 | 1 | 0 | 0 | 12.125 | 12.083333333333334 | 77.375 | 5.166666666666667 | clear |
| 1278 | 2016-10-04 | day | 2016 | 10 | autumn | 26505 | 1 | 0 | 0 | 15.625 | 15.625 | 74.5 | 24.416666666666668 | scattered clouds |
| 1279 | 2016-10-04 | night | 2016 | 10 | autumn | 10302 | 1 | 0 | 0 | 13.916666666666666 | 13.916666666666666 | 80.95833333333333 | 16.708333333333332 | scattered clouds |
| 1280 | 2016-10-05 | day | 2016 | 10 | autumn | 26175 | 1 | 0 | 0 | 14.916666666666666 | 14.916666666666666 | 57.458333333333336 | 33.875 | scattered clouds |
| 1281 | 2016-10-05 | night | 2016 | 10 | autumn | 9818 | 1 | 0 | 0 | 13.625 | 13.625 | 67.91666666666667 | 23.541666666666668 | clear |
| 1282 | 2016-10-06 | day | 2016 | 10 | autumn | 25312 | 1 | 0 | 0 | 13.833333333333334 | 13.833333333333334 | 55.291666666666664 | 23.375 | scattered clouds |
| 1283 | 2016-10-06 | night | 2016 | 10 | autumn | 9693 | 1 | 0 | 0 | 12.708333333333334 | 12.708333333333334 | 63.541666666666664 | 15.333333333333334 | broken clouds |
| 1284 | 2016-10-07 | day | 2016 | 10 | autumn | 23821 | 1 | 0 | 0 | 13.958333333333334 | 13.958333333333334 | 75.58333333333333 | 10.416666666666666 | broken clouds |
| 1285 | 2016-10-07 | night | 2016 | 10 | autumn | 9229 | 1 | 0 | 0 | 13.958333333333334 | 13.958333333333334 | 71.83333333333333 | 11.666666666666666 | broken clouds |
| 1286 | 2016-10-08 | day | 2016 | 10 | autumn | 18643 | 0 | 1 | 0 | 14.5 | 14.5 | 78.41666666666667 | 9.708333333333334 | scattered clouds |
| 1287 | 2016-10-08 | night | 2016 | 10 | autumn | 8241 | 0 | 1 | 0 | 13.5 | 13.5 | 75.875 | 8.25 | scattered clouds |
| 1288 | 2016-10-09 | day | 2016 | 10 | autumn | 19156 | 0 | 1 | 0 | 12.583333333333334 | 12.166666666666666 | 68.5 | 11.75 | scattered clouds |
| 1289 | 2016-10-09 | night | 2016 | 10 | autumn | 5926 | 0 | 1 | 0 | 11.625 | 11.333333333333334 | 75.54166666666667 | 8.458333333333334 | clear |
| 1290 | 2016-10-10 | day | 2016 | 10 | autumn | 23610 | 1 | 0 | 0 | 11.25 | 10.708333333333334 | 70.16666666666667 | 12.25 | scattered clouds |
| 1291 | 2016-10-10 | night | 2016 | 10 | autumn | 9150 | 1 | 0 | 0 | 9.625 | 9.208333333333334 | 81.08333333333333 | 6.083333333333333 | clear |
| 1292 | 2016-10-11 | day | 2016 | 10 | autumn | 25083 | 1 | 0 | 0 | 11.625 | 11.375 | 71.33333333333333 | 9.416666666666666 | scattered clouds |
| 1293 | 2016-10-11 | night | 2016 | 10 | autumn | 9831 | 1 | 0 | 0 | 10.125 | 9.75 | 79.125 | 6.416666666666667 | scattered clouds |
| 1294 | 2016-10-12 | day | 2016 | 10 | autumn | 23360 | 1 | 0 | 0 | 13.541666666666666 | 13.541666666666666 | 71.04166666666667 | 17.625 | scattered clouds |
| 1295 | 2016-10-12 | night | 2016 | 10 | autumn | 8922 | 1 | 0 | 0 | 11.583333333333334 | 11.541666666666666 | 82.625 | 9.708333333333334 | rain |
| 1296 | 2016-10-13 | day | 2016 | 10 | autumn | 21896 | 1 | 0 | 0 | 11.5 | 10.791666666666666 | 75.54166666666667 | 20.625 | scattered clouds |
| 1297 | 2016-10-13 | night | 2016 | 10 | autumn | 8691 | 1 | 0 | 0 | 11 | 10.291666666666666 | 79.375 | 14.083333333333334 | broken clouds |
| 1298 | 2016-10-14 | day | 2016 | 10 | autumn | 23914 | 1 | 0 | 0 | 12.25 | 12.208333333333334 | 73.33333333333333 | 13.083333333333334 | broken clouds |
| 1299 | 2016-10-14 | night | 2016 | 10 | autumn | 8410 | 1 | 0 | 0 | 11.75 | 11.75 | 75.95833333333333 | 9.458333333333334 | NA |
| 1300 | 2016-10-15 | day | 2016 | 10 | autumn | 19073 | 0 | 1 | 0 | 14.166666666666666 | 14.166666666666666 | 72.16666666666667 | 10.583333333333334 | scattered clouds |
| 1301 | 2016-10-15 | night | 2016 | 10 | autumn | 4415 | 0 | 1 | 0 | 12.25 | 12.25 | 84.33333333333333 | 6.916666666666667 | cloudy |
| 1302 | 2016-10-16 | day | 2016 | 10 | autumn | 13036 | 0 | 1 | 0 | 15.25 | 15.25 | 78.70833333333333 | 18.625 | rain |
| 1303 | 2016-10-16 | night | 2016 | 10 | autumn | 5491 | 0 | 1 | 0 | 12.583333333333334 | 12.041666666666666 | 87.04166666666667 | 10.25 | clear |
| 1304 | 2016-10-17 | day | 2016 | 10 | autumn | 21944 | 1 | 0 | 0 | 15.375 | 15.375 | 70.04166666666667 | 16.583333333333332 | scattered clouds |
| 1305 | 2016-10-17 | night | 2016 | 10 | autumn | 6790 | 1 | 0 | 0 | 13.083333333333334 | 13.083333333333334 | 82.33333333333333 | 12.083333333333334 | clear |
| 1306 | 2016-10-18 | day | 2016 | 10 | autumn | 23353 | 1 | 0 | 0 | 13.041666666666666 | 13.041666666666666 | 64.25 | 26.25 | scattered clouds |
| 1307 | 2016-10-18 | night | 2016 | 10 | autumn | 9418 | 1 | 0 | 0 | 11.208333333333334 | 10.958333333333334 | 73.25 | 21.958333333333332 | clear |
| 1308 | 2016-10-19 | day | 2016 | 10 | autumn | 24072 | 1 | 0 | 0 | 12.541666666666666 | 12.541666666666666 | 67.41666666666667 | 18.625 | scattered clouds |
| 1309 | 2016-10-19 | night | 2016 | 10 | autumn | 9601 | 1 | 0 | 0 | 11.375 | 10.875 | 72.5 | 18.625 | scattered clouds |
| 1310 | 2016-10-20 | day | 2016 | 10 | autumn | 23172 | 1 | 0 | 0 | 12.791666666666666 | 12.791666666666666 | 75.75 | 15.625 | broken clouds |
| 1311 | 2016-10-20 | night | 2016 | 10 | autumn | 9172 | 1 | 0 | 0 | 10.958333333333334 | 10.458333333333334 | 80.20833333333333 | 12.333333333333334 | broken clouds |
| 1312 | 2016-10-21 | day | 2016 | 10 | autumn | 22661 | 1 | 0 | 0 | 11.625 | 10.875 | 78.66666666666667 | 13.916666666666666 | broken clouds |
| 1313 | 2016-10-21 | night | 2016 | 10 | autumn | 7906 | 1 | 0 | 0 | 10.5 | 9.375 | 84.91666666666667 | 11.208333333333334 | broken clouds |
| 1314 | 2016-10-22 | day | 2016 | 10 | autumn | 19194 | 0 | 1 | 0 | 11.083333333333334 | 10.791666666666666 | 76.66666666666667 | 9.166666666666666 | scattered clouds |
| 1315 | 2016-10-22 | night | 2016 | 10 | autumn | 6826 | 0 | 1 | 0 | 9.916666666666666 | 9.541666666666666 | 82.54166666666667 | 7.458333333333333 | clear |
| 1316 | 2016-10-23 | day | 2016 | 10 | autumn | 17707 | 0 | 1 | 0 | 10.833333333333334 | 10.375 | 74.04166666666667 | 17.375 | scattered clouds |
| 1317 | 2016-10-23 | night | 2016 | 10 | autumn | 5846 | 0 | 1 | 0 | 9.708333333333334 | 9.375 | 83 | 9.291666666666666 | broken clouds |
| 1318 | 2016-10-24 | day | 2016 | 10 | autumn | 21185 | 1 | 0 | 0 | 12.333333333333334 | 12.25 | 72.66666666666667 | 13.833333333333334 | scattered clouds |
| 1319 | 2016-10-24 | night | 2016 | 10 | autumn | 8868 | 1 | 0 | 0 | 11 | 10.416666666666666 | 76.75 | 8.5 | NA |
| 1320 | 2016-10-25 | day | 2016 | 10 | autumn | 23486 | 1 | 0 | 0 | 12.041666666666666 | 12.041666666666666 | 77.08333333333333 | 6.166666666666667 | broken clouds |
| 1321 | 2016-10-25 | night | 2016 | 10 | autumn | 9506 | 1 | 0 | 0 | 11.625 | 11.625 | 81.04166666666667 | 4.208333333333333 | broken clouds |
| 1322 | 2016-10-26 | day | 2016 | 10 | autumn | 24082 | 1 | 0 | 0 | 14.458333333333334 | 14.458333333333334 | 77.20833333333333 | 14.791666666666666 | scattered clouds |
| 1323 | 2016-10-26 | night | 2016 | 10 | autumn | 9928 | 1 | 0 | 0 | 12.5 | 12.5 | 86.375 | 8.833333333333334 | scattered clouds |
| 1324 | 2016-10-27 | day | 2016 | 10 | autumn | 24113 | 1 | 0 | 0 | 12.958333333333334 | 12.791666666666666 | 77.25 | 17.625 | broken clouds |
| 1325 | 2016-10-27 | night | 2016 | 10 | autumn | 9775 | 1 | 0 | 0 | 12.75 | 12.583333333333334 | 82.04166666666667 | 16.416666666666668 | scattered clouds |
| 1326 | 2016-10-28 | day | 2016 | 10 | autumn | 24285 | 1 | 0 | 0 | 14.875 | 14.875 | 73.125 | 14.541666666666666 | clear |
| 1327 | 2016-10-28 | night | 2016 | 10 | autumn | 9135 | 1 | 0 | 0 | 14.25 | 14.25 | 76.41666666666667 | 12.458333333333334 | cloudy |
| 1328 | 2016-10-29 | day | 2016 | 10 | autumn | 19784 | 0 | 1 | 0 | 15.125 | 15.125 | 80.04166666666667 | 2.75 | broken clouds |
| 1329 | 2016-10-29 | night | 2016 | 10 | autumn | 8001 | 0 | 1 | 0 | 13.416666666666666 | 13.416666666666666 | 88.04166666666667 | 3.4166666666666665 | cloudy |
| 1330 | 2016-10-30 | day | 2016 | 10 | autumn | 17397 | 0 | 1 | 0 | 11.208333333333334 | 11.166666666666666 | 94.25 | 4.291666666666667 | cloudy |
| 1331 | 2016-10-30 | night | 2016 | 10 | autumn | 6138 | 0 | 1 | 0 | 11.075757575757576 | 11.030303030303031 | 94.0909090909091 | 5.96969696969697 | cloudy |
| 1332 | 2016-10-31 | day | 2016 | 10 | autumn | 24896 | 1 | 0 | 0 | 13.541666666666666 | 13.458333333333334 | 84.83333333333333 | 6.875 | clear |
| 1333 | 2016-10-31 | night | 2016 | 10 | autumn | 9565 | 1 | 0 | 0 | 11.875 | 11.875 | 93.75 | 6 | clear |
| 1334 | 2016-11-01 | day | 2016 | 11 | autumn | 22946 | 1 | 0 | 0 | 11.25 | 10.916666666666666 | 88.29166666666667 | 11.375 | broken clouds |
| 1335 | 2016-11-01 | night | 2016 | 11 | autumn | 9108 | 1 | 0 | 0 | 9.666666666666666 | 9.291666666666666 | 84.83333333333333 | 5.791666666666667 | broken clouds |
| 1336 | 2016-11-02 | day | 2016 | 11 | autumn | 23461 | 1 | 0 | 0 | 9.041666666666666 | 7.541666666666667 | 62.666666666666664 | 12.916666666666666 | clear |
| 1337 | 2016-11-02 | night | 2016 | 11 | autumn | 8577 | 1 | 0 | 0 | 6.958333333333333 | 5.666666666666667 | 77.91666666666667 | 7.041666666666667 | clear |
| 1338 | 2016-11-03 | day | 2016 | 11 | autumn | 22613 | 1 | 0 | 0 | 8.625 | 7.625 | 66.58333333333333 | 10.75 | clear |
| 1339 | 2016-11-03 | night | 2016 | 11 | autumn | 8278 | 1 | 0 | 0 | 7.208333333333333 | 5.666666666666667 | 77.45833333333333 | 9 | clear |
| 1340 | 2016-11-04 | day | 2016 | 11 | autumn | 15815 | 1 | 0 | 0 | 10.25 | 9.541666666666666 | 78.04166666666667 | 9.583333333333334 | rain |
| 1341 | 2016-11-04 | night | 2016 | 11 | autumn | 6117 | 1 | 0 | 0 | 8.625 | 7.208333333333333 | 81.70833333333333 | 8.875 | clear |
| 1342 | 2016-11-05 | day | 2016 | 11 | autumn | 14034 | 0 | 1 | 0 | 8.125 | 5.166666666666667 | 71.08333333333333 | 19.083333333333332 | broken clouds |
| 1343 | 2016-11-05 | night | 2016 | 11 | autumn | 5386 | 0 | 1 | 0 | 5.958333333333333 | 3.125 | 78.54166666666667 | 15.125 | clear |
| 1344 | 2016-11-06 | day | 2016 | 11 | autumn | 10169 | 0 | 1 | 0 | 5.875 | 2.4166666666666665 | 71.5 | 18.625 | clear |
| 1345 | 2016-11-06 | night | 2016 | 11 | autumn | 3237 | 0 | 1 | 0 | 5.416666666666667 | 1.6666666666666667 | 76.25 | 19.375 | clear |
| 1346 | 2016-11-07 | day | 2016 | 11 | autumn | 12879 | 1 | 0 | 0 | 7.666666666666667 | 4.583333333333333 | 72.25 | 18.541666666666668 | scattered clouds |
| 1347 | 2016-11-07 | night | 2016 | 11 | autumn | 4314 | 1 | 0 | 0 | 5.875 | 2.9583333333333335 | 80.875 | 15 | clear |
| 1348 | 2016-11-08 | day | 2016 | 11 | autumn | 19183 | 1 | 0 | 0 | 5.125 | 2.4166666666666665 | 70.58333333333333 | 11.833333333333334 | clear |
| 1349 | 2016-11-08 | night | 2016 | 11 | autumn | 6964 | 1 | 0 | 0 | 4.375 | 1.7916666666666667 | 77.33333333333333 | 10.375 | cloudy |
| 1350 | 2016-11-09 | day | 2016 | 11 | autumn | 12280 | 1 | 0 | 0 | 8.375 | 5.791666666666667 | 83.70833333333333 | 17.791666666666668 | rain |
| 1351 | 2016-11-09 | night | 2016 | 11 | autumn | 6420 | 1 | 0 | 0 | 6.916666666666667 | 3.5416666666666665 | 86.875 | 19.958333333333332 | rain |
| 1352 | 2016-11-10 | day | 2016 | 11 | autumn | 19038 | 1 | 0 | 0 | 9.041666666666666 | 6.958333333333333 | 76.125 | 18.666666666666668 | scattered clouds |
| 1353 | 2016-11-10 | night | 2016 | 11 | autumn | 6792 | 1 | 0 | 0 | 7.125 | 4.125 | 81.29166666666667 | 17.416666666666668 | clear |
| 1354 | 2016-11-11 | day | 2016 | 11 | autumn | 21172 | 1 | 0 | 0 | 8.166666666666666 | 7.291666666666667 | 69.58333333333333 | 6.291666666666667 | clear |
| 1355 | 2016-11-11 | night | 2016 | 11 | autumn | 6642 | 1 | 0 | 0 | 6.5 | 4.041666666666667 | 78.95833333333333 | 12.666666666666666 | scattered clouds |
| 1356 | 2016-11-12 | day | 2016 | 11 | autumn | 4988 | 0 | 1 | 0 | 9.545454545454545 | 8 | 87.54545454545455 | 10.681818181818182 | rain |
| 1357 | 2016-11-12 | night | 2016 | 11 | autumn | 4002 | 0 | 1 | 0 | 9.083333333333334 | 7.666666666666667 | 84.41666666666667 | 10.833333333333334 | NA |
| 1358 | 2016-11-13 | day | 2016 | 11 | autumn | 14709 | 0 | 1 | 0 | 9.041666666666666 | 7.625 | 80.54166666666667 | 9.916666666666666 | scattered clouds |
| 1359 | 2016-11-13 | night | 2016 | 11 | autumn | 4335 | 0 | 1 | 0 | 8.25 | 7.375 | 86.5 | 6.75 | clear |
| 1360 | 2016-11-14 | day | 2016 | 11 | autumn | 17121 | 1 | 0 | 0 | 11.416666666666666 | 11 | 83 | 15 | NA |
| 1361 | 2016-11-14 | night | 2016 | 11 | autumn | 7497 | 1 | 0 | 0 | 10.125 | 9.416666666666666 | 87.5 | 13.25 | broken clouds |
| 1362 | 2016-11-15 | day | 2016 | 11 | autumn | 21405 | 1 | 0 | 0 | 14.916666666666666 | 14.916666666666666 | 86.125 | 15.791666666666666 | broken clouds |
| 1363 | 2016-11-15 | night | 2016 | 11 | autumn | 7093 | 1 | 0 | 0 | 13.625 | 13.625 | 89 | 17.875 | broken clouds |
| 1364 | 2016-11-16 | day | 2016 | 11 | autumn | 21495 | 1 | 0 | 0 | 13.708333333333334 | 13.708333333333334 | 73.375 | 25.916666666666668 | scattered clouds |
| 1365 | 2016-11-16 | night | 2016 | 11 | autumn | 5944 | 1 | 0 | 0 | 12.458333333333334 | 12.333333333333334 | 86.29166666666667 | 19.458333333333332 | broken clouds |
| 1366 | 2016-11-17 | day | 2016 | 11 | autumn | 19780 | 1 | 0 | 0 | 10.875 | 9.208333333333334 | 68.875 | 26.125 | broken clouds |
| 1367 | 2016-11-17 | night | 2016 | 11 | autumn | 7682 | 1 | 0 | 0 | 9.291666666666666 | 6.541666666666667 | 72.29166666666667 | 19.041666666666668 | NA |
| 1368 | 2016-11-18 | day | 2016 | 11 | autumn | 19994 | 1 | 0 | 0 | 6.583333333333333 | 3.125 | 69.125 | 20.75 | clear |
| 1369 | 2016-11-18 | night | 2016 | 11 | autumn | 6600 | 1 | 0 | 0 | 5.958333333333333 | 2.6666666666666665 | 74.54166666666667 | 17.416666666666668 | clear |
| 1370 | 2016-11-19 | day | 2016 | 11 | autumn | 14247 | 0 | 1 | 0 | 6.25 | 3 | 73.875 | 17.208333333333332 | clear |
| 1371 | 2016-11-19 | night | 2016 | 11 | autumn | 3822 | 0 | 1 | 0 | 5.166666666666667 | 1.8333333333333333 | 85.54166666666667 | 16.375 | rain |
| 1372 | 2016-11-20 | day | 2016 | 11 | autumn | 7994 | 0 | 1 | 0 | 7.833333333333333 | 4.5 | 83.91666666666667 | 22.5 | broken clouds |
| 1373 | 2016-11-20 | night | 2016 | 11 | autumn | 2619 | 0 | 1 | 0 | 7.541666666666667 | 4.833333333333333 | 86.08333333333333 | 18.416666666666668 | snowfall |
| 1374 | 2016-11-21 | day | 2016 | 11 | autumn | 13709 | 1 | 0 | 0 | 11 | 10.25 | 85.875 | 19.375 | broken clouds |
| 1375 | 2016-11-21 | night | 2016 | 11 | autumn | 5521 | 1 | 0 | 0 | 8.958333333333334 | 7.75 | 86.95833333333333 | 14.083333333333334 | rain |
| 1376 | 2016-11-22 | day | 2016 | 11 | autumn | 19658 | 1 | 0 | 0 | 11.083333333333334 | 10.458333333333334 | 70.79166666666667 | 23.916666666666668 | scattered clouds |
| 1377 | 2016-11-22 | night | 2016 | 11 | autumn | 7764 | 1 | 0 | 0 | 9.791666666666666 | 8.333333333333334 | 79.91666666666667 | 15.916666666666666 | rain |
| 1378 | 2016-11-23 | day | 2016 | 11 | autumn | 20712 | 1 | 0 | 0 | 9.166666666666666 | 8.416666666666666 | 81.375 | 9.791666666666666 | scattered clouds |
| 1379 | 2016-11-23 | night | 2016 | 11 | autumn | 8056 | 1 | 0 | 0 | 8.916666666666666 | 7.458333333333333 | 86.91666666666667 | 11.833333333333334 | NA |
| 1380 | 2016-11-24 | day | 2016 | 11 | autumn | 20341 | 1 | 0 | 0 | 10.458333333333334 | 9.125 | 76.375 | 22.25 | broken clouds |
| 1381 | 2016-11-24 | night | 2016 | 11 | autumn | 7600 | 1 | 0 | 0 | 9.708333333333334 | 7.958333333333333 | 78.16666666666667 | 21.958333333333332 | cloudy |
| 1382 | 2016-11-25 | day | 2016 | 11 | autumn | 20824 | 1 | 0 | 0 | 9.291666666666666 | 7.625 | 61.625 | 18.166666666666668 | NA |
| 1383 | 2016-11-25 | night | 2016 | 11 | autumn | 6589 | 1 | 0 | 0 | 7.125 | 4.666666666666667 | 79 | 13.875 | clear |
| 1384 | 2016-11-26 | day | 2016 | 11 | autumn | 14379 | 0 | 1 | 0 | 6.958333333333333 | 5.833333333333333 | 82.625 | 7.583333333333333 | clear |
| 1385 | 2016-11-26 | night | 2016 | 11 | autumn | 5202 | 0 | 1 | 0 | 5.708333333333333 | 4.125 | 88.375 | 8.083333333333334 | clear |
| 1386 | 2016-11-27 | day | 2016 | 11 | autumn | 11198 | 0 | 1 | 0 | 8.416666666666666 | 6.416666666666667 | 73.91666666666667 | 12.375 | cloudy |
| 1387 | 2016-11-27 | night | 2016 | 11 | autumn | 4248 | 0 | 1 | 0 | 6.666666666666667 | 5.166666666666667 | 81.58333333333333 | 9.083333333333334 | broken clouds |
| 1388 | 2016-11-28 | day | 2016 | 11 | autumn | 19585 | 1 | 0 | 0 | 7.458333333333333 | 4.208333333333333 | 60.541666666666664 | 20.708333333333332 | scattered clouds |
| 1389 | 2016-11-28 | night | 2016 | 11 | autumn | 7180 | 1 | 0 | 0 | 6.125 | 3.7916666666666665 | 68.75 | 12.25 | clear |
| 1390 | 2016-11-29 | day | 2016 | 11 | autumn | 20020 | 1 | 0 | 0 | 4.416666666666667 | 2.4583333333333335 | 70.20833333333333 | 8.958333333333334 | clear |
| 1391 | 2016-11-29 | night | 2016 | 11 | autumn | 7587 | 1 | 0 | 0 | 1.7083333333333333 | 0.7916666666666666 | 83.04166666666667 | 4.708333333333333 | clear |
| 1392 | 2016-11-30 | day | 2016 | 11 | autumn | 19306 | 1 | 0 | 0 | 3.625 | 0.75 | 72.83333333333333 | 11.333333333333334 | clear |
| 1393 | 2016-11-30 | night | 2016 | 11 | autumn | 7628 | 1 | 0 | 0 | 1.9583333333333333 | -0.6666666666666666 | 74.33333333333333 | 10.166666666666666 | clear |
| 1394 | 2016-12-01 | day | 2016 | 12 | winter | 19055 | 1 | 0 | 0 | 5 | 2.1666666666666665 | 73.08333333333333 | 13 | clear |
| 1395 | 2016-12-01 | night | 2016 | 12 | winter | 7190 | 1 | 0 | 0 | 3.7916666666666665 | 0.875 | 72.83333333333333 | 11.916666666666666 | clear |
| 1396 | 2016-12-02 | day | 2016 | 12 | winter | 19427 | 1 | 0 | 0 | 7.375 | 6.541666666666667 | 82.875 | 5.75 | broken clouds |
| 1397 | 2016-12-02 | night | 2016 | 12 | winter | 6564 | 1 | 0 | 0 | 6.375 | 4.916666666666667 | 87.29166666666667 | 7.416666666666667 | cloudy |
| 1398 | 2016-12-03 | day | 2016 | 12 | winter | 12851 | 0 | 1 | 0 | 7.458333333333333 | 4.625 | 69.58333333333333 | 18.625 | NA |
| 1399 | 2016-12-03 | night | 2016 | 12 | winter | 5047 | 0 | 1 | 0 | 5.666666666666667 | 3.9583333333333335 | 82.25 | 8.083333333333334 | cloudy |
| 1400 | 2016-12-04 | day | 2016 | 12 | winter | 11570 | 0 | 1 | 0 | 5.666666666666667 | 2.375 | 72.25 | 18.833333333333332 | clear |
| 1401 | 2016-12-04 | night | 2016 | 12 | winter | 3697 | 0 | 1 | 0 | 3.6666666666666665 | 1.625 | 83.79166666666667 | 8.875 | clear |
| 1402 | 2016-12-05 | day | 2016 | 12 | winter | 18940 | 1 | 0 | 0 | 4.458333333333333 | 2.5833333333333335 | 88.125 | 8.625 | clear |
| 1403 | 2016-12-05 | night | 2016 | 12 | winter | 7291 | 1 | 0 | 0 | 2.7916666666666665 | 1.5416666666666667 | 92.875 | 5.375 | clear |
| 1404 | 2016-12-06 | day | 2016 | 12 | winter | 20058 | 1 | 0 | 0 | 7.416666666666667 | 6.791666666666667 | 93.375 | 5.041666666666667 | scattered clouds |
| 1405 | 2016-12-06 | night | 2016 | 12 | winter | 8037 | 1 | 0 | 0 | 7.083333333333333 | 6.333333333333333 | 93.875 | 7.958333333333333 | cloudy |
| 1406 | 2016-12-07 | day | 2016 | 12 | winter | 21108 | 1 | 0 | 0 | 12.833333333333334 | 12.791666666666666 | 81.375 | 14.75 | clear |
| 1407 | 2016-12-07 | night | 2016 | 12 | winter | 8316 | 1 | 0 | 0 | 11.375 | 11.333333333333334 | 85.75 | 10.833333333333334 | clear |
| 1408 | 2016-12-08 | day | 2016 | 12 | winter | 20147 | 1 | 0 | 0 | 13.208333333333334 | 13.208333333333334 | 82.08333333333333 | 19.291666666666668 | broken clouds |
| 1409 | 2016-12-08 | night | 2016 | 12 | winter | 8219 | 1 | 0 | 0 | 12.375 | 12.375 | 84.875 | 13.333333333333334 | clear |
| 1410 | 2016-12-09 | day | 2016 | 12 | winter | 21734 | 1 | 0 | 0 | 13.791666666666666 | 13.791666666666666 | 82.58333333333333 | 15.25 | clear |
| 1411 | 2016-12-09 | night | 2016 | 12 | winter | 7980 | 1 | 0 | 0 | 12.458333333333334 | 12.458333333333334 | 88.25 | 13.375 | cloudy |
| 1412 | 2016-12-10 | day | 2016 | 12 | winter | 11186 | 0 | 1 | 0 | 13.125 | 13.125 | 90.5 | 13 | cloudy |
| 1413 | 2016-12-10 | night | 2016 | 12 | winter | 3646 | 0 | 1 | 0 | 11.5 | 11 | 87.875 | 17.208333333333332 | rain |
| 1414 | 2016-12-11 | day | 2016 | 12 | winter | 13162 | 0 | 1 | 0 | 8.291666666666666 | 5.916666666666667 | 84.58333333333333 | 16.5 | clear |
| 1415 | 2016-12-11 | night | 2016 | 12 | winter | 4288 | 0 | 1 | 0 | 7.708333333333333 | 5.208333333333333 | 88.58333333333333 | 14.041666666666666 | clear |
| 1416 | 2016-12-12 | day | 2016 | 12 | winter | 17956 | 1 | 0 | 0 | 8.083333333333334 | 6.625 | 91.5 | 9.625 | cloudy |
| 1417 | 2016-12-12 | night | 2016 | 12 | winter | 7319 | 1 | 0 | 0 | 8.5 | 7.541666666666667 | 91.41666666666667 | 11.5 | clear |
| 1418 | 2016-12-13 | day | 2016 | 12 | winter | 18547 | 1 | 0 | 0 | 12.041666666666666 | 11.833333333333334 | 91.75 | 11.166666666666666 | broken clouds |
| 1419 | 2016-12-13 | night | 2016 | 12 | winter | 7973 | 1 | 0 | 0 | 11.208333333333334 | 10.916666666666666 | 89.75 | 8.75 | cloudy |
| 1420 | 2016-12-14 | day | 2016 | 12 | winter | 20592 | 1 | 0 | 0 | 11.083333333333334 | 10.416666666666666 | 81.5 | 11.625 | clear |
| 1421 | 2016-12-14 | night | 2016 | 12 | winter | 8269 | 1 | 0 | 0 | 9.5 | 8.541666666666666 | 88.83333333333333 | 8.083333333333334 | clear |
| 1422 | 2016-12-15 | day | 2016 | 12 | winter | 20207 | 1 | 0 | 0 | 9.833333333333334 | 8.583333333333334 | 88.29166666666667 | 12.916666666666666 | cloudy |
| 1423 | 2016-12-15 | night | 2016 | 12 | winter | 7988 | 1 | 0 | 0 | 8.166666666666666 | 6.458333333333333 | 90.79166666666667 | 10.583333333333334 | cloudy |
| 1424 | 2016-12-16 | day | 2016 | 12 | winter | 19849 | 1 | 0 | 0 | 9.583333333333334 | 8.458333333333334 | 90.25 | 8.583333333333334 | cloudy |
| 1425 | 2016-12-16 | night | 2016 | 12 | winter | 7772 | 1 | 0 | 0 | 9.5 | 8.666666666666666 | 89.66666666666667 | 7.5 | cloudy |
| 1426 | 2016-12-17 | day | 2016 | 12 | winter | 11772 | 0 | 1 | 0 | 7.208333333333333 | 5.708333333333333 | 98.25 | 8.541666666666666 | cloudy |
| 1427 | 2016-12-17 | night | 2016 | 12 | winter | 5466 | 0 | 1 | 0 | 7.625 | 7.208333333333333 | 93.625 | 3.875 | cloudy |
| 1428 | 2016-12-18 | day | 2016 | 12 | winter | 10514 | 0 | 1 | 0 | 8.333333333333334 | 7.333333333333333 | 90.75 | 6.916666666666667 | cloudy |
| 1429 | 2016-12-18 | night | 2016 | 12 | winter | 4456 | 0 | 1 | 0 | 7.958333333333333 | 7.083333333333333 | 90.70833333333333 | 6.125 | cloudy |
| 1430 | 2016-12-19 | day | 2016 | 12 | winter | 17179 | 1 | 0 | 0 | 7.25 | 6.416666666666667 | 89 | 6 | cloudy |
| 1431 | 2016-12-19 | night | 2016 | 12 | winter | 6356 | 1 | 0 | 0 | 7.125 | 5.625 | 87.79166666666667 | 8.916666666666666 | cloudy |
| 1432 | 2016-12-20 | day | 2016 | 12 | winter | 18441 | 1 | 0 | 0 | 6.25 | 4.083333333333333 | 78.375 | 10.958333333333334 | scattered clouds |
| 1433 | 2016-12-20 | night | 2016 | 12 | winter | 6423 | 1 | 0 | 0 | 6.166666666666667 | 3.8333333333333335 | 81.66666666666667 | 11.458333333333334 | NA |
| 1434 | 2016-12-21 | day | 2016 | 12 | winter | 16864 | 1 | 0 | 0 | 11.083333333333334 | 10.458333333333334 | 83.625 | 19.916666666666668 | broken clouds |
| 1435 | 2016-12-21 | night | 2016 | 12 | winter | 6272 | 1 | 0 | 0 | 9.541666666666666 | 8.166666666666666 | 83.04166666666667 | 14.416666666666666 | cloudy |
| 1436 | 2016-12-22 | day | 2016 | 12 | winter | 16177 | 1 | 0 | 0 | 8.25 | 6.291666666666667 | 77 | 14.333333333333334 | clear |
| 1437 | 2016-12-22 | night | 2016 | 12 | winter | 5284 | 1 | 0 | 0 | 8.333333333333334 | 6.541666666666667 | 83.20833333333333 | 10.875 | clear |
| 1438 | 2016-12-23 | day | 2016 | 12 | winter | 11820 | 1 | 0 | 0 | 10.708333333333334 | 10.125 | 82.33333333333333 | 26.041666666666668 | cloudy |
| 1439 | 2016-12-23 | night | 2016 | 12 | winter | 2589 | 1 | 0 | 0 | 9.125 | 7.625 | 87 | 16.541666666666668 | clear |
| 1440 | 2016-12-24 | day | 2016 | 12 | winter | 5797 | 0 | 1 | 0 | 8.833333333333334 | 5.416666666666667 | 73.20833333333333 | 25.958333333333332 | scattered clouds |
| 1441 | 2016-12-24 | night | 2016 | 12 | winter | 2093 | 0 | 1 | 0 | 9.208333333333334 | 6.791666666666667 | 77.5 | 23.833333333333332 | scattered clouds |
| 1442 | 2016-12-25 | day | 2016 | 12 | winter | 27603 | 0 | 1 | 0 | 12.958333333333334 | 12.958333333333334 | 80.375 | 27.083333333333332 | cloudy |
| 1443 | 2016-12-25 | night | 2016 | 12 | winter | 9050 | 0 | 1 | 0 | 12.041666666666666 | 12.041666666666666 | 78.45833333333333 | 28.25 | cloudy |
| 1444 | 2016-12-26 | day | 2016 | 12 | winter | 8735 | 0 | 0 | 1 | 8.458333333333334 | 5.166666666666667 | 64.875 | 23.875 | clear |
| 1445 | 2016-12-26 | night | 2016 | 12 | winter | 2720 | 0 | 0 | 1 | 8.25 | 5.916666666666667 | 76.20833333333333 | 20.166666666666668 | clear |
| 1446 | 2016-12-27 | day | 2016 | 12 | winter | 8165 | 0 | 0 | 1 | 4.958333333333333 | 3.2083333333333335 | 78.54166666666667 | 7.875 | NA |
| 1447 | 2016-12-27 | night | 2016 | 12 | winter | 2677 | 0 | 0 | 1 | 3.4166666666666665 | 1.7083333333333333 | 85.29166666666667 | 7.125 | NA |
| 1448 | 2016-12-28 | day | 2016 | 12 | winter | 9485 | 1 | 0 | 0 | 2.3333333333333335 | -0.041666666666666664 | 98.25 | 8.125 | cloudy |
| 1449 | 2016-12-28 | night | 2016 | 12 | winter | 2943 | 1 | 0 | 0 | 2 | 0.08333333333333333 | 96.20833333333333 | 6.666666666666667 | NA |
| 1450 | 2016-12-29 | day | 2016 | 12 | winter | 10858 | 1 | 0 | 0 | 4.791666666666667 | 3.4583333333333335 | 86.45833333333333 | 6.458333333333333 | clear |
| 1451 | 2016-12-29 | night | 2016 | 12 | winter | 3194 | 1 | 0 | 0 | 2.75 | 1.4166666666666667 | 93.5 | 5.666666666666667 | clear |
| 1452 | 2016-12-30 | day | 2016 | 12 | winter | 8866 | 1 | 0 | 0 | 3.7083333333333335 | 1.0416666666666667 | 99.70833333333333 | 10.25 | cloudy |
| 1453 | 2016-12-30 | night | 2016 | 12 | winter | 2700 | 1 | 0 | 0 | 2.8333333333333335 | 1.0833333333333333 | 97.66666666666667 | 7.75 | cloudy |
| 1454 | 2016-12-31 | day | 2016 | 12 | winter | 7659 | 0 | 1 | 0 | 7.708333333333333 | 5.125 | 91.125 | 14.625 | cloudy |
| 1455 | 2016-12-31 | night | 2016 | 12 | winter | 3765 | 0 | 1 | 0 | 7.166666666666667 | 4.958333333333333 | 90.79166666666667 | 12 | cloudy |